﻿<?xml version="1.0" encoding="utf-8"?><gpx creator="Garmin Desktop App" version="1.1" xsi:schemaLocation="http://www.topografix.com/GPX/1/1 http://www.topografix.com/GPX/1/1/gpx.xsd http://www.garmin.com/xmlschemas/WaypointExtension/v1 http://www8.garmin.com/xmlschemas/WaypointExtensionv1.xsd http://www.garmin.com/xmlschemas/TrackPointExtension/v1 http://www.garmin.com/xmlschemas/TrackPointExtensionv1.xsd http://www.garmin.com/xmlschemas/GpxExtensions/v3 http://www8.garmin.com/xmlschemas/GpxExtensionsv3.xsd http://www.garmin.com/xmlschemas/ActivityExtension/v1 http://www8.garmin.com/xmlschemas/ActivityExtensionv1.xsd http://www.garmin.com/xmlschemas/AdventuresExtensions/v1 http://www8.garmin.com/xmlschemas/AdventuresExtensionv1.xsd http://www.garmin.com/xmlschemas/PressureExtension/v1 http://www.garmin.com/xmlschemas/PressureExtensionv1.xsd http://www.garmin.com/xmlschemas/TripExtensions/v1 http://www.garmin.com/xmlschemas/TripExtensionsv1.xsd http://www.garmin.com/xmlschemas/TripMetaDataExtensions/v1 http://www.garmin.com/xmlschemas/TripMetaDataExtensionsv1.xsd http://www.garmin.com/xmlschemas/ViaPointTransportationModeExtensions/v1 http://www.garmin.com/xmlschemas/ViaPointTransportationModeExtensionsv1.xsd http://www.garmin.com/xmlschemas/CreationTimeExtension/v1 http://www.garmin.com/xmlschemas/CreationTimeExtensionsv1.xsd http://www.garmin.com/xmlschemas/AccelerationExtension/v1 http://www.garmin.com/xmlschemas/AccelerationExtensionv1.xsd http://www.garmin.com/xmlschemas/PowerExtension/v1 http://www.garmin.com/xmlschemas/PowerExtensionv1.xsd http://www.garmin.com/xmlschemas/VideoExtension/v1 http://www.garmin.com/xmlschemas/VideoExtensionv1.xsd" xmlns="http://www.topografix.com/GPX/1/1" xmlns:xsi="http://www.w3.org/2001/XMLSchema-instance" xmlns:wptx1="http://www.garmin.com/xmlschemas/WaypointExtension/v1" xmlns:gpxtrx="http://www.garmin.com/xmlschemas/GpxExtensions/v3" xmlns:gpxtpx="http://www.garmin.com/xmlschemas/TrackPointExtension/v1" xmlns:gpxx="http://www.garmin.com/xmlschemas/GpxExtensions/v3" xmlns:trp="http://www.garmin.com/xmlschemas/TripExtensions/v1" xmlns:adv="http://www.garmin.com/xmlschemas/AdventuresExtensions/v1" xmlns:prs="http://www.garmin.com/xmlschemas/PressureExtension/v1" xmlns:tmd="http://www.garmin.com/xmlschemas/TripMetaDataExtensions/v1" xmlns:vptm="http://www.garmin.com/xmlschemas/ViaPointTransportationModeExtensions/v1" xmlns:ctx="http://www.garmin.com/xmlschemas/CreationTimeExtension/v1" xmlns:gpxacc="http://www.garmin.com/xmlschemas/AccelerationExtension/v1" xmlns:gpxpx="http://www.garmin.com/xmlschemas/PowerExtension/v1" xmlns:vidx1="http://www.garmin.com/xmlschemas/VideoExtension/v1">

  <metadata>
    <link href="http://www.garmin.com">
      <text>Garmin International</text>
    </link>
    <time>2020-10-03T11:42:27Z</time>
    <bounds maxlat="45.887141386047006" maxlon="8.450767965987325" minlat="45.86598202586174" minlon="8.412749916315079" />
  </metadata>

  <trk>
    <name>mottarone2020-09-27</name>
    <extensions>
      <gpxx:TrackExtension>
        <gpxx:DisplayColor>Yellow</gpxx:DisplayColor>
      </gpxx:TrackExtension>
      <gpxtrkx:TrackStatsExtension xmlns:gpxtrkx="http://www.garmin.com/xmlschemas/TrackStatsExtension/v1">
        <gpxtrkx:Distance>13453</gpxtrkx:Distance>
        <gpxtrkx:TotalElapsedTime>28264</gpxtrkx:TotalElapsedTime>
        <gpxtrkx:MovingTime>19267</gpxtrkx:MovingTime>
        <gpxtrkx:StoppedTime>8985</gpxtrkx:StoppedTime>
        <gpxtrkx:MovingSpeed>1</gpxtrkx:MovingSpeed>
        <gpxtrkx:MaxSpeed>2</gpxtrkx:MaxSpeed>
        <gpxtrkx:MaxElevation>1439</gpxtrkx:MaxElevation>
        <gpxtrkx:MinElevation>292</gpxtrkx:MinElevation>
        <gpxtrkx:Ascent>1154</gpxtrkx:Ascent>
        <gpxtrkx:Descent>1175</gpxtrkx:Descent>
        <gpxtrkx:AvgAscentRate>0</gpxtrkx:AvgAscentRate>
        <gpxtrkx:MaxAscentRate>0</gpxtrkx:MaxAscentRate>
        <gpxtrkx:AvgDescentRate>0</gpxtrkx:AvgDescentRate>
        <gpxtrkx:MaxDescentRate>-0</gpxtrkx:MaxDescentRate>
      </gpxtrkx:TrackStatsExtension>
    </extensions>
    <trkseg>
      <trkpt lat="45.878148274496198" lon="8.413153337314725">
        <ele>316.80000000000001</ele>
        <time>2020-09-27T06:22:09Z</time>
      </trkpt>
      <trkpt lat="45.878147687762976" lon="8.413152331486344">
        <ele>316.80000000000001</ele>
        <time>2020-09-27T06:22:10Z</time>
      </trkpt>
      <trkpt lat="45.878154812380672" lon="8.413157360628247">
        <ele>317.27999999999997</ele>
        <time>2020-09-27T06:22:30Z</time>
      </trkpt>
      <trkpt lat="45.878166547045112" lon="8.413185607641935">
        <ele>315.72000000000003</ele>
        <time>2020-09-27T06:22:47Z</time>
      </trkpt>
      <trkpt lat="45.878220526501536" lon="8.41321318410337">
        <ele>315.81999999999999</ele>
        <time>2020-09-27T06:23:01Z</time>
      </trkpt>
      <trkpt lat="45.878250449895859" lon="8.413187619298697">
        <ele>316.06</ele>
        <time>2020-09-27T06:23:14Z</time>
      </trkpt>
      <trkpt lat="45.87826369330287" lon="8.413187032565475">
        <ele>315.56</ele>
        <time>2020-09-27T06:23:33Z</time>
      </trkpt>
      <trkpt lat="45.878260256722569" lon="8.413195330649614">
        <ele>316.25</ele>
        <time>2020-09-27T06:23:50Z</time>
      </trkpt>
      <trkpt lat="45.878259586170316" lon="8.413202287629247">
        <ele>315.58999999999997</ele>
        <time>2020-09-27T06:24:07Z</time>
      </trkpt>
      <trkpt lat="45.878273332491517" lon="8.413198012858629">
        <ele>315.63999999999999</ele>
        <time>2020-09-27T06:24:35Z</time>
      </trkpt>
      <trkpt lat="45.878280373290181" lon="8.413207149133086">
        <ele>315.43000000000001</ele>
        <time>2020-09-27T06:24:48Z</time>
      </trkpt>
      <trkpt lat="45.878282049670815" lon="8.413210418075323">
        <ele>314.70999999999998</ele>
        <time>2020-09-27T06:25:03Z</time>
      </trkpt>
      <trkpt lat="45.878276517614722" lon="8.413212262094021">
        <ele>314.92000000000002</ele>
        <time>2020-09-27T06:25:25Z</time>
      </trkpt>
      <trkpt lat="45.878281379118562" lon="8.413204131647945">
        <ele>314.99000000000001</ele>
        <time>2020-09-27T06:25:43Z</time>
      </trkpt>
      <trkpt lat="45.878291772678494" lon="8.413209915161133">
        <ele>315.12</ele>
        <time>2020-09-27T06:26:18Z</time>
      </trkpt>
      <trkpt lat="45.878296382725239" lon="8.413236318156123">
        <ele>314.79000000000002</ele>
        <time>2020-09-27T06:26:30Z</time>
      </trkpt>
      <trkpt lat="45.878290766850114" lon="8.413222404196858">
        <ele>315.88</ele>
        <time>2020-09-27T06:26:42Z</time>
      </trkpt>
      <trkpt lat="45.878289928659797" lon="8.413221230730414">
        <ele>311.94999999999999</ele>
        <time>2020-09-27T06:26:44Z</time>
      </trkpt>
      <trkpt lat="45.878288671374321" lon="8.413220560178161">
        <ele>315.58999999999997</ele>
        <time>2020-09-27T06:26:48Z</time>
      </trkpt>
      <trkpt lat="45.878289174288511" lon="8.413220560178161">
        <ele>315.62</ele>
        <time>2020-09-27T06:26:49Z</time>
      </trkpt>
      <trkpt lat="45.878287330269814" lon="8.413221230730414">
        <ele>314.82999999999998</ele>
        <time>2020-09-27T06:26:56Z</time>
      </trkpt>
      <trkpt lat="45.878276769071817" lon="8.413212681189179">
        <ele>314.63</ele>
        <time>2020-09-27T06:27:15Z</time>
      </trkpt>
      <trkpt lat="45.878293616697192" lon="8.41318778693676">
        <ele>314.52999999999997</ele>
        <time>2020-09-27T06:27:36Z</time>
      </trkpt>
      <trkpt lat="45.878303255885839" lon="8.413137244060636">
        <ele>314.23000000000002</ele>
        <time>2020-09-27T06:27:48Z</time>
      </trkpt>
      <trkpt lat="45.878339298069477" lon="8.41314529068768">
        <ele>314.23000000000002</ele>
        <time>2020-09-27T06:27:53Z</time>
      </trkpt>
      <trkpt lat="45.878378860652447" lon="8.41315409168601">
        <ele>314.08999999999997</ele>
        <time>2020-09-27T06:27:57Z</time>
      </trkpt>
      <trkpt lat="45.878540547564626" lon="8.413172531872988">
        <ele>313.27999999999997</ele>
        <time>2020-09-27T06:28:12Z</time>
      </trkpt>
      <trkpt lat="45.878708185628057" lon="8.413143279030919">
        <ele>312.01999999999998</ele>
        <time>2020-09-27T06:28:27Z</time>
      </trkpt>
      <trkpt lat="45.87886668741703" lon="8.413159120827913">
        <ele>310.79000000000002</ele>
        <time>2020-09-27T06:28:42Z</time>
      </trkpt>
      <trkpt lat="45.878967605531216" lon="8.413217626512051">
        <ele>309.97000000000003</ele>
        <time>2020-09-27T06:28:53Z</time>
      </trkpt>
      <trkpt lat="45.879117893055081" lon="8.413236737251282">
        <ele>309.00999999999999</ele>
        <time>2020-09-27T06:29:07Z</time>
      </trkpt>
      <trkpt lat="45.879189390689135" lon="8.413244364783168">
        <ele>308.42000000000002</ele>
        <time>2020-09-27T06:29:14Z</time>
      </trkpt>
      <trkpt lat="45.879362979903817" lon="8.413271522149444">
        <ele>307.79000000000002</ele>
        <time>2020-09-27T06:29:29Z</time>
      </trkpt>
      <trkpt lat="45.879506394267082" lon="8.413284262642264">
        <ele>307.63</ele>
        <time>2020-09-27T06:29:42Z</time>
      </trkpt>
      <trkpt lat="45.879677133634686" lon="8.413308234885335">
        <ele>308.52999999999997</ele>
        <time>2020-09-27T06:29:56Z</time>
      </trkpt>
      <trkpt lat="45.879903780296445" lon="8.413324160501361">
        <ele>309.94999999999999</ele>
        <time>2020-09-27T06:30:17Z</time>
      </trkpt>
      <trkpt lat="45.880076698958874" lon="8.413310246542096">
        <ele>310.36000000000001</ele>
        <time>2020-09-27T06:30:33Z</time>
      </trkpt>
      <trkpt lat="45.88026168756187" lon="8.413285939022899">
        <ele>309.79000000000002</ele>
        <time>2020-09-27T06:30:49Z</time>
      </trkpt>
      <trkpt lat="45.880406778305769" lon="8.41331435367465">
        <ele>309.91000000000003</ele>
        <time>2020-09-27T06:31:03Z</time>
      </trkpt>
      <trkpt lat="45.880567543208599" lon="8.413358861580491">
        <ele>310.75999999999999</ele>
        <time>2020-09-27T06:31:19Z</time>
      </trkpt>
      <trkpt lat="45.880687069147825" lon="8.413388868793845">
        <ele>311.38</ele>
        <time>2020-09-27T06:31:32Z</time>
      </trkpt>
      <trkpt lat="45.880884295329452" lon="8.413441088050604">
        <ele>312.67000000000002</ele>
        <time>2020-09-27T06:31:50Z</time>
      </trkpt>
      <trkpt lat="45.881051849573851" lon="8.413483584299684">
        <ele>314.10000000000002</ele>
        <time>2020-09-27T06:32:06Z</time>
      </trkpt>
      <trkpt lat="45.881192330271006" lon="8.413506969809532">
        <ele>315.54000000000002</ele>
        <time>2020-09-27T06:32:19Z</time>
      </trkpt>
      <trkpt lat="45.881347814574838" lon="8.413516022264957">
        <ele>316.72000000000003</ele>
        <time>2020-09-27T06:32:33Z</time>
      </trkpt>
      <trkpt lat="45.88151847012341" lon="8.413500348106027">
        <ele>317.95999999999998</ele>
        <time>2020-09-27T06:32:48Z</time>
      </trkpt>
      <trkpt lat="45.881715193390846" lon="8.413513172417879">
        <ele>318.61000000000001</ele>
        <time>2020-09-27T06:33:05Z</time>
      </trkpt>
      <trkpt lat="45.881801024079323" lon="8.4137072134763">
        <ele>319.88999999999999</ele>
        <time>2020-09-27T06:33:20Z</time>
      </trkpt>
      <trkpt lat="45.881816362962127" lon="8.413900081068277">
        <ele>321.93000000000001</ele>
        <time>2020-09-27T06:33:34Z</time>
      </trkpt>
      <trkpt lat="45.881835306063294" lon="8.413957329466939">
        <ele>322.68000000000001</ele>
        <time>2020-09-27T06:33:39Z</time>
      </trkpt>
      <trkpt lat="45.88192155584693" lon="8.414127314463258">
        <ele>324.57999999999998</ele>
        <time>2020-09-27T06:33:55Z</time>
      </trkpt>
      <trkpt lat="45.88201199658215" lon="8.414292186498642">
        <ele>326.62</ele>
        <time>2020-09-27T06:34:11Z</time>
      </trkpt>
      <trkpt lat="45.882124314084649" lon="8.414436271414161">
        <ele>328.67000000000002</ele>
        <time>2020-09-27T06:34:28Z</time>
      </trkpt>
      <trkpt lat="45.882263202220201" lon="8.414505673572421">
        <ele>330.79000000000002</ele>
        <time>2020-09-27T06:34:44Z</time>
      </trkpt>
      <trkpt lat="45.882383063435555" lon="8.414540709927678">
        <ele>332.88</ele>
        <time>2020-09-27T06:34:59Z</time>
      </trkpt>
      <trkpt lat="45.882510300725698" lon="8.414566358551383">
        <ele>334.75999999999999</ele>
        <time>2020-09-27T06:35:14Z</time>
      </trkpt>
      <trkpt lat="45.882665952667594" lon="8.41462335549295">
        <ele>337.18000000000001</ele>
        <time>2020-09-27T06:35:32Z</time>
      </trkpt>
      <trkpt lat="45.882811630144715" lon="8.414664342999458">
        <ele>338.89999999999998</ele>
        <time>2020-09-27T06:35:48Z</time>
      </trkpt>
      <trkpt lat="45.882956888526678" lon="8.414631150662899">
        <ele>341.06999999999999</ele>
        <time>2020-09-27T06:36:03Z</time>
      </trkpt>
      <trkpt lat="45.88310063816607" lon="8.41464338824153">
        <ele>342.73000000000002</ele>
        <time>2020-09-27T06:36:18Z</time>
      </trkpt>
      <trkpt lat="45.883265510201454" lon="8.414694266393781">
        <ele>344.18000000000001</ele>
        <time>2020-09-27T06:36:34Z</time>
      </trkpt>
      <trkpt lat="45.883279927074909" lon="8.414709605276585">
        <ele>344.39999999999998</ele>
        <time>2020-09-27T06:36:36Z</time>
      </trkpt>
      <trkpt lat="45.88334497064352" lon="8.414737265557051">
        <ele>345.01999999999998</ele>
        <time>2020-09-27T06:36:45Z</time>
      </trkpt>
      <trkpt lat="45.88339576497674" lon="8.414748581126332">
        <ele>345.13</ele>
        <time>2020-09-27T06:36:50Z</time>
      </trkpt>
      <trkpt lat="45.883586285635829" lon="8.414842877537012">
        <ele>345.08999999999997</ele>
        <time>2020-09-27T06:37:08Z</time>
      </trkpt>
      <trkpt lat="45.883764987811446" lon="8.414974892511964">
        <ele>345</ele>
        <time>2020-09-27T06:37:26Z</time>
      </trkpt>
      <trkpt lat="45.883925249800086" lon="8.415074050426483">
        <ele>344.47000000000003</ele>
        <time>2020-09-27T06:37:42Z</time>
      </trkpt>
      <trkpt lat="45.88411065749824" lon="8.415144206956029">
        <ele>344.61000000000001</ele>
        <time>2020-09-27T06:37:58Z</time>
      </trkpt>
      <trkpt lat="45.88426505215466" lon="8.415226768702269">
        <ele>343.08999999999997</ele>
        <time>2020-09-27T06:38:14Z</time>
      </trkpt>
      <trkpt lat="45.884423302486539" lon="8.415292985737324">
        <ele>342.70999999999998</ele>
        <time>2020-09-27T06:38:29Z</time>
      </trkpt>
      <trkpt lat="45.884598400443792" lon="8.415278987959027">
        <ele>343.10000000000002</ele>
        <time>2020-09-27T06:38:45Z</time>
      </trkpt>
      <trkpt lat="45.884698480367661" lon="8.415174717083573">
        <ele>343.63999999999999</ele>
        <time>2020-09-27T06:38:57Z</time>
      </trkpt>
      <trkpt lat="45.884775007143617" lon="8.415017304942012">
        <ele>344.99000000000001</ele>
        <time>2020-09-27T06:39:12Z</time>
      </trkpt>
      <trkpt lat="45.88487533852458" lon="8.41487992554903">
        <ele>347.58999999999997</ele>
        <time>2020-09-27T06:39:27Z</time>
      </trkpt>
      <trkpt lat="45.885007688775659" lon="8.414880763739348">
        <ele>350.01999999999998</ele>
        <time>2020-09-27T06:39:43Z</time>
      </trkpt>
      <trkpt lat="45.88512503542006" lon="8.41498302295804">
        <ele>352.13999999999999</ele>
        <time>2020-09-27T06:39:58Z</time>
      </trkpt>
      <trkpt lat="45.885132998228073" lon="8.414991237223148">
        <ele>352.25999999999999</ele>
        <time>2020-09-27T06:39:59Z</time>
      </trkpt>
      <trkpt lat="45.885283453390002" lon="8.415124760940671">
        <ele>353.70999999999998</ele>
        <time>2020-09-27T06:40:15Z</time>
      </trkpt>
      <trkpt lat="45.885424520820379" lon="8.415264822542667">
        <ele>354.64999999999998</ele>
        <time>2020-09-27T06:40:30Z</time>
      </trkpt>
      <trkpt lat="45.885513033717871" lon="8.415443608537316">
        <ele>355.63</ele>
        <time>2020-09-27T06:40:45Z</time>
      </trkpt>
      <trkpt lat="45.885526780039072" lon="8.415683079510927">
        <ele>357.5</ele>
        <time>2020-09-27T06:41:01Z</time>
      </trkpt>
      <trkpt lat="45.885519152507186" lon="8.41582196764648">
        <ele>358.17000000000002</ele>
        <time>2020-09-27T06:41:15Z</time>
      </trkpt>
      <trkpt lat="45.885536754503846" lon="8.415890112519264">
        <ele>359.00999999999999</ele>
        <time>2020-09-27T06:41:32Z</time>
      </trkpt>
      <trkpt lat="45.885547650977969" lon="8.415906960144639">
        <ele>359.88</ele>
        <time>2020-09-27T06:41:36Z</time>
      </trkpt>
      <trkpt lat="45.885577322915196" lon="8.416009973734617">
        <ele>361.51999999999998</ele>
        <time>2020-09-27T06:41:48Z</time>
      </trkpt>
      <trkpt lat="45.88559165596962" lon="8.416147604584694">
        <ele>363.88</ele>
        <time>2020-09-27T06:42:04Z</time>
      </trkpt>
      <trkpt lat="45.885683437809348" lon="8.416186077520251">
        <ele>365.04000000000002</ele>
        <time>2020-09-27T06:42:13Z</time>
      </trkpt>
      <trkpt lat="45.885742530226707" lon="8.416181048378348">
        <ele>365.58999999999997</ele>
        <time>2020-09-27T06:42:22Z</time>
      </trkpt>
      <trkpt lat="45.885815285146236" lon="8.416187921538949">
        <ele>365.44999999999999</ele>
        <time>2020-09-27T06:42:27Z</time>
      </trkpt>
      <trkpt lat="45.885926680639386" lon="8.416213067248464">
        <ele>364.20999999999998</ele>
        <time>2020-09-27T06:42:43Z</time>
      </trkpt>
      <trkpt lat="45.885973451659083" lon="8.416229914873838">
        <ele>363.44999999999999</ele>
        <time>2020-09-27T06:42:56Z</time>
      </trkpt>
      <trkpt lat="45.885977810248733" lon="8.41630669310689">
        <ele>364.91000000000003</ele>
        <time>2020-09-27T06:43:08Z</time>
      </trkpt>
      <trkpt lat="45.885997088626027" lon="8.416363941505551">
        <ele>366.56</ele>
        <time>2020-09-27T06:43:20Z</time>
      </trkpt>
      <trkpt lat="45.886011170223355" lon="8.416378190740943">
        <ele>367.77999999999997</ele>
        <time>2020-09-27T06:43:36Z</time>
      </trkpt>
      <trkpt lat="45.885985940694809" lon="8.416417837142944">
        <ele>366.25999999999999</ele>
        <time>2020-09-27T06:43:53Z</time>
      </trkpt>
      <trkpt lat="45.885979402810335" lon="8.416430577635765">
        <ele>367.16000000000003</ele>
        <time>2020-09-27T06:44:10Z</time>
      </trkpt>
      <trkpt lat="45.885969344526529" lon="8.416483215987682">
        <ele>369.00999999999999</ele>
        <time>2020-09-27T06:44:25Z</time>
      </trkpt>
      <trkpt lat="45.885879658162594" lon="8.416516575962305">
        <ele>372.07999999999998</ele>
        <time>2020-09-27T06:44:39Z</time>
      </trkpt>
      <trkpt lat="45.885838586837053" lon="8.416554713621736">
        <ele>375.31999999999999</ele>
        <time>2020-09-27T06:44:52Z</time>
      </trkpt>
      <trkpt lat="45.885896505787969" lon="8.416604837402701">
        <ele>378.11000000000001</ele>
        <time>2020-09-27T06:45:08Z</time>
      </trkpt>
      <trkpt lat="45.885967332869768" lon="8.416640628129244">
        <ele>379.44</ele>
        <time>2020-09-27T06:45:21Z</time>
      </trkpt>
      <trkpt lat="45.886066993698478" lon="8.416685806587338">
        <ele>381.5</ele>
        <time>2020-09-27T06:45:36Z</time>
      </trkpt>
      <trkpt lat="45.886157685890794" lon="8.416737942025065">
        <ele>383.81</ele>
        <time>2020-09-27T06:45:50Z</time>
      </trkpt>
      <trkpt lat="45.886212754994631" lon="8.416819581761956">
        <ele>385.48000000000002</ele>
        <time>2020-09-27T06:46:03Z</time>
      </trkpt>
      <trkpt lat="45.88625374250114" lon="8.41689988039434">
        <ele>388.11000000000001</ele>
        <time>2020-09-27T06:46:17Z</time>
      </trkpt>
      <trkpt lat="45.886302022263408" lon="8.416935000568628">
        <ele>389.07999999999998</ele>
        <time>2020-09-27T06:46:29Z</time>
      </trkpt>
      <trkpt lat="45.886299004778266" lon="8.417010186240077">
        <ele>390.66000000000003</ele>
        <time>2020-09-27T06:46:41Z</time>
      </trkpt>
      <trkpt lat="45.886327838525176" lon="8.417050670832396">
        <ele>392.43000000000001</ele>
        <time>2020-09-27T06:46:52Z</time>
      </trkpt>
      <trkpt lat="45.886384416371584" lon="8.417139602825046">
        <ele>394.39999999999998</ele>
        <time>2020-09-27T06:47:04Z</time>
      </trkpt>
      <trkpt lat="45.88643261231482" lon="8.417251165956259">
        <ele>395.77999999999997</ele>
        <time>2020-09-27T06:47:17Z</time>
      </trkpt>
      <trkpt lat="45.886478964239359" lon="8.417315119877458">
        <ele>397.26999999999998</ele>
        <time>2020-09-27T06:47:34Z</time>
      </trkpt>
      <trkpt lat="45.88652154430747" lon="8.417376978322864">
        <ele>398.94</ele>
        <time>2020-09-27T06:47:48Z</time>
      </trkpt>
      <trkpt lat="45.886582396924496" lon="8.417462473735213">
        <ele>400.75999999999999</ele>
        <time>2020-09-27T06:48:01Z</time>
      </trkpt>
      <trkpt lat="45.886594969779253" lon="8.417521985247731">
        <ele>402.63999999999999</ele>
        <time>2020-09-27T06:48:16Z</time>
      </trkpt>
      <trkpt lat="45.886531183496118" lon="8.417529026046395">
        <ele>405.74000000000001</ele>
        <time>2020-09-27T06:48:28Z</time>
      </trkpt>
      <trkpt lat="45.886430433019996" lon="8.417454175651074">
        <ele>406.39999999999998</ele>
        <time>2020-09-27T06:48:41Z</time>
      </trkpt>
      <trkpt lat="45.886326665058732" lon="8.417361052706838">
        <ele>407.91000000000003</ele>
        <time>2020-09-27T06:48:56Z</time>
      </trkpt>
      <trkpt lat="45.886239325627685" lon="8.417300367727876">
        <ele>408.60000000000002</ele>
        <time>2020-09-27T06:49:09Z</time>
      </trkpt>
      <trkpt lat="45.886160368099809" lon="8.417297098785639">
        <ele>409.80000000000001</ele>
        <time>2020-09-27T06:49:24Z</time>
      </trkpt>
      <trkpt lat="45.886033549904823" lon="8.417294751852751">
        <ele>410.74000000000001</ele>
        <time>2020-09-27T06:49:39Z</time>
      </trkpt>
      <trkpt lat="45.885950485244393" lon="8.417284274473786">
        <ele>411.74000000000001</ele>
        <time>2020-09-27T06:49:56Z</time>
      </trkpt>
      <trkpt lat="45.885848477482796" lon="8.417302295565605">
        <ele>413.25999999999999</ele>
        <time>2020-09-27T06:50:10Z</time>
      </trkpt>
      <trkpt lat="45.885698776692152" lon="8.417275892570615">
        <ele>414.75999999999999</ele>
        <time>2020-09-27T06:50:28Z</time>
      </trkpt>
      <trkpt lat="45.885583441704512" lon="8.417241191491485">
        <ele>416.07999999999998</ele>
        <time>2020-09-27T06:50:45Z</time>
      </trkpt>
      <trkpt lat="45.885485876351595" lon="8.417223757132888">
        <ele>417.58999999999997</ele>
        <time>2020-09-27T06:51:01Z</time>
      </trkpt>
      <trkpt lat="45.885379174724221" lon="8.41720431111753">
        <ele>418.85000000000002</ele>
        <time>2020-09-27T06:51:15Z</time>
      </trkpt>
      <trkpt lat="45.885292841121554" lon="8.417178662493825">
        <ele>420.29000000000002</ele>
        <time>2020-09-27T06:51:32Z</time>
      </trkpt>
      <trkpt lat="45.885190749540925" lon="8.417163155972958">
        <ele>421.95999999999998</ele>
        <time>2020-09-27T06:51:46Z</time>
      </trkpt>
      <trkpt lat="45.885085640475154" lon="8.417142704129219">
        <ele>422.58999999999997</ele>
        <time>2020-09-27T06:51:58Z</time>
      </trkpt>
      <trkpt lat="45.885000228881836" lon="8.417058382183313">
        <ele>423.94999999999999</ele>
        <time>2020-09-27T06:52:12Z</time>
      </trkpt>
      <trkpt lat="45.884932838380337" lon="8.417031895369291">
        <ele>425.33999999999997</ele>
        <time>2020-09-27T06:52:25Z</time>
      </trkpt>
      <trkpt lat="45.884886989369988" lon="8.417036589235067">
        <ele>426.42000000000002</ele>
        <time>2020-09-27T06:52:35Z</time>
      </trkpt>
      <trkpt lat="45.884833261370659" lon="8.417054107412696">
        <ele>428.06</ele>
        <time>2020-09-27T06:52:48Z</time>
      </trkpt>
      <trkpt lat="45.884768133983016" lon="8.417090065777302">
        <ele>430.07999999999998</ele>
        <time>2020-09-27T06:53:01Z</time>
      </trkpt>
      <trkpt lat="45.884690349921584" lon="8.417128119617701">
        <ele>431.91000000000003</ele>
        <time>2020-09-27T06:53:16Z</time>
      </trkpt>
      <trkpt lat="45.88463393971324" lon="8.417166927829385">
        <ele>433.66000000000003</ele>
        <time>2020-09-27T06:53:32Z</time>
      </trkpt>
      <trkpt lat="45.884576020762324" lon="8.417225768789649">
        <ele>435.37</ele>
        <time>2020-09-27T06:53:46Z</time>
      </trkpt>
      <trkpt lat="45.884530004113913" lon="8.417294248938561">
        <ele>437.11000000000001</ele>
        <time>2020-09-27T06:53:59Z</time>
      </trkpt>
      <trkpt lat="45.884500835090876" lon="8.417386114597321">
        <ele>439.10000000000002</ele>
        <time>2020-09-27T06:54:14Z</time>
      </trkpt>
      <trkpt lat="45.884451381862164" lon="8.41746230609715">
        <ele>441.38</ele>
        <time>2020-09-27T06:54:29Z</time>
      </trkpt>
      <trkpt lat="45.884443754330277" lon="8.41753170825541">
        <ele>443.27999999999997</ele>
        <time>2020-09-27T06:54:41Z</time>
      </trkpt>
      <trkpt lat="45.884440066292882" lon="8.417530367150903">
        <ele>443.13999999999999</ele>
        <time>2020-09-27T06:54:55Z</time>
      </trkpt>
      <trkpt lat="45.884430008009076" lon="8.417597590014339">
        <ele>443.77999999999997</ele>
        <time>2020-09-27T06:55:14Z</time>
      </trkpt>
      <trkpt lat="45.884436713531613" lon="8.417630614712834">
        <ele>444.99000000000001</ele>
        <time>2020-09-27T06:55:25Z</time>
      </trkpt>
      <trkpt lat="45.884454566985369" lon="8.417641092091799">
        <ele>445.75999999999999</ele>
        <time>2020-09-27T06:55:38Z</time>
      </trkpt>
      <trkpt lat="45.884455656632781" lon="8.417638326063752">
        <ele>446.01999999999998</ele>
        <time>2020-09-27T06:55:59Z</time>
      </trkpt>
      <trkpt lat="45.884455824270844" lon="8.417628519237042">
        <ele>445.13999999999999</ele>
        <time>2020-09-27T06:56:19Z</time>
      </trkpt>
      <trkpt lat="45.884460350498557" lon="8.41762307099998">
        <ele>446.04000000000002</ele>
        <time>2020-09-27T06:56:44Z</time>
      </trkpt>
      <trkpt lat="45.884459763765335" lon="8.417627513408661">
        <ele>445.60000000000002</ele>
        <time>2020-09-27T06:57:00Z</time>
      </trkpt>
      <trkpt lat="45.884465463459492" lon="8.417620891705155">
        <ele>444.02999999999997</ele>
        <time>2020-09-27T06:57:12Z</time>
      </trkpt>
      <trkpt lat="45.884466469287872" lon="8.417619047686458">
        <ele>447.92000000000002</ele>
        <time>2020-09-27T06:57:15Z</time>
      </trkpt>
      <trkpt lat="45.884466301649809" lon="8.417617287486792">
        <ele>445.73000000000002</ele>
        <time>2020-09-27T06:57:16Z</time>
      </trkpt>
      <trkpt lat="45.884470660239458" lon="8.417621646076441">
        <ele>440.87</ele>
        <time>2020-09-27T06:57:17Z</time>
      </trkpt>
      <trkpt lat="45.884467978030443" lon="8.417617538943887">
        <ele>448.69999999999999</ele>
        <time>2020-09-27T06:57:18Z</time>
      </trkpt>
      <trkpt lat="45.884466636925936" lon="8.417615359649062">
        <ele>443.37</ele>
        <time>2020-09-27T06:57:19Z</time>
      </trkpt>
      <trkpt lat="45.88446781039238" lon="8.417616868391633">
        <ele>447.37</ele>
        <time>2020-09-27T06:57:23Z</time>
      </trkpt>
      <trkpt lat="45.884468229487538" lon="8.417618796229363">
        <ele>444.27999999999997</ele>
        <time>2020-09-27T06:57:25Z</time>
      </trkpt>
      <trkpt lat="45.884467223659158" lon="8.417620975524187">
        <ele>447.5</ele>
        <time>2020-09-27T06:57:27Z</time>
      </trkpt>
      <trkpt lat="45.884466720744967" lon="8.417620556429029">
        <ele>446.74000000000001</ele>
        <time>2020-09-27T06:57:28Z</time>
      </trkpt>
      <trkpt lat="45.884469654411077" lon="8.417610246688128">
        <ele>445.48000000000002</ele>
        <time>2020-09-27T06:57:44Z</time>
      </trkpt>
      <trkpt lat="45.884475857019424" lon="8.417604714632034">
        <ele>445.29000000000002</ele>
        <time>2020-09-27T06:57:51Z</time>
      </trkpt>
      <trkpt lat="45.884493123739958" lon="8.417599936947227">
        <ele>445.43000000000001</ele>
        <time>2020-09-27T06:57:53Z</time>
      </trkpt>
      <trkpt lat="45.884532937780023" lon="8.417618796229363">
        <ele>446.05000000000001</ele>
        <time>2020-09-27T06:57:58Z</time>
      </trkpt>
      <trkpt lat="45.884649530053139" lon="8.417691299691796">
        <ele>448.13</ele>
        <time>2020-09-27T06:58:13Z</time>
      </trkpt>
      <trkpt lat="45.884746257215738" lon="8.417754415422678">
        <ele>449.62</ele>
        <time>2020-09-27T06:58:26Z</time>
      </trkpt>
      <trkpt lat="45.884825801476836" lon="8.417825913056731">
        <ele>450.89999999999998</ele>
        <time>2020-09-27T06:58:37Z</time>
      </trkpt>
      <trkpt lat="45.884928898885846" lon="8.417904116213322">
        <ele>451.81</ele>
        <time>2020-09-27T06:58:51Z</time>
      </trkpt>
      <trkpt lat="45.884988578036427" lon="8.417934123426676">
        <ele>452.57999999999998</ele>
        <time>2020-09-27T06:59:01Z</time>
      </trkpt>
      <trkpt lat="45.885036438703537" lon="8.417966226115823">
        <ele>453.33999999999997</ele>
        <time>2020-09-27T06:59:13Z</time>
      </trkpt>
      <trkpt lat="45.88509377092123" lon="8.417990617454052">
        <ele>454.67000000000002</ele>
        <time>2020-09-27T06:59:26Z</time>
      </trkpt>
      <trkpt lat="45.885131824761629" lon="8.41802422888577">
        <ele>456.24000000000001</ele>
        <time>2020-09-27T06:59:37Z</time>
      </trkpt>
      <trkpt lat="45.885140877217054" lon="8.418110059574246">
        <ele>458.60000000000002</ele>
        <time>2020-09-27T06:59:53Z</time>
      </trkpt>
      <trkpt lat="45.885172057896852" lon="8.418173678219318">
        <ele>460.31999999999999</ele>
        <time>2020-09-27T07:00:04Z</time>
      </trkpt>
      <trkpt lat="45.885183038190007" lon="8.418302088975906">
        <ele>462.49000000000001</ele>
        <time>2020-09-27T07:00:18Z</time>
      </trkpt>
      <trkpt lat="45.885229893028736" lon="8.418411556631327">
        <ele>464</ele>
        <time>2020-09-27T07:00:30Z</time>
      </trkpt>
      <trkpt lat="45.885321004316211" lon="8.41844642534852">
        <ele>466.23000000000002</ele>
        <time>2020-09-27T07:00:43Z</time>
      </trkpt>
      <trkpt lat="45.885403314605355" lon="8.418432008475065">
        <ele>468.05000000000001</ele>
        <time>2020-09-27T07:00:57Z</time>
      </trkpt>
      <trkpt lat="45.885461485013366" lon="8.41848841868341">
        <ele>469.56999999999999</ele>
        <time>2020-09-27T07:01:09Z</time>
      </trkpt>
      <trkpt lat="45.885554691776633" lon="8.418564777821302">
        <ele>471.60000000000002</ele>
        <time>2020-09-27T07:01:23Z</time>
      </trkpt>
      <trkpt lat="45.885673966258764" lon="8.41863795183599">
        <ele>473.17000000000002</ele>
        <time>2020-09-27T07:01:37Z</time>
      </trkpt>
      <trkpt lat="45.885686036199331" lon="8.418640214949846">
        <ele>473.12</ele>
        <time>2020-09-27T07:01:38Z</time>
      </trkpt>
      <trkpt lat="45.885811429470778" lon="8.418665695935488">
        <ele>474.12</ele>
        <time>2020-09-27T07:01:51Z</time>
      </trkpt>
      <trkpt lat="45.885859290137887" lon="8.418719675391913">
        <ele>475.32999999999998</ele>
        <time>2020-09-27T07:02:02Z</time>
      </trkpt>
      <trkpt lat="45.885920478031039" lon="8.418785724788904">
        <ele>476.76999999999998</ele>
        <time>2020-09-27T07:02:14Z</time>
      </trkpt>
      <trkpt lat="45.885962974280119" lon="8.418849762529135">
        <ele>478.38999999999999</ele>
        <time>2020-09-27T07:02:26Z</time>
      </trkpt>
      <trkpt lat="45.886064562946558" lon="8.418916566297412">
        <ele>479.67000000000002</ele>
        <time>2020-09-27T07:02:42Z</time>
      </trkpt>
      <trkpt lat="45.886128935962915" lon="8.418949842453003">
        <ele>480.69999999999999</ele>
        <time>2020-09-27T07:02:56Z</time>
      </trkpt>
      <trkpt lat="45.886170174926519" lon="8.418982615694404">
        <ele>481.80000000000001</ele>
        <time>2020-09-27T07:03:08Z</time>
      </trkpt>
      <trkpt lat="45.886149639263749" lon="8.419010946527124">
        <ele>483.55000000000001</ele>
        <time>2020-09-27T07:03:22Z</time>
      </trkpt>
      <trkpt lat="45.886080404743552" lon="8.419081941246986">
        <ele>485.56999999999999</ele>
        <time>2020-09-27T07:03:39Z</time>
      </trkpt>
      <trkpt lat="45.886033214628696" lon="8.419174142181873">
        <ele>487.5</ele>
        <time>2020-09-27T07:03:54Z</time>
      </trkpt>
      <trkpt lat="45.88597035035491" lon="8.419282687827945">
        <ele>489.12</ele>
        <time>2020-09-27T07:04:07Z</time>
      </trkpt>
      <trkpt lat="45.885960208252072" lon="8.419299032539129">
        <ele>489.29000000000002</ele>
        <time>2020-09-27T07:04:09Z</time>
      </trkpt>
      <trkpt lat="45.885894829407334" lon="8.419387545436621">
        <ele>490.74000000000001</ele>
        <time>2020-09-27T07:04:22Z</time>
      </trkpt>
      <trkpt lat="45.885787373408675" lon="8.419426772743464">
        <ele>492.17000000000002</ele>
        <time>2020-09-27T07:04:34Z</time>
      </trkpt>
      <trkpt lat="45.885688383132219" lon="8.419488128274679">
        <ele>493.82999999999998</ele>
        <time>2020-09-27T07:04:48Z</time>
      </trkpt>
      <trkpt lat="45.885590901598334" lon="8.419562308117747">
        <ele>495.88999999999999</ele>
        <time>2020-09-27T07:05:04Z</time>
      </trkpt>
      <trkpt lat="45.885562654584646" lon="8.419547639787197">
        <ele>495.81999999999999</ele>
        <time>2020-09-27T07:05:11Z</time>
      </trkpt>
      <trkpt lat="45.885482942685485" lon="8.419516123831272">
        <ele>495.88</ele>
        <time>2020-09-27T07:05:25Z</time>
      </trkpt>
      <trkpt lat="45.885480176657438" lon="8.419481674209237">
        <ele>495.69999999999999</ele>
        <time>2020-09-27T07:05:46Z</time>
      </trkpt>
      <trkpt lat="45.885478667914867" lon="8.419458456337452">
        <ele>495.14999999999998</ele>
        <time>2020-09-27T07:06:01Z</time>
      </trkpt>
      <trkpt lat="45.885478332638741" lon="8.419454684481025">
        <ele>495.38999999999999</ele>
        <time>2020-09-27T07:06:24Z</time>
      </trkpt>
      <trkpt lat="45.885443380102515" lon="8.419439932331443">
        <ele>495.31</ele>
        <time>2020-09-27T07:06:36Z</time>
      </trkpt>
      <trkpt lat="45.885409098118544" lon="8.419430209323764">
        <ele>495.11000000000001</ele>
        <time>2020-09-27T07:06:40Z</time>
      </trkpt>
      <trkpt lat="45.885395184159279" lon="8.419417552649975">
        <ele>495.06</ele>
        <time>2020-09-27T07:06:54Z</time>
      </trkpt>
      <trkpt lat="45.885412115603685" lon="8.419421492144465">
        <ele>495.04000000000002</ele>
        <time>2020-09-27T07:06:56Z</time>
      </trkpt>
      <trkpt lat="45.885520996525884" lon="8.419502964243293">
        <ele>495.79000000000002</ele>
        <time>2020-09-27T07:07:10Z</time>
      </trkpt>
      <trkpt lat="45.885546812787652" lon="8.419591896235943">
        <ele>496.97000000000003</ele>
        <time>2020-09-27T07:07:21Z</time>
      </trkpt>
      <trkpt lat="45.885545890778303" lon="8.419678313657641">
        <ele>498.35000000000002</ele>
        <time>2020-09-27T07:07:31Z</time>
      </trkpt>
      <trkpt lat="45.885600624606013" lon="8.41977839358151">
        <ele>499.75</ele>
        <time>2020-09-27T07:07:48Z</time>
      </trkpt>
      <trkpt lat="45.885627949610353" lon="8.419816782698035">
        <ele>500.44999999999999</ele>
        <time>2020-09-27T07:08:06Z</time>
      </trkpt>
      <trkpt lat="45.8856634888798" lon="8.419829690828919">
        <ele>501.11000000000001</ele>
        <time>2020-09-27T07:08:18Z</time>
      </trkpt>
      <trkpt lat="45.885699111968279" lon="8.419843940064311">
        <ele>502.08999999999997</ele>
        <time>2020-09-27T07:08:23Z</time>
      </trkpt>
      <trkpt lat="45.885759377852082" lon="8.419915437698364">
        <ele>503.98000000000002</ele>
        <time>2020-09-27T07:08:36Z</time>
      </trkpt>
      <trkpt lat="45.885811932384968" lon="8.419936308637261">
        <ele>504.31</ele>
        <time>2020-09-27T07:08:49Z</time>
      </trkpt>
      <trkpt lat="45.885871695354581" lon="8.419935218989849">
        <ele>505.13</ele>
        <time>2020-09-27T07:08:58Z</time>
      </trkpt>
      <trkpt lat="45.88589021936059" lon="8.419919461011887">
        <ele>505.52999999999997</ele>
        <time>2020-09-27T07:09:06Z</time>
      </trkpt>
      <trkpt lat="45.885975798591971" lon="8.419871432706714">
        <ele>507.23000000000002</ele>
        <time>2020-09-27T07:09:20Z</time>
      </trkpt>
      <trkpt lat="45.886006224900484" lon="8.41992306523025">
        <ele>508.19999999999999</ele>
        <time>2020-09-27T07:09:27Z</time>
      </trkpt>
      <trkpt lat="45.886066239327192" lon="8.420032197609544">
        <ele>509.98000000000002</ele>
        <time>2020-09-27T07:09:39Z</time>
      </trkpt>
      <trkpt lat="45.886149052530527" lon="8.420078381896019">
        <ele>511.76999999999998</ele>
        <time>2020-09-27T07:09:51Z</time>
      </trkpt>
      <trkpt lat="45.886223986744881" lon="8.420138480141759">
        <ele>513.51999999999998</ele>
        <time>2020-09-27T07:10:04Z</time>
      </trkpt>
      <trkpt lat="45.886314595118165" lon="8.420169744640589">
        <ele>515.52999999999997</ele>
        <time>2020-09-27T07:10:17Z</time>
      </trkpt>
      <trkpt lat="45.886381817981601" lon="8.420207211747766">
        <ele>517.44000000000005</ele>
        <time>2020-09-27T07:10:29Z</time>
      </trkpt>
      <trkpt lat="45.886445688083768" lon="8.420284325256944">
        <ele>519.5</ele>
        <time>2020-09-27T07:10:42Z</time>
      </trkpt>
      <trkpt lat="45.886508217081428" lon="8.420357499271631">
        <ele>520.89999999999998</ele>
        <time>2020-09-27T07:10:53Z</time>
      </trkpt>
      <trkpt lat="45.886539313942194" lon="8.420448778197169">
        <ele>523.10000000000002</ele>
        <time>2020-09-27T07:11:08Z</time>
      </trkpt>
      <trkpt lat="45.886590275913477" lon="8.420575596392155">
        <ele>525.26999999999998</ele>
        <time>2020-09-27T07:11:23Z</time>
      </trkpt>
      <trkpt lat="45.886557167395949" lon="8.420626306906343">
        <ele>527.92999999999995</ele>
        <time>2020-09-27T07:11:38Z</time>
      </trkpt>
      <trkpt lat="45.886489944532514" lon="8.420630665495992">
        <ele>530.23000000000002</ele>
        <time>2020-09-27T07:11:55Z</time>
      </trkpt>
      <trkpt lat="45.886419788002968" lon="8.420635275542736">
        <ele>532.04999999999995</ele>
        <time>2020-09-27T07:12:12Z</time>
      </trkpt>
      <trkpt lat="45.886338651180267" lon="8.420638628304005">
        <ele>533.38999999999999</ele>
        <time>2020-09-27T07:12:24Z</time>
      </trkpt>
      <trkpt lat="45.886252569034696" lon="8.420684980228543">
        <ele>534.98000000000002</ele>
        <time>2020-09-27T07:12:37Z</time>
      </trkpt>
      <trkpt lat="45.886170007288456" lon="8.420735690742731">
        <ele>535.86000000000001</ele>
        <time>2020-09-27T07:12:48Z</time>
      </trkpt>
      <trkpt lat="45.886054588481784" lon="8.420783970504999">
        <ele>538.29999999999995</ele>
        <time>2020-09-27T07:13:04Z</time>
      </trkpt>
      <trkpt lat="45.885973535478115" lon="8.420793022960424">
        <ele>540.16999999999996</ele>
        <time>2020-09-27T07:13:16Z</time>
      </trkpt>
      <trkpt lat="45.885858619585633" lon="8.420842560008168">
        <ele>541.82000000000005</ele>
        <time>2020-09-27T07:13:29Z</time>
      </trkpt>
      <trkpt lat="45.885796342045069" lon="8.420950602740049">
        <ele>542.79999999999995</ele>
        <time>2020-09-27T07:13:39Z</time>
      </trkpt>
      <trkpt lat="45.885791480541229" lon="8.421061662957072">
        <ele>543.34000000000003</ele>
        <time>2020-09-27T07:13:51Z</time>
      </trkpt>
      <trkpt lat="45.885819057002664" lon="8.421150427311659">
        <ele>545.77999999999997</ele>
        <time>2020-09-27T07:14:05Z</time>
      </trkpt>
      <trkpt lat="45.885782511904836" lon="8.421191163361073">
        <ele>548.28999999999996</ele>
        <time>2020-09-27T07:14:21Z</time>
      </trkpt>
      <trkpt lat="45.885723251849413" lon="8.421246567741036">
        <ele>551.00999999999999</ele>
        <time>2020-09-27T07:14:38Z</time>
      </trkpt>
      <trkpt lat="45.885646808892488" lon="8.421299373731017">
        <ele>553.25999999999999</ele>
        <time>2020-09-27T07:14:53Z</time>
      </trkpt>
      <trkpt lat="45.885589141398668" lon="8.42138403095305">
        <ele>554.47000000000003</ele>
        <time>2020-09-27T07:15:05Z</time>
      </trkpt>
      <trkpt lat="45.885547315701842" lon="8.421494336798787">
        <ele>555.14999999999998</ele>
        <time>2020-09-27T07:15:14Z</time>
      </trkpt>
      <trkpt lat="45.885471040382981" lon="8.421624591574073">
        <ele>555.11000000000001</ele>
        <time>2020-09-27T07:15:26Z</time>
      </trkpt>
      <trkpt lat="45.885396609082818" lon="8.421716541051865">
        <ele>556.67999999999995</ele>
        <time>2020-09-27T07:15:38Z</time>
      </trkpt>
      <trkpt lat="45.885330308228731" lon="8.421801617369056">
        <ele>558.51999999999998</ele>
        <time>2020-09-27T07:15:51Z</time>
      </trkpt>
      <trkpt lat="45.885272473096848" lon="8.421844365075231">
        <ele>559.22000000000003</ele>
        <time>2020-09-27T07:16:05Z</time>
      </trkpt>
      <trkpt lat="45.885216733440757" lon="8.421883676201105">
        <ele>561.85000000000002</ele>
        <time>2020-09-27T07:16:19Z</time>
      </trkpt>
      <trkpt lat="45.885174907743931" lon="8.422030527144671">
        <ele>563.27999999999997</ele>
        <time>2020-09-27T07:16:32Z</time>
      </trkpt>
      <trkpt lat="45.885159820318222" lon="8.422144521027803">
        <ele>564.5</ele>
        <time>2020-09-27T07:16:43Z</time>
      </trkpt>
      <trkpt lat="45.88514800183475" lon="8.422315344214439">
        <ele>566.67999999999995</ele>
        <time>2020-09-27T07:17:00Z</time>
      </trkpt>
      <trkpt lat="45.885158646851778" lon="8.422481892630458">
        <ele>569.13</ele>
        <time>2020-09-27T07:17:16Z</time>
      </trkpt>
      <trkpt lat="45.88513920083642" lon="8.422633772715926">
        <ele>570.11000000000001</ele>
        <time>2020-09-27T07:17:30Z</time>
      </trkpt>
      <trkpt lat="45.885047586634755" lon="8.422694206237793">
        <ele>571.27999999999997</ele>
        <time>2020-09-27T07:17:44Z</time>
      </trkpt>
      <trkpt lat="45.884956894442439" lon="8.422762770205736">
        <ele>571.71000000000004</ele>
        <time>2020-09-27T07:17:56Z</time>
      </trkpt>
      <trkpt lat="45.884865866973996" lon="8.422883553430438">
        <ele>571.94000000000005</ele>
        <time>2020-09-27T07:18:09Z</time>
      </trkpt>
      <trkpt lat="45.884771067649126" lon="8.422949519008398">
        <ele>572.62</ele>
        <time>2020-09-27T07:18:21Z</time>
      </trkpt>
      <trkpt lat="45.884695379063487" lon="8.422946417704225">
        <ele>573.33000000000004</ele>
        <time>2020-09-27T07:18:33Z</time>
      </trkpt>
      <trkpt lat="45.884579541161656" lon="8.422963432967663">
        <ele>574.44000000000005</ele>
        <time>2020-09-27T07:18:47Z</time>
      </trkpt>
      <trkpt lat="45.884491112083197" lon="8.423101482912898">
        <ele>575.39999999999998</ele>
        <time>2020-09-27T07:19:00Z</time>
      </trkpt>
      <trkpt lat="45.884478790685534" lon="8.423161916434765">
        <ele>575.59000000000003</ele>
        <time>2020-09-27T07:19:13Z</time>
      </trkpt>
      <trkpt lat="45.884422212839127" lon="8.423225451260805">
        <ele>576.32000000000005</ele>
        <time>2020-09-27T07:19:25Z</time>
      </trkpt>
      <trkpt lat="45.884408131241798" lon="8.423230815678835">
        <ele>575.72000000000003</ele>
        <time>2020-09-27T07:19:38Z</time>
      </trkpt>
      <trkpt lat="45.884420955553651" lon="8.423244981095195">
        <ele>575.97000000000003</ele>
        <time>2020-09-27T07:19:53Z</time>
      </trkpt>
      <trkpt lat="45.884410310536623" lon="8.423233916983008">
        <ele>576.49000000000001</ele>
        <time>2020-09-27T07:20:06Z</time>
      </trkpt>
      <trkpt lat="45.884329928085208" lon="8.423234755173326">
        <ele>576.85000000000002</ele>
        <time>2020-09-27T07:20:18Z</time>
      </trkpt>
      <trkpt lat="45.88430218398571" lon="8.423220589756966">
        <ele>576.85000000000002</ele>
        <time>2020-09-27T07:20:21Z</time>
      </trkpt>
      <trkpt lat="45.884174276143312" lon="8.423217991366983">
        <ele>577.24000000000001</ele>
        <time>2020-09-27T07:20:36Z</time>
      </trkpt>
      <trkpt lat="45.884144101291895" lon="8.423197790980339">
        <ele>576.99000000000001</ele>
        <time>2020-09-27T07:20:43Z</time>
      </trkpt>
      <trkpt lat="45.884080985561013" lon="8.423155546188355">
        <ele>577.33000000000004</ele>
        <time>2020-09-27T07:20:50Z</time>
      </trkpt>
      <trkpt lat="45.884030694141984" lon="8.423184044659138">
        <ele>577.63999999999999</ele>
        <time>2020-09-27T07:21:01Z</time>
      </trkpt>
      <trkpt lat="45.884005799889565" lon="8.423175159841776">
        <ele>577.75</ele>
        <time>2020-09-27T07:21:15Z</time>
      </trkpt>
      <trkpt lat="45.884005380794406" lon="8.423151355236769">
        <ele>577.72000000000003</ele>
        <time>2020-09-27T07:21:30Z</time>
      </trkpt>
      <trkpt lat="45.883953412994742" lon="8.423100477084518">
        <ele>577.70000000000005</ele>
        <time>2020-09-27T07:21:41Z</time>
      </trkpt>
      <trkpt lat="45.883912676945329" lon="8.423075247555971">
        <ele>577.37</ele>
        <time>2020-09-27T07:21:57Z</time>
      </trkpt>
      <trkpt lat="45.883873449638486" lon="8.423009952530265">
        <ele>577.51999999999998</ele>
        <time>2020-09-27T07:22:07Z</time>
      </trkpt>
      <trkpt lat="45.883869510143995" lon="8.422966115176678">
        <ele>577.40999999999997</ele>
        <time>2020-09-27T07:22:16Z</time>
      </trkpt>
      <trkpt lat="45.883834976702929" lon="8.422829573974013">
        <ele>576.80999999999995</ele>
        <time>2020-09-27T07:22:28Z</time>
      </trkpt>
      <trkpt lat="45.883769514039159" lon="8.422622121870518">
        <ele>576.33000000000004</ele>
        <time>2020-09-27T07:22:43Z</time>
      </trkpt>
      <trkpt lat="45.883741769939661" lon="8.42248541302979">
        <ele>577.37</ele>
        <time>2020-09-27T07:22:55Z</time>
      </trkpt>
      <trkpt lat="45.883738081902266" lon="8.422366892918944">
        <ele>578.28999999999996</ele>
        <time>2020-09-27T07:23:07Z</time>
      </trkpt>
      <trkpt lat="45.883742943406105" lon="8.42235348187387">
        <ele>578.13999999999999</ele>
        <time>2020-09-27T07:23:19Z</time>
      </trkpt>
      <trkpt lat="45.883687455207109" lon="8.422357086092234">
        <ele>578.22000000000003</ele>
        <time>2020-09-27T07:23:36Z</time>
      </trkpt>
      <trkpt lat="45.883685108274221" lon="8.422357505187392">
        <ele>578.25999999999999</ele>
        <time>2020-09-27T07:23:37Z</time>
      </trkpt>
      <trkpt lat="45.883641773834825" lon="8.422376113012433">
        <ele>578.04999999999995</ele>
        <time>2020-09-27T07:23:49Z</time>
      </trkpt>
      <trkpt lat="45.883655520156026" lon="8.422384494915605">
        <ele>578.13999999999999</ele>
        <time>2020-09-27T07:24:06Z</time>
      </trkpt>
      <trkpt lat="45.883618304505944" lon="8.422466386109591">
        <ele>578.03999999999996</ele>
        <time>2020-09-27T07:24:16Z</time>
      </trkpt>
      <trkpt lat="45.883629955351353" lon="8.42250544577837">
        <ele>577.86000000000001</ele>
        <time>2020-09-27T07:24:25Z</time>
      </trkpt>
      <trkpt lat="45.883639845997095" lon="8.422548193484545">
        <ele>577.27999999999997</ele>
        <time>2020-09-27T07:24:33Z</time>
      </trkpt>
      <trkpt lat="45.883662225678563" lon="8.422631174325943">
        <ele>577.65999999999997</ele>
        <time>2020-09-27T07:24:40Z</time>
      </trkpt>
      <trkpt lat="45.883692987263203" lon="8.422686997801065">
        <ele>577.15999999999997</ele>
        <time>2020-09-27T07:24:45Z</time>
      </trkpt>
      <trkpt lat="45.8837622217834" lon="8.422769894823432">
        <ele>576.88999999999999</ele>
        <time>2020-09-27T07:24:58Z</time>
      </trkpt>
      <trkpt lat="45.883826343342662" lon="8.422880535945296">
        <ele>576.94000000000005</ele>
        <time>2020-09-27T07:25:11Z</time>
      </trkpt>
      <trkpt lat="45.883865738287568" lon="8.422955051064491">
        <ele>577.24000000000001</ele>
        <time>2020-09-27T07:25:22Z</time>
      </trkpt>
      <trkpt lat="45.883894991129637" lon="8.42303660698235">
        <ele>577.65999999999997</ele>
        <time>2020-09-27T07:25:32Z</time>
      </trkpt>
      <trkpt lat="45.883968835696578" lon="8.423079019412398">
        <ele>577.67999999999995</ele>
        <time>2020-09-27T07:25:43Z</time>
      </trkpt>
      <trkpt lat="45.883976714685559" lon="8.423078935593367">
        <ele>577.64999999999998</ele>
        <time>2020-09-27T07:25:44Z</time>
      </trkpt>
      <trkpt lat="45.884000016376376" lon="8.423144398257136">
        <ele>578.17999999999995</ele>
        <time>2020-09-27T07:25:54Z</time>
      </trkpt>
      <trkpt lat="45.884070424363017" lon="8.423161078244448">
        <ele>577.60000000000002</ele>
        <time>2020-09-27T07:26:09Z</time>
      </trkpt>
      <trkpt lat="45.884153991937637" lon="8.42317289672792">
        <ele>576.95000000000005</ele>
        <time>2020-09-27T07:26:17Z</time>
      </trkpt>
      <trkpt lat="45.884266896173358" lon="8.423203742131591">
        <ele>576.67999999999995</ele>
        <time>2020-09-27T07:26:29Z</time>
      </trkpt>
      <trkpt lat="45.884301764890552" lon="8.423227211460471">
        <ele>576.38999999999999</ele>
        <time>2020-09-27T07:26:40Z</time>
      </trkpt>
      <trkpt lat="45.884335460141301" lon="8.423230815678835">
        <ele>575.92999999999995</ele>
        <time>2020-09-27T07:26:57Z</time>
      </trkpt>
      <trkpt lat="45.88438767939806" lon="8.423323519527912">
        <ele>578.22000000000003</ele>
        <time>2020-09-27T07:27:10Z</time>
      </trkpt>
      <trkpt lat="45.884441155940294" lon="8.423415049910545">
        <ele>580.88</ele>
        <time>2020-09-27T07:27:23Z</time>
      </trkpt>
      <trkpt lat="45.884525896981359" lon="8.423444973304868">
        <ele>583.05999999999995</ele>
        <time>2020-09-27T07:27:36Z</time>
      </trkpt>
      <trkpt lat="45.88461684063077" lon="8.423458384349942">
        <ele>584.70000000000005</ele>
        <time>2020-09-27T07:27:50Z</time>
      </trkpt>
      <trkpt lat="45.884620863944292" lon="8.423461318016052">
        <ele>584.76999999999998</ele>
        <time>2020-09-27T07:27:51Z</time>
      </trkpt>
      <trkpt lat="45.884684817865491" lon="8.423496522009373">
        <ele>586.57000000000005</ele>
        <time>2020-09-27T07:28:02Z</time>
      </trkpt>
      <trkpt lat="45.884734354913235" lon="8.423563074320555">
        <ele>588.92999999999995</ele>
        <time>2020-09-27T07:28:19Z</time>
      </trkpt>
      <trkpt lat="45.884780790656805" lon="8.423641445115209">
        <ele>591.00999999999999</ele>
        <time>2020-09-27T07:28:37Z</time>
      </trkpt>
      <trkpt lat="45.884826304391026" lon="8.423706321045756">
        <ele>593.32000000000005</ele>
        <time>2020-09-27T07:28:53Z</time>
      </trkpt>
      <trkpt lat="45.884873662143946" lon="8.423734903335571">
        <ele>596.00999999999999</ele>
        <time>2020-09-27T07:29:11Z</time>
      </trkpt>
      <trkpt lat="45.88494080118835" lon="8.423778153955936">
        <ele>598.20000000000005</ele>
        <time>2020-09-27T07:29:25Z</time>
      </trkpt>
      <trkpt lat="45.884995283558965" lon="8.423785613849759">
        <ele>600.16999999999996</ele>
        <time>2020-09-27T07:29:39Z</time>
      </trkpt>
      <trkpt lat="45.88505957275629" lon="8.42379298992455">
        <ele>602.25</ele>
        <time>2020-09-27T07:29:54Z</time>
      </trkpt>
      <trkpt lat="45.885051023215055" lon="8.423831546679139">
        <ele>603.58000000000004</ele>
        <time>2020-09-27T07:30:08Z</time>
      </trkpt>
      <trkpt lat="45.885057812556624" lon="8.423855602741242">
        <ele>604.60000000000002</ele>
        <time>2020-09-27T07:30:27Z</time>
      </trkpt>
      <trkpt lat="45.885074660181999" lon="8.423883263021708">
        <ele>606.69000000000005</ele>
        <time>2020-09-27T07:30:40Z</time>
      </trkpt>
      <trkpt lat="45.885147750377655" lon="8.423901870846748">
        <ele>608.67999999999995</ele>
        <time>2020-09-27T07:30:56Z</time>
      </trkpt>
      <trkpt lat="45.885203070938587" lon="8.423868175595999">
        <ele>610.30999999999995</ele>
        <time>2020-09-27T07:31:10Z</time>
      </trkpt>
      <trkpt lat="45.885198544710875" lon="8.423883514478803">
        <ele>612.37</ele>
        <time>2020-09-27T07:31:25Z</time>
      </trkpt>
      <trkpt lat="45.885196616873145" lon="8.42391025274992">
        <ele>612.91999999999996</ele>
        <time>2020-09-27T07:31:29Z</time>
      </trkpt>
      <trkpt lat="45.885279094800353" lon="8.423906899988651">
        <ele>615.34000000000003</ele>
        <time>2020-09-27T07:31:43Z</time>
      </trkpt>
      <trkpt lat="45.885292924940586" lon="8.423934644088149">
        <ele>616.34000000000003</ele>
        <time>2020-09-27T07:31:52Z</time>
      </trkpt>
      <trkpt lat="45.885323686525226" lon="8.423999771475792">
        <ele>618.34000000000003</ele>
        <time>2020-09-27T07:32:06Z</time>
      </trkpt>
      <trkpt lat="45.885319830849767" lon="8.424073616042733">
        <ele>620.15999999999997</ele>
        <time>2020-09-27T07:32:20Z</time>
      </trkpt>
      <trkpt lat="45.885348245501518" lon="8.424061378464103">
        <ele>621.95000000000005</ele>
        <time>2020-09-27T07:32:30Z</time>
      </trkpt>
      <trkpt lat="45.885361572727561" lon="8.423987701535225">
        <ele>623.96000000000004</ele>
        <time>2020-09-27T07:32:43Z</time>
      </trkpt>
      <trkpt lat="45.885376911610365" lon="8.423910671845079">
        <ele>624.52999999999997</ele>
        <time>2020-09-27T07:32:54Z</time>
      </trkpt>
      <trkpt lat="45.885418402031064" lon="8.423876473680139">
        <ele>626.29999999999995</ele>
        <time>2020-09-27T07:33:07Z</time>
      </trkpt>
      <trkpt lat="45.885440949350595" lon="8.42389952391386">
        <ele>628.47000000000003</ele>
        <time>2020-09-27T07:33:17Z</time>
      </trkpt>
      <trkpt lat="45.885479003190994" lon="8.423906899988651">
        <ele>630.34000000000003</ele>
        <time>2020-09-27T07:33:28Z</time>
      </trkpt>
      <trkpt lat="45.885502556338906" lon="8.423977643251419">
        <ele>632.25</ele>
        <time>2020-09-27T07:33:42Z</time>
      </trkpt>
      <trkpt lat="45.885541364550591" lon="8.424005387350917">
        <ele>633.96000000000004</ele>
        <time>2020-09-27T07:33:55Z</time>
      </trkpt>
      <trkpt lat="45.885588303208351" lon="8.424069089815021">
        <ele>635.71000000000004</ele>
        <time>2020-09-27T07:34:06Z</time>
      </trkpt>
      <trkpt lat="45.885663907974958" lon="8.424146119505167">
        <ele>637.63999999999999</ele>
        <time>2020-09-27T07:34:18Z</time>
      </trkpt>
      <trkpt lat="45.885677570477128" lon="8.424155339598656">
        <ele>637.88999999999999</ele>
        <time>2020-09-27T07:34:20Z</time>
      </trkpt>
      <trkpt lat="45.88575191795826" lon="8.424212085083127">
        <ele>639.14999999999998</ele>
        <time>2020-09-27T07:34:32Z</time>
      </trkpt>
      <trkpt lat="45.885790139436722" lon="8.424286935478449">
        <ele>639.88</ele>
        <time>2020-09-27T07:34:42Z</time>
      </trkpt>
      <trkpt lat="45.885793240740895" lon="8.424371676519513">
        <ele>642.00999999999999</ele>
        <time>2020-09-27T07:34:56Z</time>
      </trkpt>
      <trkpt lat="45.885804472491145" lon="8.424464799463749">
        <ele>643.87</ele>
        <time>2020-09-27T07:35:09Z</time>
      </trkpt>
      <trkpt lat="45.885836407542229" lon="8.424555072560906">
        <ele>645.07000000000005</ele>
        <time>2020-09-27T07:35:19Z</time>
      </trkpt>
      <trkpt lat="45.885882591828704" lon="8.424636963754892">
        <ele>646.38</ele>
        <time>2020-09-27T07:35:29Z</time>
      </trkpt>
      <trkpt lat="45.885925926268101" lon="8.424719944596291">
        <ele>647.41999999999996</ele>
        <time>2020-09-27T07:35:44Z</time>
      </trkpt>
      <trkpt lat="45.885943360626698" lon="8.424727320671082">
        <ele>647.11000000000001</ele>
        <time>2020-09-27T07:35:58Z</time>
      </trkpt>
      <trkpt lat="45.88597571477294" lon="8.424774007871747">
        <ele>648.21000000000004</ele>
        <time>2020-09-27T07:36:13Z</time>
      </trkpt>
      <trkpt lat="45.886014103889465" lon="8.424831675365567">
        <ele>649.99000000000001</ele>
        <time>2020-09-27T07:36:25Z</time>
      </trkpt>
      <trkpt lat="45.886064395308495" lon="8.424923541024327">
        <ele>652.47000000000003</ele>
        <time>2020-09-27T07:36:41Z</time>
      </trkpt>
      <trkpt lat="45.886109238490462" lon="8.425004594027996">
        <ele>654.59000000000003</ele>
        <time>2020-09-27T07:36:54Z</time>
      </trkpt>
      <trkpt lat="45.886134803295135" lon="8.425092101097107">
        <ele>656.82000000000005</ele>
        <time>2020-09-27T07:37:07Z</time>
      </trkpt>
      <trkpt lat="45.886164978146553" lon="8.425164017826319">
        <ele>658.75</ele>
        <time>2020-09-27T07:37:23Z</time>
      </trkpt>
      <trkpt lat="45.886224070563912" lon="8.425180027261376">
        <ele>660.27999999999997</ele>
        <time>2020-09-27T07:37:40Z</time>
      </trkpt>
      <trkpt lat="45.88627964258194" lon="8.425168627873063">
        <ele>662.80999999999995</ele>
        <time>2020-09-27T07:37:56Z</time>
      </trkpt>
      <trkpt lat="45.886324485763907" lon="8.425217997282744">
        <ele>664.42999999999995</ele>
        <time>2020-09-27T07:38:08Z</time>
      </trkpt>
      <trkpt lat="45.886360863223672" lon="8.425281113013625">
        <ele>666.66999999999996</ele>
        <time>2020-09-27T07:38:21Z</time>
      </trkpt>
      <trkpt lat="45.886372430250049" lon="8.425380606204271">
        <ele>668.83000000000004</ele>
        <time>2020-09-27T07:38:38Z</time>
      </trkpt>
      <trkpt lat="45.886412663385272" lon="8.425378259271383">
        <ele>670.63</ele>
        <time>2020-09-27T07:38:52Z</time>
      </trkpt>
      <trkpt lat="45.886460021138191" lon="8.425314892083406">
        <ele>672.05999999999995</ele>
        <time>2020-09-27T07:39:09Z</time>
      </trkpt>
      <trkpt lat="45.886517856270075" lon="8.425308018922806">
        <ele>673.58000000000004</ele>
        <time>2020-09-27T07:39:21Z</time>
      </trkpt>
      <trkpt lat="45.886605698615313" lon="8.425338864326477">
        <ele>675.17999999999995</ele>
        <time>2020-09-27T07:39:35Z</time>
      </trkpt>
      <trkpt lat="45.886694295331836" lon="8.425375493243337">
        <ele>676.80999999999995</ele>
        <time>2020-09-27T07:39:48Z</time>
      </trkpt>
      <trkpt lat="45.886764284223318" lon="8.42540742829442">
        <ele>678.57000000000005</ele>
        <time>2020-09-27T07:40:03Z</time>
      </trkpt>
      <trkpt lat="45.886824550107121" lon="8.425467358902097">
        <ele>680.72000000000003</ele>
        <time>2020-09-27T07:40:20Z</time>
      </trkpt>
      <trkpt lat="45.886847600340843" lon="8.425526283681393">
        <ele>682.88</ele>
        <time>2020-09-27T07:40:35Z</time>
      </trkpt>
      <trkpt lat="45.886899987235665" lon="8.425591075792909">
        <ele>685.25999999999999</ele>
        <time>2020-09-27T07:40:51Z</time>
      </trkpt>
      <trkpt lat="45.886914571747184" lon="8.425647653639317">
        <ele>687.07000000000005</ele>
        <time>2020-09-27T07:41:04Z</time>
      </trkpt>
      <trkpt lat="45.886953631415963" lon="8.425707081332803">
        <ele>689.37</ele>
        <time>2020-09-27T07:41:18Z</time>
      </trkpt>
      <trkpt lat="45.887000653892756" lon="8.425737675279379">
        <ele>691.53999999999996</ele>
        <time>2020-09-27T07:41:31Z</time>
      </trkpt>
      <trkpt lat="45.887004174292088" lon="8.425780003890395">
        <ele>693.33000000000004</ele>
        <time>2020-09-27T07:41:45Z</time>
      </trkpt>
      <trkpt lat="45.886996630579233" lon="8.425841527059674">
        <ele>695.07000000000005</ele>
        <time>2020-09-27T07:41:58Z</time>
      </trkpt>
      <trkpt lat="45.887021021917462" lon="8.425887040793896">
        <ele>696.25999999999999</ele>
        <time>2020-09-27T07:42:12Z</time>
      </trkpt>
      <trkpt lat="45.887035019695759" lon="8.425907073542476">
        <ele>696.83000000000004</ele>
        <time>2020-09-27T07:42:25Z</time>
      </trkpt>
      <trkpt lat="45.887001324445009" lon="8.425962058827281">
        <ele>699.66999999999996</ele>
        <time>2020-09-27T07:42:38Z</time>
      </trkpt>
      <trkpt lat="45.886949105188251" lon="8.426001034677029">
        <ele>702.02999999999997</ele>
        <time>2020-09-27T07:42:54Z</time>
      </trkpt>
      <trkpt lat="45.886980956420302" lon="8.426060462370515">
        <ele>704.35000000000002</ele>
        <time>2020-09-27T07:43:09Z</time>
      </trkpt>
      <trkpt lat="45.887017920613289" lon="8.426113771274686">
        <ele>706.76999999999998</ele>
        <time>2020-09-27T07:43:24Z</time>
      </trkpt>
      <trkpt lat="45.886984225362539" lon="8.426134055480361">
        <ele>708.39999999999998</ele>
        <time>2020-09-27T07:43:37Z</time>
      </trkpt>
      <trkpt lat="45.886957151815295" lon="8.42616087757051">
        <ele>709.60000000000002</ele>
        <time>2020-09-27T07:43:48Z</time>
      </trkpt>
      <trkpt lat="45.886983135715127" lon="8.426201529800892">
        <ele>711.22000000000003</ele>
        <time>2020-09-27T07:44:02Z</time>
      </trkpt>
      <trkpt lat="45.887005850672722" lon="8.426242265850306">
        <ele>712.41999999999996</ele>
        <time>2020-09-27T07:44:15Z</time>
      </trkpt>
      <trkpt lat="45.887008532881737" lon="8.426278391852975">
        <ele>713.98000000000002</ele>
        <time>2020-09-27T07:44:26Z</time>
      </trkpt>
      <trkpt lat="45.886995540931821" lon="8.426272356882691">
        <ele>715.21000000000004</ele>
        <time>2020-09-27T07:44:38Z</time>
      </trkpt>
      <trkpt lat="45.886966371908784" lon="8.426285851746798">
        <ele>717.13999999999999</ele>
        <time>2020-09-27T07:44:48Z</time>
      </trkpt>
      <trkpt lat="45.886975508183241" lon="8.426342513412237">
        <ele>719.20000000000005</ele>
        <time>2020-09-27T07:45:02Z</time>
      </trkpt>
      <trkpt lat="45.886961342766881" lon="8.426376460120082">
        <ele>720.54999999999995</ele>
        <time>2020-09-27T07:45:14Z</time>
      </trkpt>
      <trkpt lat="45.886985566467047" lon="8.426399426534772">
        <ele>722.39999999999998</ele>
        <time>2020-09-27T07:45:26Z</time>
      </trkpt>
      <trkpt lat="45.88702186010778" lon="8.42642717063427">
        <ele>723.89999999999998</ele>
        <time>2020-09-27T07:45:37Z</time>
      </trkpt>
      <trkpt lat="45.886975256726146" lon="8.426456172019243">
        <ele>725.50999999999999</ele>
        <time>2020-09-27T07:45:48Z</time>
      </trkpt>
      <trkpt lat="45.886951787397265" lon="8.426499590277672">
        <ele>726.87</ele>
        <time>2020-09-27T07:46:00Z</time>
      </trkpt>
      <trkpt lat="45.886963605880737" lon="8.426560694351792">
        <ele>728.88</ele>
        <time>2020-09-27T07:46:11Z</time>
      </trkpt>
      <trkpt lat="45.887005096301436" lon="8.426634958013892">
        <ele>731.51999999999998</ele>
        <time>2020-09-27T07:46:28Z</time>
      </trkpt>
      <trkpt lat="45.887069553136826" lon="8.426723638549447">
        <ele>733.25999999999999</ele>
        <time>2020-09-27T07:46:43Z</time>
      </trkpt>
      <trkpt lat="45.887057399377227" lon="8.426803015172482">
        <ele>735.38</ele>
        <time>2020-09-27T07:46:59Z</time>
      </trkpt>
      <trkpt lat="45.887011801823974" lon="8.426796309649944">
        <ele>736.5</ele>
        <time>2020-09-27T07:47:13Z</time>
      </trkpt>
      <trkpt lat="45.886981710791588" lon="8.426829166710377">
        <ele>738.49000000000001</ele>
        <time>2020-09-27T07:47:26Z</time>
      </trkpt>
      <trkpt lat="45.886934269219637" lon="8.426846684888005">
        <ele>739.75999999999999</ele>
        <time>2020-09-27T07:47:36Z</time>
      </trkpt>
      <trkpt lat="45.886861095204949" lon="8.426896305754781">
        <ele>742.02999999999997</ele>
        <time>2020-09-27T07:47:51Z</time>
      </trkpt>
      <trkpt lat="45.886833686381578" lon="8.426919858902693">
        <ele>743.36000000000001</ele>
        <time>2020-09-27T07:48:04Z</time>
      </trkpt>
      <trkpt lat="45.886843828484416" lon="8.426899742335081">
        <ele>741.98000000000002</ele>
        <time>2020-09-27T07:48:19Z</time>
      </trkpt>
      <trkpt lat="45.886821616441011" lon="8.426870992407203">
        <ele>741.80999999999995</ele>
        <time>2020-09-27T07:48:51Z</time>
      </trkpt>
      <trkpt lat="45.886823125183582" lon="8.426887672394514">
        <ele>741.89999999999998</ele>
        <time>2020-09-27T07:49:06Z</time>
      </trkpt>
      <trkpt lat="45.886808289214969" lon="8.426875686272979">
        <ele>742.19000000000005</ele>
        <time>2020-09-27T07:49:28Z</time>
      </trkpt>
      <trkpt lat="45.886805942282081" lon="8.426892450079322">
        <ele>741.71000000000004</ele>
        <time>2020-09-27T07:49:43Z</time>
      </trkpt>
      <trkpt lat="45.886834524571896" lon="8.426895886659622">
        <ele>741.63999999999999</ele>
        <time>2020-09-27T07:50:06Z</time>
      </trkpt>
      <trkpt lat="45.886826897040009" lon="8.426891192793846">
        <ele>742.69000000000005</ele>
        <time>2020-09-27T07:50:30Z</time>
      </trkpt>
      <trkpt lat="45.88680979795754" lon="8.426910303533077">
        <ele>742.42999999999995</ele>
        <time>2020-09-27T07:50:49Z</time>
      </trkpt>
      <trkpt lat="45.886803176254034" lon="8.426927402615547">
        <ele>742.80999999999995</ele>
        <time>2020-09-27T07:51:08Z</time>
      </trkpt>
      <trkpt lat="45.88675263337791" lon="8.42701742425561">
        <ele>745.59000000000003</ele>
        <time>2020-09-27T07:51:21Z</time>
      </trkpt>
      <trkpt lat="45.88675120845437" lon="8.427035864442587">
        <ele>746.05999999999995</ele>
        <time>2020-09-27T07:51:23Z</time>
      </trkpt>
      <trkpt lat="45.886742575094104" lon="8.427054975181818">
        <ele>746.51999999999998</ele>
        <time>2020-09-27T07:51:25Z</time>
      </trkpt>
      <trkpt lat="45.88671256788075" lon="8.427091604098678">
        <ele>748.07000000000005</ele>
        <time>2020-09-27T07:51:31Z</time>
      </trkpt>
      <trkpt lat="45.886651799082756" lon="8.427216745913029">
        <ele>749.09000000000003</ele>
        <time>2020-09-27T07:51:43Z</time>
      </trkpt>
      <trkpt lat="45.886651547625661" lon="8.427294278517366">
        <ele>750.86000000000001</ele>
        <time>2020-09-27T07:51:52Z</time>
      </trkpt>
      <trkpt lat="45.886684320867062" lon="8.427334427833557">
        <ele>751.91999999999996</ele>
        <time>2020-09-27T07:51:57Z</time>
      </trkpt>
      <trkpt lat="45.886711562052369" lon="8.427374493330717">
        <ele>752.73000000000002</ele>
        <time>2020-09-27T07:52:02Z</time>
      </trkpt>
      <trkpt lat="45.886762356385589" lon="8.427457390353084">
        <ele>754.41999999999996</ele>
        <time>2020-09-27T07:52:12Z</time>
      </trkpt>
      <trkpt lat="45.886838883161545" lon="8.427514471113682">
        <ele>756.10000000000002</ele>
        <time>2020-09-27T07:52:23Z</time>
      </trkpt>
      <trkpt lat="45.886888671666384" lon="8.427619244903326">
        <ele>759.32000000000005</ele>
        <time>2020-09-27T07:52:38Z</time>
      </trkpt>
      <trkpt lat="45.88695396669209" lon="8.427712619304657">
        <ele>761.25</ele>
        <time>2020-09-27T07:52:51Z</time>
      </trkpt>
      <trkpt lat="45.887020602822304" lon="8.427783865481615">
        <ele>763.80999999999995</ele>
        <time>2020-09-27T07:53:04Z</time>
      </trkpt>
      <trkpt lat="45.887078857049346" lon="8.427850250154734">
        <ele>766.70000000000005</ele>
        <time>2020-09-27T07:53:18Z</time>
      </trkpt>
      <trkpt lat="45.887084640562534" lon="8.427871624007821">
        <ele>767</ele>
        <time>2020-09-27T07:53:20Z</time>
      </trkpt>
      <trkpt lat="45.887139793485403" lon="8.427944043651223">
        <ele>769.44000000000005</ele>
        <time>2020-09-27T07:53:32Z</time>
      </trkpt>
      <trkpt lat="45.887135518714786" lon="8.42796633951366">
        <ele>769.47000000000003</ele>
        <time>2020-09-27T07:53:43Z</time>
      </trkpt>
      <trkpt lat="45.887139709666371" lon="8.428037418052554">
        <ele>770.11000000000001</ele>
        <time>2020-09-27T07:53:53Z</time>
      </trkpt>
      <trkpt lat="45.887141134589911" lon="8.428175048902631">
        <ele>771.89999999999998</ele>
        <time>2020-09-27T07:54:05Z</time>
      </trkpt>
      <trkpt lat="45.887141386047006" lon="8.428286025300622">
        <ele>774.04999999999995</ele>
        <time>2020-09-27T07:54:19Z</time>
      </trkpt>
      <trkpt lat="45.887111881747842" lon="8.428357942029834">
        <ele>776.58000000000004</ele>
        <time>2020-09-27T07:54:31Z</time>
      </trkpt>
      <trkpt lat="45.887076845392585" lon="8.428396331146359">
        <ele>779.27999999999997</ele>
        <time>2020-09-27T07:54:47Z</time>
      </trkpt>
      <trkpt lat="45.88705463334918" lon="8.428397085517645">
        <ele>781.70000000000005</ele>
        <time>2020-09-27T07:55:00Z</time>
      </trkpt>
      <trkpt lat="45.887027140706778" lon="8.428344950079918">
        <ele>784.23000000000002</ele>
        <time>2020-09-27T07:55:14Z</time>
      </trkpt>
      <trkpt lat="45.886982465162873" lon="8.428313434123993">
        <ele>785.85000000000002</ele>
        <time>2020-09-27T07:55:27Z</time>
      </trkpt>
      <trkpt lat="45.886956816539168" lon="8.428332880139351">
        <ele>787.53999999999996</ele>
        <time>2020-09-27T07:55:37Z</time>
      </trkpt>
      <trkpt lat="45.886942148208618" lon="8.428363306447864">
        <ele>788.38999999999999</ele>
        <time>2020-09-27T07:55:41Z</time>
      </trkpt>
      <trkpt lat="45.886881127953529" lon="8.428421057760716">
        <ele>790.60000000000002</ele>
        <time>2020-09-27T07:55:53Z</time>
      </trkpt>
      <trkpt lat="45.886825723573565" lon="8.428451903164387">
        <ele>792.74000000000001</ele>
        <time>2020-09-27T07:56:06Z</time>
      </trkpt>
      <trkpt lat="45.886788843199611" lon="8.428444443270564">
        <ele>794.20000000000005</ele>
        <time>2020-09-27T07:56:20Z</time>
      </trkpt>
      <trkpt lat="45.886751627549529" lon="8.42840219847858">
        <ele>795.98000000000002</ele>
        <time>2020-09-27T07:56:30Z</time>
      </trkpt>
      <trkpt lat="45.886712148785591" lon="8.428417453542352">
        <ele>797.73000000000002</ele>
        <time>2020-09-27T07:56:43Z</time>
      </trkpt>
      <trkpt lat="45.886677615344524" lon="8.42844519764185">
        <ele>799.15999999999997</ele>
        <time>2020-09-27T07:56:56Z</time>
      </trkpt>
      <trkpt lat="45.886663869023323" lon="8.428473612293601">
        <ele>800.70000000000005</ele>
        <time>2020-09-27T07:57:09Z</time>
      </trkpt>
      <trkpt lat="45.886639561504126" lon="8.428518455475569">
        <ele>802.27999999999997</ele>
        <time>2020-09-27T07:57:22Z</time>
      </trkpt>
      <trkpt lat="45.886597484350204" lon="8.428557934239507">
        <ele>804.72000000000003</ele>
        <time>2020-09-27T07:57:38Z</time>
      </trkpt>
      <trkpt lat="45.886580804362893" lon="8.428571345284581">
        <ele>806.02999999999997</ele>
        <time>2020-09-27T07:57:50Z</time>
      </trkpt>
      <trkpt lat="45.886552222073078" lon="8.428612584248185">
        <ele>808.12</ele>
        <time>2020-09-27T07:58:01Z</time>
      </trkpt>
      <trkpt lat="45.886537972837687" lon="8.428713418543339">
        <ele>810.47000000000003</ele>
        <time>2020-09-27T07:58:14Z</time>
      </trkpt>
      <trkpt lat="45.886524729430676" lon="8.428757591173053">
        <ele>810.71000000000004</ele>
        <time>2020-09-27T07:58:24Z</time>
      </trkpt>
      <trkpt lat="45.886477874591947" lon="8.42884685844183">
        <ele>812.88</ele>
        <time>2020-09-27T07:58:36Z</time>
      </trkpt>
      <trkpt lat="45.886411322280765" lon="8.428899329155684">
        <ele>813.11000000000001</ele>
        <time>2020-09-27T07:58:49Z</time>
      </trkpt>
      <trkpt lat="45.886335633695126" lon="8.4289675578475">
        <ele>814.40999999999997</ele>
        <time>2020-09-27T07:59:01Z</time>
      </trkpt>
      <trkpt lat="45.886269584298134" lon="8.429008461534977">
        <ele>815.52999999999997</ele>
        <time>2020-09-27T07:59:13Z</time>
      </trkpt>
      <trkpt lat="45.886196075007319" lon="8.429043916985393">
        <ele>816.83000000000004</ele>
        <time>2020-09-27T07:59:25Z</time>
      </trkpt>
      <trkpt lat="45.886108903214335" lon="8.429062021896243">
        <ele>818.34000000000003</ele>
        <time>2020-09-27T07:59:37Z</time>
      </trkpt>
      <trkpt lat="45.886056516319513" lon="8.429122706875205">
        <ele>820.86000000000001</ele>
        <time>2020-09-27T07:59:52Z</time>
      </trkpt>
      <trkpt lat="45.886024497449398" lon="8.429225301370025">
        <ele>822.48000000000002</ele>
        <time>2020-09-27T08:00:03Z</time>
      </trkpt>
      <trkpt lat="45.88599381968379" lon="8.429347509518266">
        <ele>824.63999999999999</ele>
        <time>2020-09-27T08:00:18Z</time>
      </trkpt>
      <trkpt lat="45.885979570448399" lon="8.429449182003737">
        <ele>826.04999999999995</ele>
        <time>2020-09-27T08:00:27Z</time>
      </trkpt>
      <trkpt lat="45.885977391153574" lon="8.42958178371191">
        <ele>827.10000000000002</ele>
        <time>2020-09-27T08:00:38Z</time>
      </trkpt>
      <trkpt lat="45.885979235172272" lon="8.429638864472508">
        <ele>827.19000000000005</ele>
        <time>2020-09-27T08:00:43Z</time>
      </trkpt>
      <trkpt lat="45.885947048664093" lon="8.42975034378469">
        <ele>829.36000000000001</ele>
        <time>2020-09-27T08:00:58Z</time>
      </trkpt>
      <trkpt lat="45.885943612083793" lon="8.429773058742285">
        <ele>829.11000000000001</ele>
        <time>2020-09-27T08:01:00Z</time>
      </trkpt>
      <trkpt lat="45.885908994823694" lon="8.429882107302547">
        <ele>828.86000000000001</ele>
        <time>2020-09-27T08:01:09Z</time>
      </trkpt>
      <trkpt lat="45.885887872427702" lon="8.429980427026749">
        <ele>829.59000000000003</ele>
        <time>2020-09-27T08:01:19Z</time>
      </trkpt>
      <trkpt lat="45.885868258774281" lon="8.430077657103539">
        <ele>831.17999999999995</ele>
        <time>2020-09-27T08:01:31Z</time>
      </trkpt>
      <trkpt lat="45.885897846892476" lon="8.430170780047774">
        <ele>834</ele>
        <time>2020-09-27T08:01:46Z</time>
      </trkpt>
      <trkpt lat="45.885907402262092" lon="8.430182347074151">
        <ele>834.08000000000004</ele>
        <time>2020-09-27T08:01:48Z</time>
      </trkpt>
      <trkpt lat="45.88594788685441" lon="8.430237164720893">
        <ele>834.37</ele>
        <time>2020-09-27T08:01:59Z</time>
      </trkpt>
      <trkpt lat="45.88598208501935" lon="8.430340178310871">
        <ele>835.77999999999997</ele>
        <time>2020-09-27T08:02:11Z</time>
      </trkpt>
      <trkpt lat="45.886010667309165" lon="8.430436821654439">
        <ele>837.12</ele>
        <time>2020-09-27T08:02:22Z</time>
      </trkpt>
      <trkpt lat="45.88602215051651" lon="8.430524747818708">
        <ele>838.67999999999995</ele>
        <time>2020-09-27T08:02:32Z</time>
      </trkpt>
      <trkpt lat="45.886020222678781" lon="8.430629018694162">
        <ele>839.26999999999998</ele>
        <time>2020-09-27T08:02:42Z</time>
      </trkpt>
      <trkpt lat="45.885997507721186" lon="8.430743766948581">
        <ele>840.47000000000003</ele>
        <time>2020-09-27T08:02:53Z</time>
      </trkpt>
      <trkpt lat="45.88596842251718" lon="8.430851642042399">
        <ele>840.32000000000005</ele>
        <time>2020-09-27T08:03:05Z</time>
      </trkpt>
      <trkpt lat="45.885938080027699" lon="8.430998409166932">
        <ele>841.75999999999999</ele>
        <time>2020-09-27T08:03:19Z</time>
      </trkpt>
      <trkpt lat="45.885962219908834" lon="8.431079965084791">
        <ele>843.74000000000001</ele>
        <time>2020-09-27T08:03:31Z</time>
      </trkpt>
      <trkpt lat="45.886004297062755" lon="8.431168310344219">
        <ele>845.92999999999995</ele>
        <time>2020-09-27T08:03:44Z</time>
      </trkpt>
      <trkpt lat="45.886039165779948" lon="8.431278029456735">
        <ele>847.88999999999999</ele>
        <time>2020-09-27T08:03:58Z</time>
      </trkpt>
      <trkpt lat="45.886096497997642" lon="8.431356232613325">
        <ele>850.07000000000005</ele>
        <time>2020-09-27T08:04:13Z</time>
      </trkpt>
      <trkpt lat="45.88616531342268" lon="8.431463520973921">
        <ele>852.5</ele>
        <time>2020-09-27T08:04:30Z</time>
      </trkpt>
      <trkpt lat="45.886210491880774" lon="8.43151624314487">
        <ele>854.40999999999997</ele>
        <time>2020-09-27T08:04:41Z</time>
      </trkpt>
      <trkpt lat="45.8862229809165" lon="8.431596457958221">
        <ele>856.80999999999995</ele>
        <time>2020-09-27T08:04:57Z</time>
      </trkpt>
      <trkpt lat="45.886188866570592" lon="8.431611713021994">
        <ele>858.42999999999995</ele>
        <time>2020-09-27T08:05:09Z</time>
      </trkpt>
      <trkpt lat="45.886121727526188" lon="8.431608779355884">
        <ele>860.41999999999996</ele>
        <time>2020-09-27T08:05:23Z</time>
      </trkpt>
      <trkpt lat="45.886061796918511" lon="8.431610120460391">
        <ele>862.29999999999995</ele>
        <time>2020-09-27T08:05:37Z</time>
      </trkpt>
      <trkpt lat="45.88599038310349" lon="8.431605091318488">
        <ele>864.17999999999995</ele>
        <time>2020-09-27T08:05:50Z</time>
      </trkpt>
      <trkpt lat="45.885945791378617" lon="8.431591093540192">
        <ele>865.01999999999998</ele>
        <time>2020-09-27T08:06:03Z</time>
      </trkpt>
      <trkpt lat="45.88590539060533" lon="8.431584220379591">
        <ele>867.15999999999997</ele>
        <time>2020-09-27T08:06:18Z</time>
      </trkpt>
      <trkpt lat="45.885871443897486" lon="8.431580113247037">
        <ele>868.49000000000001</ele>
        <time>2020-09-27T08:06:30Z</time>
      </trkpt>
      <trkpt lat="45.885827606543899" lon="8.431607438251376">
        <ele>869.99000000000001</ele>
        <time>2020-09-27T08:06:48Z</time>
      </trkpt>
      <trkpt lat="45.885781673714519" lon="8.431638283655047">
        <ele>871.92999999999995</ele>
        <time>2020-09-27T08:07:02Z</time>
      </trkpt>
      <trkpt lat="45.88580958545208" lon="8.431711373850703">
        <ele>874.70000000000005</ele>
        <time>2020-09-27T08:07:18Z</time>
      </trkpt>
      <trkpt lat="45.885857613757253" lon="8.431788487359881">
        <ele>876.88999999999999</ele>
        <time>2020-09-27T08:07:31Z</time>
      </trkpt>
      <trkpt lat="45.885897427797318" lon="8.431842802092433">
        <ele>878.25999999999999</ele>
        <time>2020-09-27T08:07:43Z</time>
      </trkpt>
      <trkpt lat="45.885923495516181" lon="8.431893093511462">
        <ele>879.36000000000001</ele>
        <time>2020-09-27T08:07:59Z</time>
      </trkpt>
      <trkpt lat="45.885928189381957" lon="8.431929219514132">
        <ele>880.85000000000002</ele>
        <time>2020-09-27T08:08:11Z</time>
      </trkpt>
      <trkpt lat="45.885877646505833" lon="8.431948833167553">
        <ele>883.12</ele>
        <time>2020-09-27T08:08:26Z</time>
      </trkpt>
      <trkpt lat="45.885845459997654" lon="8.431985881179571">
        <ele>884.63</ele>
        <time>2020-09-27T08:08:39Z</time>
      </trkpt>
      <trkpt lat="45.885857194662094" lon="8.432011781260371">
        <ele>886.38999999999999</ele>
        <time>2020-09-27T08:08:51Z</time>
      </trkpt>
      <trkpt lat="45.885859793052077" lon="8.432026030495763">
        <ele>886.76999999999998</ele>
        <time>2020-09-27T08:09:03Z</time>
      </trkpt>
      <trkpt lat="45.885898601263762" lon="8.432075064629316">
        <ele>889.61000000000001</ele>
        <time>2020-09-27T08:09:17Z</time>
      </trkpt>
      <trkpt lat="45.885857865214348" lon="8.432109262794256">
        <ele>891.17999999999995</ele>
        <time>2020-09-27T08:09:30Z</time>
      </trkpt>
      <trkpt lat="45.885830707848072" lon="8.432116890326142">
        <ele>891.90999999999997</ele>
        <time>2020-09-27T08:09:45Z</time>
      </trkpt>
      <trkpt lat="45.88581595569849" lon="8.432129295542836">
        <ele>891.87</ele>
        <time>2020-09-27T08:10:08Z</time>
      </trkpt>
      <trkpt lat="45.885817045345902" lon="8.432126613333821">
        <ele>891.75999999999999</ele>
        <time>2020-09-27T08:10:26Z</time>
      </trkpt>
      <trkpt lat="45.885771196335554" lon="8.432156536728144">
        <ele>893.86000000000001</ele>
        <time>2020-09-27T08:10:42Z</time>
      </trkpt>
      <trkpt lat="45.885704644024372" lon="8.432166259735823">
        <ele>896.79999999999995</ele>
        <time>2020-09-27T08:10:57Z</time>
      </trkpt>
      <trkpt lat="45.885642534121871" lon="8.432146394625306">
        <ele>899.02999999999997</ele>
        <time>2020-09-27T08:11:13Z</time>
      </trkpt>
      <trkpt lat="45.885582938790321" lon="8.432142874225974">
        <ele>902.02999999999997</ele>
        <time>2020-09-27T08:11:28Z</time>
      </trkpt>
      <trkpt lat="45.885502053424716" lon="8.432121835649014">
        <ele>904.52999999999997</ele>
        <time>2020-09-27T08:11:44Z</time>
      </trkpt>
      <trkpt lat="45.885468609631062" lon="8.432095684111118">
        <ele>905.33000000000004</ele>
        <time>2020-09-27T08:11:59Z</time>
      </trkpt>
      <trkpt lat="45.885408511385322" lon="8.432064251974225">
        <ele>907.51999999999998</ele>
        <time>2020-09-27T08:12:16Z</time>
      </trkpt>
      <trkpt lat="45.885377749800682" lon="8.432022426277399">
        <ele>909.27999999999997</ele>
        <time>2020-09-27T08:12:29Z</time>
      </trkpt>
      <trkpt lat="45.885352771729231" lon="8.432032484561205">
        <ele>910.26999999999998</ele>
        <time>2020-09-27T08:12:41Z</time>
      </trkpt>
      <trkpt lat="45.885335421189666" lon="8.432053606957197">
        <ele>910.33000000000004</ele>
        <time>2020-09-27T08:12:55Z</time>
      </trkpt>
      <trkpt lat="45.885349838063121" lon="8.43205226585269">
        <ele>910.65999999999997</ele>
        <time>2020-09-27T08:13:11Z</time>
      </trkpt>
      <trkpt lat="45.88537079282105" lon="8.432111693546176">
        <ele>912.08000000000004</ele>
        <time>2020-09-27T08:13:25Z</time>
      </trkpt>
      <trkpt lat="45.885401973500848" lon="8.43217883259058">
        <ele>914.15999999999997</ele>
        <time>2020-09-27T08:13:38Z</time>
      </trkpt>
      <trkpt lat="45.885410690680146" lon="8.43224429525435">
        <ele>916.52999999999997</ele>
        <time>2020-09-27T08:13:51Z</time>
      </trkpt>
      <trkpt lat="45.885377079248428" lon="8.432230213657022">
        <ele>918.41999999999996</ele>
        <time>2020-09-27T08:14:02Z</time>
      </trkpt>
      <trkpt lat="45.885314969345927" lon="8.432192411273718">
        <ele>920.45000000000005</ele>
        <time>2020-09-27T08:14:16Z</time>
      </trkpt>
      <trkpt lat="45.885280016809702" lon="8.43212703242898">
        <ele>922.54999999999995</ele>
        <time>2020-09-27T08:14:30Z</time>
      </trkpt>
      <trkpt lat="45.885232910513878" lon="8.43207523226738">
        <ele>924.46000000000004</ele>
        <time>2020-09-27T08:14:45Z</time>
      </trkpt>
      <trkpt lat="45.885220337659121" lon="8.432062407955527">
        <ele>924.74000000000001</ele>
        <time>2020-09-27T08:14:57Z</time>
      </trkpt>
      <trkpt lat="45.885217739269137" lon="8.432056372985244">
        <ele>924.94000000000005</ele>
        <time>2020-09-27T08:15:13Z</time>
      </trkpt>
      <trkpt lat="45.885229473933578" lon="8.432035753503442">
        <ele>924.88999999999999</ele>
        <time>2020-09-27T08:15:27Z</time>
      </trkpt>
      <trkpt lat="45.885181445628405" lon="8.432027623057365">
        <ele>926.24000000000001</ele>
        <time>2020-09-27T08:15:44Z</time>
      </trkpt>
      <trkpt lat="45.885172225534916" lon="8.432098114863038">
        <ele>927.96000000000004</ele>
        <time>2020-09-27T08:15:56Z</time>
      </trkpt>
      <trkpt lat="45.885187480598688" lon="8.432165337726474">
        <ele>930.33000000000004</ele>
        <time>2020-09-27T08:16:09Z</time>
      </trkpt>
      <trkpt lat="45.885200053453445" lon="8.432249072939158">
        <ele>932.40999999999997</ele>
        <time>2020-09-27T08:16:21Z</time>
      </trkpt>
      <trkpt lat="45.885208183899522" lon="8.43235719949007">
        <ele>934.49000000000001</ele>
        <time>2020-09-27T08:16:34Z</time>
      </trkpt>
      <trkpt lat="45.885169124230742" lon="8.432379495352507">
        <ele>936.64999999999998</ele>
        <time>2020-09-27T08:16:46Z</time>
      </trkpt>
      <trkpt lat="45.885179098695517" lon="8.432343453168869">
        <ele>937.26999999999998</ele>
        <time>2020-09-27T08:17:01Z</time>
      </trkpt>
      <trkpt lat="45.885181361809373" lon="8.43233616091311">
        <ele>937.50999999999999</ele>
        <time>2020-09-27T08:17:20Z</time>
      </trkpt>
      <trkpt lat="45.885170297697186" lon="8.432323168963194">
        <ele>937.71000000000004</ele>
        <time>2020-09-27T08:17:39Z</time>
      </trkpt>
      <trkpt lat="45.885098380967975" lon="8.432283690199256">
        <ele>939.78999999999996</ele>
        <time>2020-09-27T08:17:54Z</time>
      </trkpt>
      <trkpt lat="45.885055297985673" lon="8.432350493967533">
        <ele>942.05999999999995</ele>
        <time>2020-09-27T08:18:07Z</time>
      </trkpt>
      <trkpt lat="45.885036690160632" lon="8.432331802323461">
        <ele>944.03999999999996</ele>
        <time>2020-09-27T08:18:18Z</time>
      </trkpt>
      <trkpt lat="45.885008443146944" lon="8.432236835360527">
        <ele>946.12</ele>
        <time>2020-09-27T08:18:33Z</time>
      </trkpt>
      <trkpt lat="45.884964186698198" lon="8.432177407667041">
        <ele>948.41999999999996</ele>
        <time>2020-09-27T08:18:49Z</time>
      </trkpt>
      <trkpt lat="45.884924875572324" lon="8.432140862569213">
        <ele>950.12</ele>
        <time>2020-09-27T08:19:01Z</time>
      </trkpt>
      <trkpt lat="45.884913811460137" lon="8.432139772921801">
        <ele>950.67999999999995</ele>
        <time>2020-09-27T08:19:15Z</time>
      </trkpt>
      <trkpt lat="45.884904004633427" lon="8.43212996609509">
        <ele>951.10000000000002</ele>
        <time>2020-09-27T08:19:32Z</time>
      </trkpt>
      <trkpt lat="45.884893443435431" lon="8.432109514251351">
        <ele>951.88999999999999</ele>
        <time>2020-09-27T08:19:46Z</time>
      </trkpt>
      <trkpt lat="45.884888833388686" lon="8.432109765708447">
        <ele>953</ele>
        <time>2020-09-27T08:19:57Z</time>
      </trkpt>
      <trkpt lat="45.884882714599371" lon="8.432175479829311">
        <ele>955.45000000000005</ele>
        <time>2020-09-27T08:20:11Z</time>
      </trkpt>
      <trkpt lat="45.884878691285849" lon="8.43225116841495">
        <ele>957.38</ele>
        <time>2020-09-27T08:20:25Z</time>
      </trkpt>
      <trkpt lat="45.884877098724246" lon="8.432281594723463">
        <ele>958.28999999999996</ele>
        <time>2020-09-27T08:20:39Z</time>
      </trkpt>
      <trkpt lat="45.884864693507552" lon="8.432314367964864">
        <ele>959.29999999999995</ele>
        <time>2020-09-27T08:20:53Z</time>
      </trkpt>
      <trkpt lat="45.884870141744614" lon="8.432339178398252">
        <ele>960.19000000000005</ele>
        <time>2020-09-27T08:21:07Z</time>
      </trkpt>
      <trkpt lat="45.884884893894196" lon="8.432396342977881">
        <ele>961.13</ele>
        <time>2020-09-27T08:21:18Z</time>
      </trkpt>
      <trkpt lat="45.884877936914563" lon="8.432452753186226">
        <ele>963.30999999999995</ele>
        <time>2020-09-27T08:21:30Z</time>
      </trkpt>
      <trkpt lat="45.884873410686851" lon="8.432548390701413">
        <ele>965.13999999999999</ele>
        <time>2020-09-27T08:21:43Z</time>
      </trkpt>
      <trkpt lat="45.88484063744545" lon="8.432593736797571">
        <ele>967.04999999999995</ele>
        <time>2020-09-27T08:21:56Z</time>
      </trkpt>
      <trkpt lat="45.884826304391026" lon="8.432597257196903">
        <ele>967.75999999999999</ele>
        <time>2020-09-27T08:22:10Z</time>
      </trkpt>
      <trkpt lat="45.884802751243114" lon="8.432641010731459">
        <ele>969.12</ele>
        <time>2020-09-27T08:22:24Z</time>
      </trkpt>
      <trkpt lat="45.884812138974667" lon="8.432715274393559">
        <ele>971.86000000000001</ele>
        <time>2020-09-27T08:22:37Z</time>
      </trkpt>
      <trkpt lat="45.884814905002713" lon="8.432775707915425">
        <ele>973.33000000000004</ele>
        <time>2020-09-27T08:22:49Z</time>
      </trkpt>
      <trkpt lat="45.884817000478506" lon="8.432778641581535">
        <ele>974.14999999999998</ele>
        <time>2020-09-27T08:23:02Z</time>
      </trkpt>
      <trkpt lat="45.884813144803047" lon="8.432789202779532">
        <ele>974.03999999999996</ele>
        <time>2020-09-27T08:23:21Z</time>
      </trkpt>
      <trkpt lat="45.884803170338273" lon="8.43284678645432">
        <ele>975.66999999999996</ele>
        <time>2020-09-27T08:23:37Z</time>
      </trkpt>
      <trkpt lat="45.8847741689533" lon="8.43286145478487">
        <ele>976.94000000000005</ele>
        <time>2020-09-27T08:23:47Z</time>
      </trkpt>
      <trkpt lat="45.884727481752634" lon="8.432863131165505">
        <ele>979.23000000000002</ele>
        <time>2020-09-27T08:24:01Z</time>
      </trkpt>
      <trkpt lat="45.88469697162509" lon="8.432847708463669">
        <ele>981.02999999999997</ele>
        <time>2020-09-27T08:24:13Z</time>
      </trkpt>
      <trkpt lat="45.884687583893538" lon="8.432812169194222">
        <ele>981.75999999999999</ele>
        <time>2020-09-27T08:24:29Z</time>
      </trkpt>
      <trkpt lat="45.884694373235106" lon="8.432760033756495">
        <ele>982.73000000000002</ele>
        <time>2020-09-27T08:24:45Z</time>
      </trkpt>
      <trkpt lat="45.884695127606392" lon="8.432780653238297">
        <ele>982.80999999999995</ele>
        <time>2020-09-27T08:24:59Z</time>
      </trkpt>
      <trkpt lat="45.884637543931603" lon="8.432748634368181">
        <ele>984.75999999999999</ele>
        <time>2020-09-27T08:25:14Z</time>
      </trkpt>
      <trkpt lat="45.884614158421755" lon="8.432718962430954">
        <ele>986.36000000000001</ele>
        <time>2020-09-27T08:25:25Z</time>
      </trkpt>
      <trkpt lat="45.884592616930604" lon="8.432707311585546">
        <ele>988.01999999999998</ele>
        <time>2020-09-27T08:25:37Z</time>
      </trkpt>
      <trkpt lat="45.884576104581356" lon="8.432737402617931">
        <ele>989.14999999999998</ele>
        <time>2020-09-27T08:25:47Z</time>
      </trkpt>
      <trkpt lat="45.884570656344295" lon="8.432825999334455">
        <ele>991.11000000000001</ele>
        <time>2020-09-27T08:26:02Z</time>
      </trkpt>
      <trkpt lat="45.884564453735948" lon="8.432876542210579">
        <ele>992.36000000000001</ele>
        <time>2020-09-27T08:26:13Z</time>
      </trkpt>
      <trkpt lat="45.884587420150638" lon="8.432955583557487">
        <ele>994.25</ele>
        <time>2020-09-27T08:26:25Z</time>
      </trkpt>
      <trkpt lat="45.884553305804729" lon="8.432965306565166">
        <ele>994.42999999999995</ele>
        <time>2020-09-27T08:26:47Z</time>
      </trkpt>
      <trkpt lat="45.884532770141959" lon="8.433015095070005">
        <ele>995.13</ele>
        <time>2020-09-27T08:27:00Z</time>
      </trkpt>
      <trkpt lat="45.884481221437454" lon="8.433113833889365">
        <ele>995.70000000000005</ele>
        <time>2020-09-27T08:27:11Z</time>
      </trkpt>
      <trkpt lat="45.884424895048141" lon="8.433247525244951">
        <ele>996.23000000000002</ele>
        <time>2020-09-27T08:27:27Z</time>
      </trkpt>
      <trkpt lat="45.884432103484869" lon="8.433323130011559">
        <ele>995.25</ele>
        <time>2020-09-27T08:27:34Z</time>
      </trkpt>
      <trkpt lat="45.884420368820429" lon="8.433368727564812">
        <ele>995.13</ele>
        <time>2020-09-27T08:27:38Z</time>
      </trkpt>
      <trkpt lat="45.884415088221431" lon="8.433440728113055">
        <ele>995.34000000000003</ele>
        <time>2020-09-27T08:27:48Z</time>
      </trkpt>
      <trkpt lat="45.884420368820429" lon="8.433523708954454">
        <ele>995.41999999999996</ele>
        <time>2020-09-27T08:27:56Z</time>
      </trkpt>
      <trkpt lat="45.884453980252147" lon="8.433631667867303">
        <ele>995.39999999999998</ele>
        <time>2020-09-27T08:28:09Z</time>
      </trkpt>
      <trkpt lat="45.884452806785703" lon="8.433704171329737">
        <ele>996.10000000000002</ele>
        <time>2020-09-27T08:28:20Z</time>
      </trkpt>
      <trkpt lat="45.884450040757656" lon="8.433736441656947">
        <ele>995.88999999999999</ele>
        <time>2020-09-27T08:28:23Z</time>
      </trkpt>
      <trkpt lat="45.884449454024434" lon="8.43376200646162">
        <ele>995.71000000000004</ele>
        <time>2020-09-27T08:28:25Z</time>
      </trkpt>
      <trkpt lat="45.884422464296222" lon="8.43392176553607">
        <ele>996.90999999999997</ele>
        <time>2020-09-27T08:28:39Z</time>
      </trkpt>
      <trkpt lat="45.884421793743968" lon="8.433946575969458">
        <ele>997.04999999999995</ele>
        <time>2020-09-27T08:28:42Z</time>
      </trkpt>
      <trkpt lat="45.884394217282534" lon="8.434046488255262">
        <ele>998.79999999999995</ele>
        <time>2020-09-27T08:28:53Z</time>
      </trkpt>
      <trkpt lat="45.884386925026774" lon="8.43413189984858">
        <ele>1000.61</ele>
        <time>2020-09-27T08:29:05Z</time>
      </trkpt>
      <trkpt lat="45.884385164827108" lon="8.434231644496322">
        <ele>1002.9299999999999</ele>
        <time>2020-09-27T08:29:21Z</time>
      </trkpt>
      <trkpt lat="45.884360102936625" lon="8.434253521263599">
        <ele>1003.11</ele>
        <time>2020-09-27T08:29:39Z</time>
      </trkpt>
      <trkpt lat="45.884323390200734" lon="8.434286043047905">
        <ele>1004.73</ele>
        <time>2020-09-27T08:29:53Z</time>
      </trkpt>
      <trkpt lat="45.884290616959333" lon="8.434221083298326">
        <ele>1006.47</ele>
        <time>2020-09-27T08:30:08Z</time>
      </trkpt>
      <trkpt lat="45.884278798475862" lon="8.434269530698657">
        <ele>1007.9299999999999</ele>
        <time>2020-09-27T08:30:18Z</time>
      </trkpt>
      <trkpt lat="45.884250216186047" lon="8.434325018897653">
        <ele>1010.5</ele>
        <time>2020-09-27T08:30:32Z</time>
      </trkpt>
      <trkpt lat="45.884248455986381" lon="8.434327784925699">
        <ele>1010.3</ele>
        <time>2020-09-27T08:30:49Z</time>
      </trkpt>
      <trkpt lat="45.884223645552993" lon="8.434366593137384">
        <ele>1011.66</ele>
        <time>2020-09-27T08:31:04Z</time>
      </trkpt>
      <trkpt lat="45.884169833734632" lon="8.434413112699986">
        <ele>1013.98</ele>
        <time>2020-09-27T08:31:18Z</time>
      </trkpt>
      <trkpt lat="45.884110238403082" lon="8.434332562610507">
        <ele>1015.9400000000001</ele>
        <time>2020-09-27T08:31:32Z</time>
      </trkpt>
      <trkpt lat="45.884069250896573" lon="8.434244636446238">
        <ele>1018.41</ele>
        <time>2020-09-27T08:31:46Z</time>
      </trkpt>
      <trkpt lat="45.884036645293236" lon="8.434191327542067">
        <ele>1019.47</ele>
        <time>2020-09-27T08:31:56Z</time>
      </trkpt>
      <trkpt lat="45.884022898972034" lon="8.434150591492653">
        <ele>1020.04</ele>
        <time>2020-09-27T08:32:11Z</time>
      </trkpt>
      <trkpt lat="45.884013259783387" lon="8.434147741645575">
        <ele>1020.04</ele>
        <time>2020-09-27T08:32:31Z</time>
      </trkpt>
      <trkpt lat="45.883985683321953" lon="8.434132989495993">
        <ele>1020.74</ele>
        <time>2020-09-27T08:32:45Z</time>
      </trkpt>
      <trkpt lat="45.883987275883555" lon="8.434169786050916">
        <ele>1022.37</ele>
        <time>2020-09-27T08:32:57Z</time>
      </trkpt>
      <trkpt lat="45.884004291146994" lon="8.434252850711346">
        <ele>1023.49</ele>
        <time>2020-09-27T08:33:11Z</time>
      </trkpt>
      <trkpt lat="45.883992640301585" lon="8.434279840439558">
        <ele>1024.25</ele>
        <time>2020-09-27T08:33:24Z</time>
      </trkpt>
      <trkpt lat="45.883957017213106" lon="8.43426332809031">
        <ele>1025.6800000000001</ele>
        <time>2020-09-27T08:33:33Z</time>
      </trkpt>
      <trkpt lat="45.883939834311604" lon="8.434200379997492">
        <ele>1027.01</ele>
        <time>2020-09-27T08:33:44Z</time>
      </trkpt>
      <trkpt lat="45.883922735229135" lon="8.434238517656922">
        <ele>1029.0799999999999</ele>
        <time>2020-09-27T08:33:56Z</time>
      </trkpt>
      <trkpt lat="45.883921645581722" lon="8.434274392202497">
        <ele>1030.03</ele>
        <time>2020-09-27T08:34:08Z</time>
      </trkpt>
      <trkpt lat="45.883913766592741" lon="8.434337172657251">
        <ele>1031.72</ele>
        <time>2020-09-27T08:34:19Z</time>
      </trkpt>
      <trkpt lat="45.883908234536648" lon="8.434392660856247">
        <ele>1032.9200000000001</ele>
        <time>2020-09-27T08:34:30Z</time>
      </trkpt>
      <trkpt lat="45.883907731622458" lon="8.434429625049233">
        <ele>1033.96</ele>
        <time>2020-09-27T08:34:44Z</time>
      </trkpt>
      <trkpt lat="45.883918963372707" lon="8.434432810172439">
        <ele>1034.1900000000001</ele>
        <time>2020-09-27T08:34:57Z</time>
      </trkpt>
      <trkpt lat="45.883924663066864" lon="8.434443371370435">
        <ele>1034.3</ele>
        <time>2020-09-27T08:35:17Z</time>
      </trkpt>
      <trkpt lat="45.883914772421122" lon="8.434528028592467">
        <ele>1036.0599999999999</ele>
        <time>2020-09-27T08:35:29Z</time>
      </trkpt>
      <trkpt lat="45.883894404396415" lon="8.43455501832068">
        <ele>1036.79</ele>
        <time>2020-09-27T08:35:38Z</time>
      </trkpt>
      <trkpt lat="45.883864564821124" lon="8.434595670551062">
        <ele>1038.75</ele>
        <time>2020-09-27T08:35:49Z</time>
      </trkpt>
      <trkpt lat="45.883847381919622" lon="8.434635987505317">
        <ele>1039.95</ele>
        <time>2020-09-27T08:35:59Z</time>
      </trkpt>
      <trkpt lat="45.883841179311275" lon="8.434674628078938">
        <ele>1040.6800000000001</ele>
        <time>2020-09-27T08:36:12Z</time>
      </trkpt>
      <trkpt lat="45.883816704154015" lon="8.434686446562409">
        <ele>1041.54</ele>
        <time>2020-09-27T08:36:24Z</time>
      </trkpt>
      <trkpt lat="45.88378376327455" lon="8.43464101664722">
        <ele>1043.1199999999999</ele>
        <time>2020-09-27T08:36:36Z</time>
      </trkpt>
      <trkpt lat="45.883768172934651" lon="8.434590641409159">
        <ele>1044.51</ele>
        <time>2020-09-27T08:36:50Z</time>
      </trkpt>
      <trkpt lat="45.88375928811729" lon="8.434587037190795">
        <ele>1044.6900000000001</ele>
        <time>2020-09-27T08:37:08Z</time>
      </trkpt>
      <trkpt lat="45.883743530139327" lon="8.434553677216172">
        <ele>1044.8099999999999</ele>
        <time>2020-09-27T08:37:24Z</time>
      </trkpt>
      <trkpt lat="45.883710170164704" lon="8.434522747993469">
        <ele>1046.3699999999999</ele>
        <time>2020-09-27T08:37:38Z</time>
      </trkpt>
      <trkpt lat="45.883674966171384" lon="8.434543702751398">
        <ele>1048.1700000000001</ele>
        <time>2020-09-27T08:37:51Z</time>
      </trkpt>
      <trkpt lat="45.883648060262203" lon="8.434514198452234">
        <ele>1049.8699999999999</ele>
        <time>2020-09-27T08:38:05Z</time>
      </trkpt>
      <trkpt lat="45.883641773834825" lon="8.434515204280615">
        <ele>1050.3099999999999</ele>
        <time>2020-09-27T08:38:21Z</time>
      </trkpt>
      <trkpt lat="45.883643701672554" lon="8.434530710801482">
        <ele>1049.3299999999999</ele>
        <time>2020-09-27T08:38:40Z</time>
      </trkpt>
      <trkpt lat="45.883635655045509" lon="8.434531800448895">
        <ele>1048.9100000000001</ele>
        <time>2020-09-27T08:39:10Z</time>
      </trkpt>
      <trkpt lat="45.883630039170384" lon="8.43453205190599">
        <ele>1048.9200000000001</ele>
        <time>2020-09-27T08:39:35Z</time>
      </trkpt>
      <trkpt lat="45.883635152131319" lon="8.434525011107326">
        <ele>1048.6400000000001</ele>
        <time>2020-09-27T08:40:25Z</time>
      </trkpt>
      <trkpt lat="45.883632302284241" lon="8.434543618932366">
        <ele>1048.21</ele>
        <time>2020-09-27T08:41:15Z</time>
      </trkpt>
      <trkpt lat="45.883632469922304" lon="8.434546133503318">
        <ele>1049.52</ele>
        <time>2020-09-27T08:41:27Z</time>
      </trkpt>
      <trkpt lat="45.883637666702271" lon="8.434535237029195">
        <ele>1049.4100000000001</ele>
        <time>2020-09-27T08:41:40Z</time>
      </trkpt>
      <trkpt lat="45.883630961179733" lon="8.434563232585788">
        <ele>1050.0999999999999</ele>
        <time>2020-09-27T08:41:55Z</time>
      </trkpt>
      <trkpt lat="45.883615622296929" lon="8.434617714956403">
        <ele>1052.3</ele>
        <time>2020-09-27T08:42:07Z</time>
      </trkpt>
      <trkpt lat="45.883615873754025" lon="8.434684434905648">
        <ele>1053.9000000000001</ele>
        <time>2020-09-27T08:42:18Z</time>
      </trkpt>
      <trkpt lat="45.883589219301939" lon="8.434704383835197">
        <ele>1055.1600000000001</ele>
        <time>2020-09-27T08:42:27Z</time>
      </trkpt>
      <trkpt lat="45.883573880419135" lon="8.434808738529682">
        <ele>1057.54</ele>
        <time>2020-09-27T08:42:42Z</time>
      </trkpt>
      <trkpt lat="45.88355409912765" lon="8.434833632782102">
        <ele>1059.1700000000001</ele>
        <time>2020-09-27T08:42:52Z</time>
      </trkpt>
      <trkpt lat="45.883535575121641" lon="8.434862047433853">
        <ele>1061.53</ele>
        <time>2020-09-27T08:43:04Z</time>
      </trkpt>
      <trkpt lat="45.883490983396769" lon="8.434856599196792">
        <ele>1064.3800000000001</ele>
        <time>2020-09-27T08:43:17Z</time>
      </trkpt>
      <trkpt lat="45.883425604552031" lon="8.434764817357063">
        <ele>1066.0799999999999</ele>
        <time>2020-09-27T08:43:31Z</time>
      </trkpt>
      <trkpt lat="45.88337522931397" lon="8.434680160135031">
        <ele>1067.76</ele>
        <time>2020-09-27T08:43:44Z</time>
      </trkpt>
      <trkpt lat="45.883320327848196" lon="8.434578822925687">
        <ele>1069.8900000000001</ele>
        <time>2020-09-27T08:43:58Z</time>
      </trkpt>
      <trkpt lat="45.883269533514977" lon="8.434475976973772">
        <ele>1071.78</ele>
        <time>2020-09-27T08:44:12Z</time>
      </trkpt>
      <trkpt lat="45.883222427219152" lon="8.434398109093308">
        <ele>1073.8800000000001</ele>
        <time>2020-09-27T08:44:25Z</time>
      </trkpt>
      <trkpt lat="45.883191078901291" lon="8.434359468519688">
        <ele>1074.9300000000001</ele>
        <time>2020-09-27T08:44:38Z</time>
      </trkpt>
      <trkpt lat="45.883147409185767" lon="8.434333903715015">
        <ele>1077.01</ele>
        <time>2020-09-27T08:44:52Z</time>
      </trkpt>
      <trkpt lat="45.883136177435517" lon="8.434324348345399">
        <ele>1077.01</ele>
        <time>2020-09-27T08:45:09Z</time>
      </trkpt>
      <trkpt lat="45.883146403357387" lon="8.434299034997821">
        <ele>1076.8900000000001</ele>
        <time>2020-09-27T08:45:31Z</time>
      </trkpt>
      <trkpt lat="45.883129723370075" lon="8.434274140745401">
        <ele>1077.75</ele>
        <time>2020-09-27T08:45:52Z</time>
      </trkpt>
      <trkpt lat="45.883092423900962" lon="8.434246899560094">
        <ele>1080.1600000000001</ele>
        <time>2020-09-27T08:46:07Z</time>
      </trkpt>
      <trkpt lat="45.883057303726673" lon="8.43424086458981">
        <ele>1082.49</ele>
        <time>2020-09-27T08:46:21Z</time>
      </trkpt>
      <trkpt lat="45.883031571283937" lon="8.434329042211175">
        <ele>1084.8599999999999</ele>
        <time>2020-09-27T08:46:36Z</time>
      </trkpt>
      <trkpt lat="45.883029978722334" lon="8.434339016675949">
        <ele>1084.52</ele>
        <time>2020-09-27T08:46:47Z</time>
      </trkpt>
      <trkpt lat="45.883028553798795" lon="8.434342704713345">
        <ele>1084.25</ele>
        <time>2020-09-27T08:47:03Z</time>
      </trkpt>
      <trkpt lat="45.883023524656892" lon="8.434357373043895">
        <ele>1084.8</ele>
        <time>2020-09-27T08:47:19Z</time>
      </trkpt>
      <trkpt lat="45.88299511000514" lon="8.434380171820521">
        <ele>1086.54</ele>
        <time>2020-09-27T08:47:31Z</time>
      </trkpt>
      <trkpt lat="45.882938196882606" lon="8.434310266748071">
        <ele>1088.97</ele>
        <time>2020-09-27T08:47:45Z</time>
      </trkpt>
      <trkpt lat="45.882890252396464" lon="8.434258969500661">
        <ele>1091.4400000000001</ele>
        <time>2020-09-27T08:47:58Z</time>
      </trkpt>
      <trkpt lat="45.882879104465246" lon="8.434243546798825">
        <ele>1092.0999999999999</ele>
        <time>2020-09-27T08:48:10Z</time>
      </trkpt>
      <trkpt lat="45.882878014817834" lon="8.434248492121697">
        <ele>1092.0799999999999</ele>
        <time>2020-09-27T08:48:26Z</time>
      </trkpt>
      <trkpt lat="45.882873488590121" lon="8.434242205694318">
        <ele>1092.05</ele>
        <time>2020-09-27T08:48:41Z</time>
      </trkpt>
      <trkpt lat="45.882851192727685" lon="8.434199457988143">
        <ele>1092.52</ele>
        <time>2020-09-27T08:49:02Z</time>
      </trkpt>
      <trkpt lat="45.882822275161743" lon="8.434153525158763">
        <ele>1094.26</ele>
        <time>2020-09-27T08:49:13Z</time>
      </trkpt>
      <trkpt lat="45.882809283211827" lon="8.434074986726046">
        <ele>1096.5699999999999</ele>
        <time>2020-09-27T08:49:26Z</time>
      </trkpt>
      <trkpt lat="45.882763518020511" lon="8.434070711955428">
        <ele>1098.5899999999999</ele>
        <time>2020-09-27T08:49:38Z</time>
      </trkpt>
      <trkpt lat="45.882728649303317" lon="8.434108179062605">
        <ele>1099.6800000000001</ele>
        <time>2020-09-27T08:49:49Z</time>
      </trkpt>
      <trkpt lat="45.882700402289629" lon="8.43411329202354">
        <ele>1101.2</ele>
        <time>2020-09-27T08:50:01Z</time>
      </trkpt>
      <trkpt lat="45.882706269621849" lon="8.434112286195159">
        <ele>1101.0599999999999</ele>
        <time>2020-09-27T08:50:18Z</time>
      </trkpt>
      <trkpt lat="45.882705934345722" lon="8.434118907898665">
        <ele>1101.0699999999999</ele>
        <time>2020-09-27T08:50:34Z</time>
      </trkpt>
      <trkpt lat="45.882697636261582" lon="8.434126451611519">
        <ele>1100.6099999999999</ele>
        <time>2020-09-27T08:50:56Z</time>
      </trkpt>
      <trkpt lat="45.882698055356741" lon="8.434125361964107">
        <ele>1100.5899999999999</ele>
        <time>2020-09-27T08:51:15Z</time>
      </trkpt>
      <trkpt lat="45.882700067013502" lon="8.43412259593606">
        <ele>1096.5899999999999</ele>
        <time>2020-09-27T08:51:39Z</time>
      </trkpt>
      <trkpt lat="45.882700150832534" lon="8.434121925383806">
        <ele>1098.4100000000001</ele>
        <time>2020-09-27T08:51:40Z</time>
      </trkpt>
      <trkpt lat="45.882699899375439" lon="8.434121171012521">
        <ele>1102.6900000000001</ele>
        <time>2020-09-27T08:51:41Z</time>
      </trkpt>
      <trkpt lat="45.882700234651566" lon="8.434120751917362">
        <ele>1100.9200000000001</ele>
        <time>2020-09-27T08:51:42Z</time>
      </trkpt>
      <trkpt lat="45.882701491937041" lon="8.434121338650584">
        <ele>1100</ele>
        <time>2020-09-27T08:51:44Z</time>
      </trkpt>
      <trkpt lat="45.882705766707659" lon="8.434128882363439">
        <ele>1099.6800000000001</ele>
        <time>2020-09-27T08:52:08Z</time>
      </trkpt>
      <trkpt lat="45.882706353440881" lon="8.434129217639566">
        <ele>1100.0599999999999</ele>
        <time>2020-09-27T08:52:28Z</time>
      </trkpt>
      <trkpt lat="45.882704509422183" lon="8.434129385277629">
        <ele>1100.1500000000001</ele>
        <time>2020-09-27T08:52:41Z</time>
      </trkpt>
      <trkpt lat="45.88270291686058" lon="8.434123266488314">
        <ele>1100.1800000000001</ele>
        <time>2020-09-27T08:52:55Z</time>
      </trkpt>
      <trkpt lat="45.882680620998144" lon="8.434120835736394">
        <ele>1099.3699999999999</ele>
        <time>2020-09-27T08:53:21Z</time>
      </trkpt>
      <trkpt lat="45.882669556885958" lon="8.434115722775459">
        <ele>1099.1199999999999</ele>
        <time>2020-09-27T08:54:12Z</time>
      </trkpt>
      <trkpt lat="45.882685901597142" lon="8.434116309508681">
        <ele>1099.78</ele>
        <time>2020-09-27T08:54:23Z</time>
      </trkpt>
      <trkpt lat="45.882681123912334" lon="8.434113543480635">
        <ele>1100.0599999999999</ele>
        <time>2020-09-27T08:54:38Z</time>
      </trkpt>
      <trkpt lat="45.882685063406825" lon="8.434118153527379">
        <ele>1100.0899999999999</ele>
        <time>2020-09-27T08:54:50Z</time>
      </trkpt>
      <trkpt lat="45.882669556885958" lon="8.434152267873287">
        <ele>1100.1199999999999</ele>
        <time>2020-09-27T08:55:06Z</time>
      </trkpt>
      <trkpt lat="45.882613398134708" lon="8.434263663366437">
        <ele>1102.0899999999999</ele>
        <time>2020-09-27T08:55:19Z</time>
      </trkpt>
      <trkpt lat="45.882573584094644" lon="8.434451166540384">
        <ele>1104.55</ele>
        <time>2020-09-27T08:55:35Z</time>
      </trkpt>
      <trkpt lat="45.882530752569437" lon="8.434569602832198">
        <ele>1107.21</ele>
        <time>2020-09-27T08:55:49Z</time>
      </trkpt>
      <trkpt lat="45.882492950186133" lon="8.434671694412828">
        <ele>1109.5699999999999</ele>
        <time>2020-09-27T08:56:03Z</time>
      </trkpt>
      <trkpt lat="45.882476354017854" lon="8.434799099341035">
        <ele>1111.71</ele>
        <time>2020-09-27T08:56:17Z</time>
      </trkpt>
      <trkpt lat="45.882457075640559" lon="8.43492248095572">
        <ele>1113.05</ele>
        <time>2020-09-27T08:56:29Z</time>
      </trkpt>
      <trkpt lat="45.882430672645569" lon="8.435019794851542">
        <ele>1114.0599999999999</ele>
        <time>2020-09-27T08:56:39Z</time>
      </trkpt>
      <trkpt lat="45.882400581613183" lon="8.43506564386189">
        <ele>1113.45</ele>
        <time>2020-09-27T08:56:49Z</time>
      </trkpt>
      <trkpt lat="45.882385242730379" lon="8.435080731287599">
        <ele>1113.23</ele>
        <time>2020-09-27T08:56:57Z</time>
      </trkpt>
      <trkpt lat="45.882386416196823" lon="8.435094561427832">
        <ele>1113.3</ele>
        <time>2020-09-27T08:57:13Z</time>
      </trkpt>
      <trkpt lat="45.882406113669276" lon="8.435119539499283">
        <ele>1114.0899999999999</ele>
        <time>2020-09-27T08:57:22Z</time>
      </trkpt>
      <trkpt lat="45.88242488913238" lon="8.435274353250861">
        <ele>1115.04</ele>
        <time>2020-09-27T08:57:37Z</time>
      </trkpt>
      <trkpt lat="45.882442910224199" lon="8.435322800651193">
        <ele>1114.8900000000001</ele>
        <time>2020-09-27T08:57:55Z</time>
      </trkpt>
      <trkpt lat="45.882479874417186" lon="8.43540770933032">
        <ele>1117.6099999999999</ele>
        <time>2020-09-27T08:58:07Z</time>
      </trkpt>
      <trkpt lat="45.882491106167436" lon="8.435486666858196">
        <ele>1119.4000000000001</ele>
        <time>2020-09-27T08:58:16Z</time>
      </trkpt>
      <trkpt lat="45.882509462535381" lon="8.435597056522965">
        <ele>1121.4000000000001</ele>
        <time>2020-09-27T08:58:28Z</time>
      </trkpt>
      <trkpt lat="45.882513402029872" lon="8.435697723180056">
        <ele>1124.45</ele>
        <time>2020-09-27T08:58:40Z</time>
      </trkpt>
      <trkpt lat="45.882522705942392" lon="8.435808029025793">
        <ele>1126.79</ele>
        <time>2020-09-27T08:58:54Z</time>
      </trkpt>
      <trkpt lat="45.882526226341724" lon="8.435896122828126">
        <ele>1129.1700000000001</ele>
        <time>2020-09-27T08:59:06Z</time>
      </trkpt>
      <trkpt lat="45.882509127259254" lon="8.435982288792729">
        <ele>1131.45</ele>
        <time>2020-09-27T08:59:19Z</time>
      </trkpt>
      <trkpt lat="45.882514910772443" lon="8.436047080904245">
        <ele>1133.6300000000001</ele>
        <time>2020-09-27T08:59:34Z</time>
      </trkpt>
      <trkpt lat="45.882478198036551" lon="8.436088571324945">
        <ele>1134.4000000000001</ele>
        <time>2020-09-27T08:59:51Z</time>
      </trkpt>
      <trkpt lat="45.882469648495317" lon="8.436094606295228">
        <ele>1136.6199999999999</ele>
        <time>2020-09-27T09:00:05Z</time>
      </trkpt>
      <trkpt lat="45.882431427016854" lon="8.436114471405745">
        <ele>1137</ele>
        <time>2020-09-27T09:00:21Z</time>
      </trkpt>
      <trkpt lat="45.882372250780463" lon="8.436194686219096">
        <ele>1137.98</ele>
        <time>2020-09-27T09:00:32Z</time>
      </trkpt>
      <trkpt lat="45.882344925776124" lon="8.436285797506571">
        <ele>1140.78</ele>
        <time>2020-09-27T09:00:45Z</time>
      </trkpt>
      <trkpt lat="45.882314834743738" lon="8.436376322060823">
        <ele>1143.24</ele>
        <time>2020-09-27T09:00:57Z</time>
      </trkpt>
      <trkpt lat="45.882288096472621" lon="8.436450166627765">
        <ele>1145.3499999999999</ele>
        <time>2020-09-27T09:01:10Z</time>
      </trkpt>
      <trkpt lat="45.882278205826879" lon="8.43649098649621">
        <ele>1146.72</ele>
        <time>2020-09-27T09:01:20Z</time>
      </trkpt>
      <trkpt lat="45.882264710962772" lon="8.436506995931268">
        <ele>1147.4000000000001</ele>
        <time>2020-09-27T09:01:33Z</time>
      </trkpt>
      <trkpt lat="45.882223136723042" lon="8.436544043943286">
        <ele>1148.51</ele>
        <time>2020-09-27T09:01:45Z</time>
      </trkpt>
      <trkpt lat="45.882220873609185" lon="8.436552928760648">
        <ele>1148.8099999999999</ele>
        <time>2020-09-27T09:02:01Z</time>
      </trkpt>
      <trkpt lat="45.882182568311691" lon="8.436571033671498">
        <ele>1149.2</ele>
        <time>2020-09-27T09:02:17Z</time>
      </trkpt>
      <trkpt lat="45.882133115082979" lon="8.4365916531533">
        <ele>1150.76</ele>
        <time>2020-09-27T09:02:29Z</time>
      </trkpt>
      <trkpt lat="45.882118614390492" lon="8.436585199087858">
        <ele>1150.8399999999999</ele>
        <time>2020-09-27T09:02:49Z</time>
      </trkpt>
      <trkpt lat="45.882098749279976" lon="8.436591066420078">
        <ele>1151.3099999999999</ele>
        <time>2020-09-27T09:03:06Z</time>
      </trkpt>
      <trkpt lat="45.882060276344419" lon="8.436626438051462">
        <ele>1153.8299999999999</ele>
        <time>2020-09-27T09:03:19Z</time>
      </trkpt>
      <trkpt lat="45.882012750953436" lon="8.436637921258807">
        <ele>1156.0799999999999</ele>
        <time>2020-09-27T09:03:32Z</time>
      </trkpt>
      <trkpt lat="45.881931111216545" lon="8.436590479686856">
        <ele>1157.3699999999999</ele>
        <time>2020-09-27T09:03:44Z</time>
      </trkpt>
      <trkpt lat="45.881915437057614" lon="8.436591569334269">
        <ele>1157.29</ele>
        <time>2020-09-27T09:03:46Z</time>
      </trkpt>
      <trkpt lat="45.881841676309705" lon="8.436596430838108">
        <ele>1157.5699999999999</ele>
        <time>2020-09-27T09:03:58Z</time>
      </trkpt>
      <trkpt lat="45.881828349083662" lon="8.436616128310561">
        <ele>1157.8199999999999</ele>
        <time>2020-09-27T09:04:11Z</time>
      </trkpt>
      <trkpt lat="45.881782500073314" lon="8.436684105545282">
        <ele>1158.96</ele>
        <time>2020-09-27T09:04:23Z</time>
      </trkpt>
      <trkpt lat="45.881749056279659" lon="8.436735067516565">
        <ele>1159.8299999999999</ele>
        <time>2020-09-27T09:04:35Z</time>
      </trkpt>
      <trkpt lat="45.881736734881997" lon="8.436793321743608">
        <ele>1161.03</ele>
        <time>2020-09-27T09:04:47Z</time>
      </trkpt>
      <trkpt lat="45.881744530051947" lon="8.436813605949283">
        <ele>1161.24</ele>
        <time>2020-09-27T09:04:59Z</time>
      </trkpt>
      <trkpt lat="45.881752241402864" lon="8.436871776357293">
        <ele>1162.96</ele>
        <time>2020-09-27T09:05:11Z</time>
      </trkpt>
      <trkpt lat="45.88176959194243" lon="8.436980322003365">
        <ele>1163.8499999999999</ele>
        <time>2020-09-27T09:05:26Z</time>
      </trkpt>
      <trkpt lat="45.881764562800527" lon="8.437055759131908">
        <ele>1165.6099999999999</ele>
        <time>2020-09-27T09:05:39Z</time>
      </trkpt>
      <trkpt lat="45.881768418475986" lon="8.437067158520222">
        <ele>1165.6500000000001</ele>
        <time>2020-09-27T09:05:53Z</time>
      </trkpt>
      <trkpt lat="45.881769927218556" lon="8.437063889577985">
        <ele>1165.6800000000001</ele>
        <time>2020-09-27T09:06:06Z</time>
      </trkpt>
      <trkpt lat="45.881767915561795" lon="8.437091717496514">
        <ele>1166.0799999999999</ele>
        <time>2020-09-27T09:06:20Z</time>
      </trkpt>
      <trkpt lat="45.881736231967807" lon="8.437203699722886">
        <ele>1167.76</ele>
        <time>2020-09-27T09:06:34Z</time>
      </trkpt>
      <trkpt lat="45.881711170077324" lon="8.437313251197338">
        <ele>1169.6700000000001</ele>
        <time>2020-09-27T09:06:49Z</time>
      </trkpt>
      <trkpt lat="45.881699016317725" lon="8.437370499596">
        <ele>1171.04</ele>
        <time>2020-09-27T09:07:00Z</time>
      </trkpt>
      <trkpt lat="45.881699854508042" lon="8.437376786023378">
        <ele>1171.3399999999999</ele>
        <time>2020-09-27T09:07:17Z</time>
      </trkpt>
      <trkpt lat="45.88169926777482" lon="8.437377708032727">
        <ele>1171.6800000000001</ele>
        <time>2020-09-27T09:07:33Z</time>
      </trkpt>
      <trkpt lat="45.881669763475657" lon="8.437431938946247">
        <ele>1172.4400000000001</ele>
        <time>2020-09-27T09:07:49Z</time>
      </trkpt>
      <trkpt lat="45.881641684100032" lon="8.437484493479133">
        <ele>1174.0899999999999</ele>
        <time>2020-09-27T09:08:02Z</time>
      </trkpt>
      <trkpt lat="45.881626596674323" lon="8.437521457672119">
        <ele>1174.4200000000001</ele>
        <time>2020-09-27T09:08:17Z</time>
      </trkpt>
      <trkpt lat="45.88157270103693" lon="8.437549453228712">
        <ele>1175.4100000000001</ele>
        <time>2020-09-27T09:08:28Z</time>
      </trkpt>
      <trkpt lat="45.881543783470988" lon="8.437582142651081">
        <ele>1177.27</ele>
        <time>2020-09-27T09:08:41Z</time>
      </trkpt>
      <trkpt lat="45.881535653024912" lon="8.437617346644402">
        <ele>1178.4200000000001</ele>
        <time>2020-09-27T09:08:54Z</time>
      </trkpt>
      <trkpt lat="45.88152090087533" lon="8.437645090743899">
        <ele>1180.05</ele>
        <time>2020-09-27T09:09:06Z</time>
      </trkpt>
      <trkpt lat="45.881508747115731" lon="8.4376519639045">
        <ele>1180.8399999999999</ele>
        <time>2020-09-27T09:09:19Z</time>
      </trkpt>
      <trkpt lat="45.881503047421575" lon="8.437688425183296">
        <ele>1181.8800000000001</ele>
        <time>2020-09-27T09:09:33Z</time>
      </trkpt>
      <trkpt lat="45.881493324413896" lon="8.437704602256417">
        <ele>1182.25</ele>
        <time>2020-09-27T09:09:44Z</time>
      </trkpt>
      <trkpt lat="45.881491731852293" lon="8.437694543972611">
        <ele>1182.5999999999999</ele>
        <time>2020-09-27T09:10:02Z</time>
      </trkpt>
      <trkpt lat="45.881487540900707" lon="8.437701500952244">
        <ele>1182.5799999999999</ele>
        <time>2020-09-27T09:10:16Z</time>
      </trkpt>
      <trkpt lat="45.881456276401877" lon="8.437729412689805">
        <ele>1183.8900000000001</ele>
        <time>2020-09-27T09:10:29Z</time>
      </trkpt>
      <trkpt lat="45.881464071571827" lon="8.437751457095146">
        <ele>1185.6800000000001</ele>
        <time>2020-09-27T09:10:42Z</time>
      </trkpt>
      <trkpt lat="45.881483685225248" lon="8.437756989151239">
        <ele>1186.3900000000001</ele>
        <time>2020-09-27T09:10:56Z</time>
      </trkpt>
      <trkpt lat="45.881487624719739" lon="8.437788337469101">
        <ele>1188.0999999999999</ele>
        <time>2020-09-27T09:11:09Z</time>
      </trkpt>
      <trkpt lat="45.881471866741776" lon="8.437797641381621">
        <ele>1188.8699999999999</ele>
        <time>2020-09-27T09:11:25Z</time>
      </trkpt>
      <trkpt lat="45.8814153727144" lon="8.437814991921186">
        <ele>1190.49</ele>
        <time>2020-09-27T09:11:38Z</time>
      </trkpt>
      <trkpt lat="45.881390394642949" lon="8.437814991921186">
        <ele>1191.27</ele>
        <time>2020-09-27T09:11:50Z</time>
      </trkpt>
      <trkpt lat="45.881375810131431" lon="8.43781859613955">
        <ele>1191.6400000000001</ele>
        <time>2020-09-27T09:12:05Z</time>
      </trkpt>
      <trkpt lat="45.881384527310729" lon="8.437852039933205">
        <ele>1193.0699999999999</ele>
        <time>2020-09-27T09:12:31Z</time>
      </trkpt>
      <trkpt lat="45.881396513432264" lon="8.437891518697143">
        <ele>1195.3199999999999</ele>
        <time>2020-09-27T09:12:45Z</time>
      </trkpt>
      <trkpt lat="45.881449822336435" lon="8.437916245311499">
        <ele>1197.54</ele>
        <time>2020-09-27T09:12:58Z</time>
      </trkpt>
      <trkpt lat="45.881482427939773" lon="8.437934434041381">
        <ele>1198.9200000000001</ele>
        <time>2020-09-27T09:13:09Z</time>
      </trkpt>
      <trkpt lat="45.881467508152127" lon="8.437970308586955">
        <ele>1200.02</ele>
        <time>2020-09-27T09:13:25Z</time>
      </trkpt>
      <trkpt lat="45.881430879235268" lon="8.438017163425684">
        <ele>1201.21</ele>
        <time>2020-09-27T09:13:37Z</time>
      </trkpt>
      <trkpt lat="45.88142559863627" lon="8.438020516186953">
        <ele>1201.71</ele>
        <time>2020-09-27T09:13:48Z</time>
      </trkpt>
      <trkpt lat="45.881393915042281" lon="8.438016241416335">
        <ele>1202.23</ele>
        <time>2020-09-27T09:14:08Z</time>
      </trkpt>
      <trkpt lat="45.881335576996207" lon="8.437997968867421">
        <ele>1204.5699999999999</ele>
        <time>2020-09-27T09:14:21Z</time>
      </trkpt>
      <trkpt lat="45.881281094625592" lon="8.438000315800309">
        <ele>1207.3499999999999</ele>
        <time>2020-09-27T09:14:35Z</time>
      </trkpt>
      <trkpt lat="45.881230216473341" lon="8.438022444024682">
        <ele>1209.0899999999999</ele>
        <time>2020-09-27T09:14:46Z</time>
      </trkpt>
      <trkpt lat="45.88120766915381" lon="8.438039878383279">
        <ele>1209.73</ele>
        <time>2020-09-27T09:14:57Z</time>
      </trkpt>
      <trkpt lat="45.881210351362824" lon="8.438060414046049">
        <ele>1210.3800000000001</ele>
        <time>2020-09-27T09:15:13Z</time>
      </trkpt>
      <trkpt lat="45.881198197603226" lon="8.438126547262073">
        <ele>1211.76</ele>
        <time>2020-09-27T09:15:24Z</time>
      </trkpt>
      <trkpt lat="45.881209429353476" lon="8.438151609152556">
        <ele>1212.7</ele>
        <time>2020-09-27T09:15:34Z</time>
      </trkpt>
      <trkpt lat="45.881252679973841" lon="8.438096707686782">
        <ele>1213.21</ele>
        <time>2020-09-27T09:15:45Z</time>
      </trkpt>
      <trkpt lat="45.881254859268665" lon="8.438100395724177">
        <ele>1212.8699999999999</ele>
        <time>2020-09-27T09:15:58Z</time>
      </trkpt>
      <trkpt lat="45.881252260878682" lon="8.438111459836364">
        <ele>1213.0799999999999</ele>
        <time>2020-09-27T09:16:15Z</time>
      </trkpt>
      <trkpt lat="45.881257206201553" lon="8.438110034912825">
        <ele>1213.0699999999999</ele>
        <time>2020-09-27T09:16:41Z</time>
      </trkpt>
      <trkpt lat="45.881259217858315" lon="8.438107687979937">
        <ele>1213.05</ele>
        <time>2020-09-27T09:16:57Z</time>
      </trkpt>
      <trkpt lat="45.881257709115744" lon="8.438107017427683">
        <ele>1213.3499999999999</ele>
        <time>2020-09-27T09:17:20Z</time>
      </trkpt>
      <trkpt lat="45.881255278363824" lon="8.438106430694461">
        <ele>1213.3199999999999</ele>
        <time>2020-09-27T09:17:35Z</time>
      </trkpt>
      <trkpt lat="45.881250081583858" lon="8.438108861446381">
        <ele>1213.77</ele>
        <time>2020-09-27T09:17:52Z</time>
      </trkpt>
      <trkpt lat="45.881247064098716" lon="8.438112800940871">
        <ele>1213.47</ele>
        <time>2020-09-27T09:18:12Z</time>
      </trkpt>
      <trkpt lat="45.881244465708733" lon="8.438112130388618">
        <ele>1213.49</ele>
        <time>2020-09-27T09:18:35Z</time>
      </trkpt>
      <trkpt lat="45.881242789328098" lon="8.438106933608651">
        <ele>1213.28</ele>
        <time>2020-09-27T09:18:51Z</time>
      </trkpt>
      <trkpt lat="45.88125410489738" lon="8.43810835853219">
        <ele>1213.4400000000001</ele>
        <time>2020-09-27T09:19:10Z</time>
      </trkpt>
      <trkpt lat="45.881288973614573" lon="8.438161080703139">
        <ele>1215.0999999999999</ele>
        <time>2020-09-27T09:19:22Z</time>
      </trkpt>
      <trkpt lat="45.881284112110734" lon="8.438227465376258">
        <ele>1217.6500000000001</ele>
        <time>2020-09-27T09:19:36Z</time>
      </trkpt>
      <trkpt lat="45.881277155131102" lon="8.438260238617659">
        <ele>1219.0599999999999</ele>
        <time>2020-09-27T09:19:45Z</time>
      </trkpt>
      <trkpt lat="45.881281094625592" lon="8.438278008252382">
        <ele>1219.2</ele>
        <time>2020-09-27T09:20:01Z</time>
      </trkpt>
      <trkpt lat="45.881288135424256" lon="8.438295023515821">
        <ele>1219.4400000000001</ele>
        <time>2020-09-27T09:20:19Z</time>
      </trkpt>
      <trkpt lat="45.88129710406065" lon="8.438328802585602">
        <ele>1220.48</ele>
        <time>2020-09-27T09:20:30Z</time>
      </trkpt>
      <trkpt lat="45.881311437115073" lon="8.438340788707137">
        <ele>1220.99</ele>
        <time>2020-09-27T09:20:45Z</time>
      </trkpt>
      <trkpt lat="45.881333732977509" lon="8.438339699059725">
        <ele>1223.6900000000001</ele>
        <time>2020-09-27T09:20:57Z</time>
      </trkpt>
      <trkpt lat="45.881344210356474" lon="8.438413878902793">
        <ele>1225.5899999999999</ele>
        <time>2020-09-27T09:21:09Z</time>
      </trkpt>
      <trkpt lat="45.881361057981849" lon="8.438464589416981">
        <ele>1227.3699999999999</ele>
        <time>2020-09-27T09:21:20Z</time>
      </trkpt>
      <trkpt lat="45.881434148177505" lon="8.438512030988932">
        <ele>1229.1800000000001</ele>
        <time>2020-09-27T09:21:35Z</time>
      </trkpt>
      <trkpt lat="45.881441775709391" lon="8.438511360436678">
        <ele>1229.1099999999999</ele>
        <time>2020-09-27T09:21:48Z</time>
      </trkpt>
      <trkpt lat="45.881440518423915" lon="8.438522256910801">
        <ele>1229.2</ele>
        <time>2020-09-27T09:21:59Z</time>
      </trkpt>
      <trkpt lat="45.881440350785851" lon="8.438517646864057">
        <ele>1229.6600000000001</ele>
        <time>2020-09-27T09:22:18Z</time>
      </trkpt>
      <trkpt lat="45.881442949175835" lon="8.438517143949866">
        <ele>1228.9000000000001</ele>
        <time>2020-09-27T09:22:35Z</time>
      </trkpt>
      <trkpt lat="45.881471028551459" lon="8.43856668099761">
        <ele>1230.3299999999999</ele>
        <time>2020-09-27T09:22:47Z</time>
      </trkpt>
      <trkpt lat="45.881521571427584" lon="8.438572129234672">
        <ele>1231.77</ele>
        <time>2020-09-27T09:23:01Z</time>
      </trkpt>
      <trkpt lat="45.881561888381839" lon="8.438579170033336">
        <ele>1233.5599999999999</ele>
        <time>2020-09-27T09:23:14Z</time>
      </trkpt>
      <trkpt lat="45.881587034091353" lon="8.438610015437007">
        <ele>1235.3800000000001</ele>
        <time>2020-09-27T09:23:25Z</time>
      </trkpt>
      <trkpt lat="45.881624920293689" lon="8.438621079549193">
        <ele>1236.5</ele>
        <time>2020-09-27T09:23:36Z</time>
      </trkpt>
      <trkpt lat="45.881631793454289" lon="8.438662569969893">
        <ele>1237.8399999999999</ele>
        <time>2020-09-27T09:23:49Z</time>
      </trkpt>
      <trkpt lat="45.881636654958129" lon="8.438665419816971">
        <ele>1237.8</ele>
        <time>2020-09-27T09:24:01Z</time>
      </trkpt>
      <trkpt lat="45.881635900586843" lon="8.438660809770227">
        <ele>1237.8</ele>
        <time>2020-09-27T09:24:24Z</time>
      </trkpt>
      <trkpt lat="45.881636990234256" lon="8.438660306856036">
        <ele>1238.72</ele>
        <time>2020-09-27T09:24:33Z</time>
      </trkpt>
      <trkpt lat="45.881639253348112" lon="8.43865804374218">
        <ele>1237.95</ele>
        <time>2020-09-27T09:24:48Z</time>
      </trkpt>
      <trkpt lat="45.88163766078651" lon="8.438664581626654">
        <ele>1237.52</ele>
        <time>2020-09-27T09:25:07Z</time>
      </trkpt>
      <trkpt lat="45.881672278046608" lon="8.438667934387922">
        <ele>1238.79</ele>
        <time>2020-09-27T09:25:22Z</time>
      </trkpt>
      <trkpt lat="45.881716115400195" lon="8.438712023198605">
        <ele>1240.8299999999999</ele>
        <time>2020-09-27T09:25:35Z</time>
      </trkpt>
      <trkpt lat="45.881743440404534" lon="8.438748149201274">
        <ele>1243.3399999999999</ele>
        <time>2020-09-27T09:25:48Z</time>
      </trkpt>
      <trkpt lat="45.881763808429241" lon="8.438736330717802">
        <ele>1244.5899999999999</ele>
        <time>2020-09-27T09:26:00Z</time>
      </trkpt>
      <trkpt lat="45.881791552528739" lon="8.438753010705113">
        <ele>1246.01</ele>
        <time>2020-09-27T09:26:15Z</time>
      </trkpt>
      <trkpt lat="45.881826337426901" lon="8.43881637789309">
        <ele>1248.25</ele>
        <time>2020-09-27T09:26:33Z</time>
      </trkpt>
      <trkpt lat="45.88182725943625" lon="8.438825095072389">
        <ele>1248.1300000000001</ele>
        <time>2020-09-27T09:26:51Z</time>
      </trkpt>
      <trkpt lat="45.881840586662292" lon="8.43883297406137">
        <ele>1248.3599999999999</ele>
        <time>2020-09-27T09:27:10Z</time>
      </trkpt>
      <trkpt lat="45.881869085133076" lon="8.438865076750517">
        <ele>1249.3800000000001</ele>
        <time>2020-09-27T09:27:26Z</time>
      </trkpt>
      <trkpt lat="45.881915437057614" lon="8.438933892175555">
        <ele>1252.26</ele>
        <time>2020-09-27T09:27:42Z</time>
      </trkpt>
      <trkpt lat="45.881945108994842" lon="8.438985524699092">
        <ele>1253.71</ele>
        <time>2020-09-27T09:27:54Z</time>
      </trkpt>
      <trkpt lat="45.881951730698347" lon="8.43900153413415">
        <ele>1254.1099999999999</ele>
        <time>2020-09-27T09:28:13Z</time>
      </trkpt>
      <trkpt lat="45.881958855316043" lon="8.43899860046804">
        <ele>1253.9300000000001</ele>
        <time>2020-09-27T09:28:28Z</time>
      </trkpt>
      <trkpt lat="45.881974948570132" lon="8.438992481678724">
        <ele>1254.5699999999999</ele>
        <time>2020-09-27T09:28:43Z</time>
      </trkpt>
      <trkpt lat="45.882032616063952" lon="8.439016286283732">
        <ele>1256.6700000000001</ele>
        <time>2020-09-27T09:28:57Z</time>
      </trkpt>
      <trkpt lat="45.88209992274642" lon="8.439033972099423">
        <ele>1258.8499999999999</ele>
        <time>2020-09-27T09:29:12Z</time>
      </trkpt>
      <trkpt lat="45.882125906646252" lon="8.439049646258354">
        <ele>1260.79</ele>
        <time>2020-09-27T09:29:24Z</time>
      </trkpt>
      <trkpt lat="45.882127666845918" lon="8.439052663743496">
        <ele>1260.23</ele>
        <time>2020-09-27T09:29:41Z</time>
      </trkpt>
      <trkpt lat="45.882123727351427" lon="8.439055429771543">
        <ele>1260.3199999999999</ele>
        <time>2020-09-27T09:29:59Z</time>
      </trkpt>
      <trkpt lat="45.882124649360776" lon="8.439052831381559">
        <ele>1260.3599999999999</ele>
        <time>2020-09-27T09:30:20Z</time>
      </trkpt>
      <trkpt lat="45.882113752886653" lon="8.439106894657016">
        <ele>1260.8499999999999</ele>
        <time>2020-09-27T09:30:36Z</time>
      </trkpt>
      <trkpt lat="45.882041584700346" lon="8.439199849963188">
        <ele>1259.96</ele>
        <time>2020-09-27T09:30:51Z</time>
      </trkpt>
      <trkpt lat="45.88202515617013" lon="8.439276712015271">
        <ele>1260.04</ele>
        <time>2020-09-27T09:31:03Z</time>
      </trkpt>
      <trkpt lat="45.882019037380815" lon="8.439288111403585">
        <ele>1259.5899999999999</ele>
        <time>2020-09-27T09:31:19Z</time>
      </trkpt>
      <trkpt lat="45.882028760388494" lon="8.439299343153834">
        <ele>1259.55</ele>
        <time>2020-09-27T09:31:47Z</time>
      </trkpt>
      <trkpt lat="45.882029850035906" lon="8.439295906573534">
        <ele>1260.02</ele>
        <time>2020-09-27T09:31:51Z</time>
      </trkpt>
      <trkpt lat="45.882035968825221" lon="8.439328260719776">
        <ele>1260.27</ele>
        <time>2020-09-27T09:32:06Z</time>
      </trkpt>
      <trkpt lat="45.882061868906021" lon="8.439417695626617">
        <ele>1261.52</ele>
        <time>2020-09-27T09:32:18Z</time>
      </trkpt>
      <trkpt lat="45.882082153111696" lon="8.439547782763839">
        <ele>1263.1099999999999</ele>
        <time>2020-09-27T09:32:31Z</time>
      </trkpt>
      <trkpt lat="45.882083913311362" lon="8.439649874344468">
        <ele>1265.29</ele>
        <time>2020-09-27T09:32:45Z</time>
      </trkpt>
      <trkpt lat="45.882061952725053" lon="8.439774010330439">
        <ele>1265.8499999999999</ele>
        <time>2020-09-27T09:32:57Z</time>
      </trkpt>
      <trkpt lat="45.882062036544085" lon="8.43988155014813">
        <ele>1267.48</ele>
        <time>2020-09-27T09:33:10Z</time>
      </trkpt>
      <trkpt lat="45.882079806178808" lon="8.439989592880011">
        <ele>1269.24</ele>
        <time>2020-09-27T09:33:24Z</time>
      </trkpt>
      <trkpt lat="45.882093217223883" lon="8.440086487680674">
        <ele>1271.9000000000001</ele>
        <time>2020-09-27T09:33:40Z</time>
      </trkpt>
      <trkpt lat="45.882094139233232" lon="8.440138958394527">
        <ele>1272.8499999999999</ele>
        <time>2020-09-27T09:33:51Z</time>
      </trkpt>
      <trkpt lat="45.882093720138073" lon="8.440247755497694">
        <ele>1274.05</ele>
        <time>2020-09-27T09:34:04Z</time>
      </trkpt>
      <trkpt lat="45.882120709866285" lon="8.440341632813215">
        <ele>1275.3900000000001</ele>
        <time>2020-09-27T09:34:16Z</time>
      </trkpt>
      <trkpt lat="45.882124397903681" lon="8.440453531220555">
        <ele>1277.3699999999999</ele>
        <time>2020-09-27T09:34:30Z</time>
      </trkpt>
      <trkpt lat="45.882133450359106" lon="8.440558640286326">
        <ele>1280.1300000000001</ele>
        <time>2020-09-27T09:34:45Z</time>
      </trkpt>
      <trkpt lat="45.882137725129724" lon="8.440657211467624">
        <ele>1281.5999999999999</ele>
        <time>2020-09-27T09:34:57Z</time>
      </trkpt>
      <trkpt lat="45.882120793685317" lon="8.440750585868955">
        <ele>1282.95</ele>
        <time>2020-09-27T09:35:09Z</time>
      </trkpt>
      <trkpt lat="45.88214392773807" lon="8.440857706591487">
        <ele>1284.02</ele>
        <time>2020-09-27T09:35:21Z</time>
      </trkpt>
      <trkpt lat="45.882117860019207" lon="8.440927192568779">
        <ele>1285.97</ele>
        <time>2020-09-27T09:35:34Z</time>
      </trkpt>
      <trkpt lat="45.882026916369796" lon="8.440944207832217">
        <ele>1287.01</ele>
        <time>2020-09-27T09:35:52Z</time>
      </trkpt>
      <trkpt lat="45.882009733468294" lon="8.440922582522035">
        <ele>1285.75</ele>
        <time>2020-09-27T09:36:08Z</time>
      </trkpt>
      <trkpt lat="45.882010404020548" lon="8.440922414883971">
        <ele>1285.5899999999999</ele>
        <time>2020-09-27T09:36:09Z</time>
      </trkpt>
      <trkpt lat="45.882001016288996" lon="8.44091210514307">
        <ele>1287.1300000000001</ele>
        <time>2020-09-27T09:36:28Z</time>
      </trkpt>
      <trkpt lat="45.881985258311033" lon="8.440903387963772">
        <ele>1286.95</ele>
        <time>2020-09-27T09:36:42Z</time>
      </trkpt>
      <trkpt lat="45.881950305774808" lon="8.440887797623873">
        <ele>1287.1600000000001</ele>
        <time>2020-09-27T09:36:54Z</time>
      </trkpt>
      <trkpt lat="45.881954245269299" lon="8.440869944170117">
        <ele>1287.6400000000001</ele>
        <time>2020-09-27T09:37:11Z</time>
      </trkpt>
      <trkpt lat="45.881984168663621" lon="8.440892575308681">
        <ele>1287.5599999999999</ele>
        <time>2020-09-27T09:37:27Z</time>
      </trkpt>
      <trkpt lat="45.881990287452936" lon="8.440876062959433">
        <ele>1287.0899999999999</ele>
        <time>2020-09-27T09:37:45Z</time>
      </trkpt>
      <trkpt lat="45.881986934691668" lon="8.440882852301002">
        <ele>1287.0699999999999</ele>
        <time>2020-09-27T09:38:01Z</time>
      </trkpt>
      <trkpt lat="45.882000513374805" lon="8.440933730453253">
        <ele>1288.25</ele>
        <time>2020-09-27T09:38:15Z</time>
      </trkpt>
      <trkpt lat="45.881988443434238" lon="8.440938172861934">
        <ele>1288.0699999999999</ele>
        <time>2020-09-27T09:38:32Z</time>
      </trkpt>
      <trkpt lat="45.881991125643253" lon="8.440913446247578">
        <ele>1287.27</ele>
        <time>2020-09-27T09:38:42Z</time>
      </trkpt>
      <trkpt lat="45.882004704326391" lon="8.440897352993488">
        <ele>1287.05</ele>
        <time>2020-09-27T09:38:56Z</time>
      </trkpt>
      <trkpt lat="45.881990790367126" lon="8.44086030498147">
        <ele>1287.55</ele>
        <time>2020-09-27T09:39:21Z</time>
      </trkpt>
      <trkpt lat="45.88187713176012" lon="8.44082510098815">
        <ele>1287.71</ele>
        <time>2020-09-27T09:39:37Z</time>
      </trkpt>
      <trkpt lat="45.881803287193179" lon="8.440808421000838">
        <ele>1287.3699999999999</ele>
        <time>2020-09-27T09:39:47Z</time>
      </trkpt>
      <trkpt lat="45.881724078208208" lon="8.440796937793493">
        <ele>1287.3</ele>
        <time>2020-09-27T09:39:58Z</time>
      </trkpt>
      <trkpt lat="45.881643611937761" lon="8.4407914057374">
        <ele>1287.7</ele>
        <time>2020-09-27T09:40:09Z</time>
      </trkpt>
      <trkpt lat="45.881546717137098" lon="8.440753854811192">
        <ele>1287.3399999999999</ele>
        <time>2020-09-27T09:40:21Z</time>
      </trkpt>
      <trkpt lat="45.881485948339105" lon="8.440753351897001">
        <ele>1287.2</ele>
        <time>2020-09-27T09:40:28Z</time>
      </trkpt>
      <trkpt lat="45.881348652765155" lon="8.440765170380473">
        <ele>1287.8299999999999</ele>
        <time>2020-09-27T09:40:44Z</time>
      </trkpt>
      <trkpt lat="45.881306994706392" lon="8.440773384645581">
        <ele>1287.9200000000001</ele>
        <time>2020-09-27T09:40:56Z</time>
      </trkpt>
      <trkpt lat="45.881227450445294" lon="8.440824514254928">
        <ele>1289</ele>
        <time>2020-09-27T09:41:08Z</time>
      </trkpt>
      <trkpt lat="45.881177326664329" lon="8.44086273573339">
        <ele>1290.1199999999999</ele>
        <time>2020-09-27T09:41:17Z</time>
      </trkpt>
      <trkpt lat="45.881082694977522" lon="8.440938424319029">
        <ele>1290.8499999999999</ele>
        <time>2020-09-27T09:41:31Z</time>
      </trkpt>
      <trkpt lat="45.880993092432618" lon="8.440996594727039">
        <ele>1291.6900000000001</ele>
        <time>2020-09-27T09:41:45Z</time>
      </trkpt>
      <trkpt lat="45.880910195410252" lon="8.440998187288642">
        <ele>1292.77</ele>
        <time>2020-09-27T09:41:59Z</time>
      </trkpt>
      <trkpt lat="45.880855042487383" lon="8.441010508686304">
        <ele>1293.95</ele>
        <time>2020-09-27T09:42:09Z</time>
      </trkpt>
      <trkpt lat="45.880744904279709" lon="8.441024590283632">
        <ele>1294.7</ele>
        <time>2020-09-27T09:42:24Z</time>
      </trkpt>
      <trkpt lat="45.880700144916773" lon="8.441034145653248">
        <ele>1296.8900000000001</ele>
        <time>2020-09-27T09:42:31Z</time>
      </trkpt>
      <trkpt lat="45.880597801879048" lon="8.441080581396818">
        <ele>1296.5999999999999</ele>
        <time>2020-09-27T09:42:45Z</time>
      </trkpt>
      <trkpt lat="45.880551198497415" lon="8.441142272204161">
        <ele>1297.4300000000001</ele>
        <time>2020-09-27T09:42:57Z</time>
      </trkpt>
      <trkpt lat="45.880550444126129" lon="8.44113833270967">
        <ele>1297.9200000000001</ele>
        <time>2020-09-27T09:43:09Z</time>
      </trkpt>
      <trkpt lat="45.880586989223957" lon="8.441119976341724">
        <ele>1298.52</ele>
        <time>2020-09-27T09:43:23Z</time>
      </trkpt>
      <trkpt lat="45.880611715838313" lon="8.441104050725699">
        <ele>1298.74</ele>
        <time>2020-09-27T09:43:36Z</time>
      </trkpt>
      <trkpt lat="45.880587995052338" lon="8.441159538924694">
        <ele>1299.5599999999999</ele>
        <time>2020-09-27T09:43:46Z</time>
      </trkpt>
      <trkpt lat="45.880593694746494" lon="8.441246626898646">
        <ele>1301.9400000000001</ele>
        <time>2020-09-27T09:43:57Z</time>
      </trkpt>
      <trkpt lat="45.880598556250334" lon="8.441343856975436">
        <ele>1304.3299999999999</ele>
        <time>2020-09-27T09:44:10Z</time>
      </trkpt>
      <trkpt lat="45.880602914839983" lon="8.44143639318645">
        <ele>1306.79</ele>
        <time>2020-09-27T09:44:23Z</time>
      </trkpt>
      <trkpt lat="45.880646836012602" lon="8.44154728576541">
        <ele>1309.47</ele>
        <time>2020-09-27T09:44:38Z</time>
      </trkpt>
      <trkpt lat="45.880653876811266" lon="8.441647868603468">
        <ele>1311.5899999999999</ele>
        <time>2020-09-27T09:44:52Z</time>
      </trkpt>
      <trkpt lat="45.88064624927938" lon="8.441732944920659">
        <ele>1312.1099999999999</ele>
        <time>2020-09-27T09:45:04Z</time>
      </trkpt>
      <trkpt lat="45.880641052499413" lon="8.441836126148701">
        <ele>1312.8900000000001</ele>
        <time>2020-09-27T09:45:18Z</time>
      </trkpt>
      <trkpt lat="45.880627306178212" lon="8.441872503608465">
        <ele>1312.3399999999999</ele>
        <time>2020-09-27T09:45:27Z</time>
      </trkpt>
      <trkpt lat="45.880590677261353" lon="8.441952131688595">
        <ele>1311.4200000000001</ele>
        <time>2020-09-27T09:45:37Z</time>
      </trkpt>
      <trkpt lat="45.880583552643657" lon="8.44199831597507">
        <ele>1311.6099999999999</ele>
        <time>2020-09-27T09:45:49Z</time>
      </trkpt>
      <trkpt lat="45.880569973960519" lon="8.441997058689594">
        <ele>1310.54</ele>
        <time>2020-09-27T09:45:58Z</time>
      </trkpt>
      <trkpt lat="45.880560837686062" lon="8.442033855244517">
        <ele>1310.3499999999999</ele>
        <time>2020-09-27T09:46:08Z</time>
      </trkpt>
      <trkpt lat="45.880540637299418" lon="8.442110298201442">
        <ele>1310.8</ele>
        <time>2020-09-27T09:46:21Z</time>
      </trkpt>
      <trkpt lat="45.880510378628969" lon="8.442129073664546">
        <ele>1310.0599999999999</ele>
        <time>2020-09-27T09:46:32Z</time>
      </trkpt>
      <trkpt lat="45.880459332838655" lon="8.442162349820137">
        <ele>1307.8699999999999</ele>
        <time>2020-09-27T09:46:43Z</time>
      </trkpt>
      <trkpt lat="45.8804224524647" lon="8.442230494692922">
        <ele>1307.6600000000001</ele>
        <time>2020-09-27T09:46:53Z</time>
      </trkpt>
      <trkpt lat="45.880407448858023" lon="8.442316660657525">
        <ele>1306.4100000000001</ele>
        <time>2020-09-27T09:47:03Z</time>
      </trkpt>
      <trkpt lat="45.880375429987907" lon="8.442416153848171">
        <ele>1305.52</ele>
        <time>2020-09-27T09:47:14Z</time>
      </trkpt>
      <trkpt lat="45.880327988415956" lon="8.442494021728635">
        <ele>1305.79</ele>
        <time>2020-09-27T09:47:26Z</time>
      </trkpt>
      <trkpt lat="45.880279624834657" lon="8.442609021440148">
        <ele>1306.26</ele>
        <time>2020-09-27T09:47:39Z</time>
      </trkpt>
      <trkpt lat="45.880282893776894" lon="8.442744640633464">
        <ele>1307.3499999999999</ele>
        <time>2020-09-27T09:47:51Z</time>
      </trkpt>
      <trkpt lat="45.880296556279063" lon="8.442782778292894">
        <ele>1307.3199999999999</ele>
        <time>2020-09-27T09:47:55Z</time>
      </trkpt>
      <trkpt lat="45.880324216559529" lon="8.442862071096897">
        <ele>1306.6900000000001</ele>
        <time>2020-09-27T09:48:03Z</time>
      </trkpt>
      <trkpt lat="45.880324551835656" lon="8.442960474640131">
        <ele>1306.5699999999999</ele>
        <time>2020-09-27T09:48:10Z</time>
      </trkpt>
      <trkpt lat="45.880317343398929" lon="8.443073630332947">
        <ele>1307.0799999999999</ele>
        <time>2020-09-27T09:48:22Z</time>
      </trkpt>
      <trkpt lat="45.880322875455022" lon="8.443136913701892">
        <ele>1309.04</ele>
        <time>2020-09-27T09:48:33Z</time>
      </trkpt>
      <trkpt lat="45.880301585420966" lon="8.443188713863492">
        <ele>1311.49</ele>
        <time>2020-09-27T09:48:44Z</time>
      </trkpt>
      <trkpt lat="45.880254646763206" lon="8.443251997232437">
        <ele>1314</ele>
        <time>2020-09-27T09:48:57Z</time>
      </trkpt>
      <trkpt lat="45.880183568224311" lon="8.443257194012404">
        <ele>1315.72</ele>
        <time>2020-09-27T09:49:11Z</time>
      </trkpt>
      <trkpt lat="45.880086002871394" lon="8.443234646692872">
        <ele>1317.48</ele>
        <time>2020-09-27T09:49:26Z</time>
      </trkpt>
      <trkpt lat="45.879987934604287" lon="8.443224336951971">
        <ele>1319.1800000000001</ele>
        <time>2020-09-27T09:49:40Z</time>
      </trkpt>
      <trkpt lat="45.879940744489431" lon="8.443218385800719">
        <ele>1319.6600000000001</ele>
        <time>2020-09-27T09:49:53Z</time>
      </trkpt>
      <trkpt lat="45.879948372021317" lon="8.443212350830436">
        <ele>1319.3199999999999</ele>
        <time>2020-09-27T09:50:10Z</time>
      </trkpt>
      <trkpt lat="45.879958933219314" lon="8.443123754113913">
        <ele>1318.5</ele>
        <time>2020-09-27T09:50:22Z</time>
      </trkpt>
      <trkpt lat="45.879972511902452" lon="8.443049574270845">
        <ele>1317.95</ele>
        <time>2020-09-27T09:50:34Z</time>
      </trkpt>
      <trkpt lat="45.879979720339179" lon="8.443052927032113">
        <ele>1317.99</ele>
        <time>2020-09-27T09:50:54Z</time>
      </trkpt>
      <trkpt lat="45.879973350092769" lon="8.443046975880861">
        <ele>1316.8299999999999</ele>
        <time>2020-09-27T09:51:04Z</time>
      </trkpt>
      <trkpt lat="45.879984498023987" lon="8.443044628947973">
        <ele>1317.73</ele>
        <time>2020-09-27T09:51:26Z</time>
      </trkpt>
      <trkpt lat="45.879968823865056" lon="8.443042868748307">
        <ele>1317.8299999999999</ele>
        <time>2020-09-27T09:51:39Z</time>
      </trkpt>
      <trkpt lat="45.879978463053703" lon="8.443044712767005">
        <ele>1318.28</ele>
        <time>2020-09-27T09:51:51Z</time>
      </trkpt>
      <trkpt lat="45.879962621256709" lon="8.443097937852144">
        <ele>1318.4300000000001</ele>
        <time>2020-09-27T09:52:04Z</time>
      </trkpt>
      <trkpt lat="45.879936553537846" lon="8.443173626437783">
        <ele>1319.4200000000001</ele>
        <time>2020-09-27T09:52:18Z</time>
      </trkpt>
      <trkpt lat="45.879927333444357" lon="8.443170776590705">
        <ele>1318.95</ele>
        <time>2020-09-27T09:52:44Z</time>
      </trkpt>
      <trkpt lat="45.879927249625325" lon="8.443151079118252">
        <ele>1318.8199999999999</ele>
        <time>2020-09-27T09:53:15Z</time>
      </trkpt>
      <trkpt lat="45.879923645406961" lon="8.44315292313695">
        <ele>1318.6600000000001</ele>
        <time>2020-09-27T09:53:39Z</time>
      </trkpt>
      <trkpt lat="45.879918783903122" lon="8.443181086331606">
        <ele>1319.04</ele>
        <time>2020-09-27T09:54:03Z</time>
      </trkpt>
      <trkpt lat="45.879877796396613" lon="8.44324772246182">
        <ele>1319.9100000000001</ele>
        <time>2020-09-27T09:54:14Z</time>
      </trkpt>
      <trkpt lat="45.879798755049706" lon="8.443369511514902">
        <ele>1321.9300000000001</ele>
        <time>2020-09-27T09:54:29Z</time>
      </trkpt>
      <trkpt lat="45.879720384255052" lon="8.443502029404044">
        <ele>1324.26</ele>
        <time>2020-09-27T09:54:45Z</time>
      </trkpt>
      <trkpt lat="45.879609575495124" lon="8.44355165027082">
        <ele>1325.8900000000001</ele>
        <time>2020-09-27T09:54:59Z</time>
      </trkpt>
      <trkpt lat="45.879482757300138" lon="8.443678384646773">
        <ele>1326.29</ele>
        <time>2020-09-27T09:55:15Z</time>
      </trkpt>
      <trkpt lat="45.879428861662745" lon="8.443831354379654">
        <ele>1327.8599999999999</ele>
        <time>2020-09-27T09:55:29Z</time>
      </trkpt>
      <trkpt lat="45.879386700689793" lon="8.443946270272136">
        <ele>1329.45</ele>
        <time>2020-09-27T09:55:43Z</time>
      </trkpt>
      <trkpt lat="45.879401117563248" lon="8.443990107625723">
        <ele>1329.6099999999999</ele>
        <time>2020-09-27T09:55:59Z</time>
      </trkpt>
      <trkpt lat="45.879402123391628" lon="8.444162188097835">
        <ele>1330.5699999999999</ele>
        <time>2020-09-27T09:56:14Z</time>
      </trkpt>
      <trkpt lat="45.879423581063747" lon="8.444364108145237">
        <ele>1331.3900000000001</ele>
        <time>2020-09-27T09:56:31Z</time>
      </trkpt>
      <trkpt lat="45.879432884976268" lon="8.444424793124199">
        <ele>1331.3099999999999</ele>
        <time>2020-09-27T09:56:36Z</time>
      </trkpt>
      <trkpt lat="45.879452833905816" lon="8.444643141701818">
        <ele>1333.1600000000001</ele>
        <time>2020-09-27T09:56:55Z</time>
      </trkpt>
      <trkpt lat="45.879469094797969" lon="8.444791082292795">
        <ele>1335.8399999999999</ele>
        <time>2020-09-27T09:57:13Z</time>
      </trkpt>
      <trkpt lat="45.879468508064747" lon="8.444830644875765">
        <ele>1336.9000000000001</ele>
        <time>2020-09-27T09:57:25Z</time>
      </trkpt>
      <trkpt lat="45.879468927159905" lon="8.444832488894463">
        <ele>1336.3099999999999</ele>
        <time>2020-09-27T09:57:37Z</time>
      </trkpt>
      <trkpt lat="45.879487283527851" lon="8.444862328469753">
        <ele>1337.4100000000001</ele>
        <time>2020-09-27T09:57:49Z</time>
      </trkpt>
      <trkpt lat="45.879532713443041" lon="8.444953775033355">
        <ele>1339.1400000000001</ele>
        <time>2020-09-27T09:58:02Z</time>
      </trkpt>
      <trkpt lat="45.879600355401635" lon="8.44502242282033">
        <ele>1340.77</ele>
        <time>2020-09-27T09:58:14Z</time>
      </trkpt>
      <trkpt lat="45.879642851650715" lon="8.445124262943864">
        <ele>1342.8900000000001</ele>
        <time>2020-09-27T09:58:29Z</time>
      </trkpt>
      <trkpt lat="45.879595996811986" lon="8.445224426686764">
        <ele>1344.3299999999999</ele>
        <time>2020-09-27T09:58:42Z</time>
      </trkpt>
      <trkpt lat="45.879627009853721" lon="8.445324003696442">
        <ele>1347.0599999999999</ele>
        <time>2020-09-27T09:58:57Z</time>
      </trkpt>
      <trkpt lat="45.879641845822334" lon="8.44543581828475">
        <ele>1349.3599999999999</ele>
        <time>2020-09-27T09:59:13Z</time>
      </trkpt>
      <trkpt lat="45.879619969055057" lon="8.445493318140507">
        <ele>1351.3199999999999</ele>
        <time>2020-09-27T09:59:26Z</time>
      </trkpt>
      <trkpt lat="45.879684006795287" lon="8.445572024211288">
        <ele>1352.96</ele>
        <time>2020-09-27T09:59:40Z</time>
      </trkpt>
      <trkpt lat="45.879690712317824" lon="8.445588871836662">
        <ele>1353.0999999999999</ele>
        <time>2020-09-27T09:59:52Z</time>
      </trkpt>
      <trkpt lat="45.87969490326941" lon="8.445601779967547">
        <ele>1352.9400000000001</ele>
        <time>2020-09-27T10:00:19Z</time>
      </trkpt>
      <trkpt lat="45.879702530801296" lon="8.445600522682071">
        <ele>1353.0599999999999</ele>
        <time>2020-09-27T10:00:35Z</time>
      </trkpt>
      <trkpt lat="45.879765562713146" lon="8.445599600672722">
        <ele>1354.27</ele>
        <time>2020-09-27T10:00:48Z</time>
      </trkpt>
      <trkpt lat="45.879858937114477" lon="8.445647545158863">
        <ele>1356.71</ele>
        <time>2020-09-27T10:01:05Z</time>
      </trkpt>
      <trkpt lat="45.879963459447026" lon="8.445680653676391">
        <ele>1359.6800000000001</ele>
        <time>2020-09-27T10:01:21Z</time>
      </trkpt>
      <trkpt lat="45.880057420581579" lon="8.445735219866037">
        <ele>1361.47</ele>
        <time>2020-09-27T10:01:37Z</time>
      </trkpt>
      <trkpt lat="45.880136964842677" lon="8.445825995877385">
        <ele>1363.21</ele>
        <time>2020-09-27T10:01:53Z</time>
      </trkpt>
      <trkpt lat="45.880204103887081" lon="8.445887099951506">
        <ele>1364.71</ele>
        <time>2020-09-27T10:02:07Z</time>
      </trkpt>
      <trkpt lat="45.880300914868712" lon="8.445938816294074">
        <ele>1366.74</ele>
        <time>2020-09-27T10:02:23Z</time>
      </trkpt>
      <trkpt lat="45.880383057519794" lon="8.446009056642652">
        <ele>1368.75</ele>
        <time>2020-09-27T10:02:39Z</time>
      </trkpt>
      <trkpt lat="45.880421362817287" lon="8.44605540856719">
        <ele>1369.6900000000001</ele>
        <time>2020-09-27T10:02:50Z</time>
      </trkpt>
      <trkpt lat="45.880492189899087" lon="8.446122966706753">
        <ele>1371.6800000000001</ele>
        <time>2020-09-27T10:03:04Z</time>
      </trkpt>
      <trkpt lat="45.880577182397246" lon="8.446166971698403">
        <ele>1373.1600000000001</ele>
        <time>2020-09-27T10:03:18Z</time>
      </trkpt>
      <trkpt lat="45.880656642839313" lon="8.4462552331388">
        <ele>1375.1099999999999</ele>
        <time>2020-09-27T10:03:36Z</time>
      </trkpt>
      <trkpt lat="45.880658151581883" lon="8.446268476545811">
        <ele>1375.5599999999999</ele>
        <time>2020-09-27T10:03:48Z</time>
      </trkpt>
      <trkpt lat="45.880670724436641" lon="8.446268225088716">
        <ele>1375.0599999999999</ele>
        <time>2020-09-27T10:04:02Z</time>
      </trkpt>
      <trkpt lat="45.880661755800247" lon="8.446275852620602">
        <ele>1375.4100000000001</ele>
        <time>2020-09-27T10:04:22Z</time>
      </trkpt>
      <trkpt lat="45.880663096904755" lon="8.446265626698732">
        <ele>1375.25</ele>
        <time>2020-09-27T10:04:34Z</time>
      </trkpt>
      <trkpt lat="45.880661504343152" lon="8.446266883984208">
        <ele>1375.1800000000001</ele>
        <time>2020-09-27T10:04:53Z</time>
      </trkpt>
      <trkpt lat="45.880649602040648" lon="8.44626403413713">
        <ele>1374.5999999999999</ele>
        <time>2020-09-27T10:05:12Z</time>
      </trkpt>
      <trkpt lat="45.880659995600581" lon="8.446267135441303">
        <ele>1375.05</ele>
        <time>2020-09-27T10:05:24Z</time>
      </trkpt>
      <trkpt lat="45.880662761628628" lon="8.446337962523103">
        <ele>1376.0799999999999</ele>
        <time>2020-09-27T10:05:35Z</time>
      </trkpt>
      <trkpt lat="45.880665360018611" lon="8.446404598653317">
        <ele>1377.3399999999999</ele>
        <time>2020-09-27T10:05:47Z</time>
      </trkpt>
      <trkpt lat="45.880655469372869" lon="8.446437455713749">
        <ele>1377.8099999999999</ele>
        <time>2020-09-27T10:05:57Z</time>
      </trkpt>
      <trkpt lat="45.880664773285389" lon="8.446468552574515">
        <ele>1378.4000000000001</ele>
        <time>2020-09-27T10:06:16Z</time>
      </trkpt>
      <trkpt lat="45.880653876811266" lon="8.446563351899386">
        <ele>1379.71</ele>
        <time>2020-09-27T10:06:28Z</time>
      </trkpt>
      <trkpt lat="45.88060132227838" lon="8.446636693552136">
        <ele>1381.0999999999999</ele>
        <time>2020-09-27T10:06:41Z</time>
      </trkpt>
      <trkpt lat="45.880519011989236" lon="8.446647087112069">
        <ele>1382.45</ele>
        <time>2020-09-27T10:06:53Z</time>
      </trkpt>
      <trkpt lat="45.880421027541161" lon="8.44674339517951">
        <ele>1384.9400000000001</ele>
        <time>2020-09-27T10:07:09Z</time>
      </trkpt>
      <trkpt lat="45.880337543785572" lon="8.44683769159019">
        <ele>1387.6500000000001</ele>
        <time>2020-09-27T10:07:26Z</time>
      </trkpt>
      <trkpt lat="45.880311308428645" lon="8.446942046284676">
        <ele>1390.3800000000001</ele>
        <time>2020-09-27T10:07:42Z</time>
      </trkpt>
      <trkpt lat="45.880312062799931" lon="8.447036007419229">
        <ele>1392.9000000000001</ele>
        <time>2020-09-27T10:07:58Z</time>
      </trkpt>
      <trkpt lat="45.880297645926476" lon="8.447129717096686">
        <ele>1395.4400000000001</ele>
        <time>2020-09-27T10:08:12Z</time>
      </trkpt>
      <trkpt lat="45.880256071686745" lon="8.447246225550771">
        <ele>1397.3699999999999</ele>
        <time>2020-09-27T10:08:29Z</time>
      </trkpt>
      <trkpt lat="45.880214078351855" lon="8.447167268022895">
        <ele>1397.6800000000001</ele>
        <time>2020-09-27T10:08:39Z</time>
      </trkpt>
      <trkpt lat="45.880224220454693" lon="8.447106163948774">
        <ele>1397.3399999999999</ele>
        <time>2020-09-27T10:08:50Z</time>
      </trkpt>
      <trkpt lat="45.880222208797932" lon="8.447107002139092">
        <ele>1396.0599999999999</ele>
        <time>2020-09-27T10:09:01Z</time>
      </trkpt>
      <trkpt lat="45.880224220454693" lon="8.44710641540587">
        <ele>1396.1700000000001</ele>
        <time>2020-09-27T10:09:42Z</time>
      </trkpt>
      <trkpt lat="45.880232015624642" lon="8.447096273303032">
        <ele>1396.26</ele>
        <time>2020-09-27T10:10:39Z</time>
      </trkpt>
      <trkpt lat="45.880223046988249" lon="8.447101218625903">
        <ele>1397.55</ele>
        <time>2020-09-27T10:11:22Z</time>
      </trkpt>
      <trkpt lat="45.880216006189585" lon="8.44710934907198">
        <ele>1397.3800000000001</ele>
        <time>2020-09-27T10:11:48Z</time>
      </trkpt>
      <trkpt lat="45.880216844379902" lon="8.447113707661629">
        <ele>1396.52</ele>
        <time>2020-09-27T10:12:03Z</time>
      </trkpt>
      <trkpt lat="45.88021332398057" lon="8.44711228273809">
        <ele>1397.5799999999999</ele>
        <time>2020-09-27T10:12:25Z</time>
      </trkpt>
      <trkpt lat="45.880190273746848" lon="8.447084119543433">
        <ele>1397.46</ele>
        <time>2020-09-27T10:12:36Z</time>
      </trkpt>
      <trkpt lat="45.880198823288083" lon="8.447074899449945">
        <ele>1397.4000000000001</ele>
        <time>2020-09-27T10:12:57Z</time>
      </trkpt>
      <trkpt lat="45.880200164392591" lon="8.447083113715053">
        <ele>1397.51</ele>
        <time>2020-09-27T10:13:11Z</time>
      </trkpt>
      <trkpt lat="45.880161691457033" lon="8.447115300223231">
        <ele>1397.8900000000001</ele>
        <time>2020-09-27T10:13:19Z</time>
      </trkpt>
      <trkpt lat="45.880105281248689" lon="8.44714748673141">
        <ele>1397.73</ele>
        <time>2020-09-27T10:13:25Z</time>
      </trkpt>
      <trkpt lat="45.879973601549864" lon="8.447215296328068">
        <ele>1397.8499999999999</ele>
        <time>2020-09-27T10:13:40Z</time>
      </trkpt>
      <trkpt lat="45.879955580458045" lon="8.447250751778483">
        <ele>1398.25</ele>
        <time>2020-09-27T10:13:51Z</time>
      </trkpt>
      <trkpt lat="45.879933955147862" lon="8.447252511978149">
        <ele>1397.8</ele>
        <time>2020-09-27T10:13:59Z</time>
      </trkpt>
      <trkpt lat="45.879932194948196" lon="8.447241196408868">
        <ele>1397.9200000000001</ele>
        <time>2020-09-27T10:14:10Z</time>
      </trkpt>
      <trkpt lat="45.879931272938848" lon="8.447246309369803">
        <ele>1398.0699999999999</ele>
        <time>2020-09-27T10:14:53Z</time>
      </trkpt>
      <trkpt lat="45.879927165806293" lon="8.447249243035913">
        <ele>1398.1900000000001</ele>
        <time>2020-09-27T10:15:43Z</time>
      </trkpt>
      <trkpt lat="45.879932530224323" lon="8.447243124246597">
        <ele>1398.1500000000001</ele>
        <time>2020-09-27T10:16:23Z</time>
      </trkpt>
      <trkpt lat="45.879922555759549" lon="8.447243794798851">
        <ele>1398.25</ele>
        <time>2020-09-27T10:17:10Z</time>
      </trkpt>
      <trkpt lat="45.879912748932838" lon="8.447257373481989">
        <ele>1398.03</ele>
        <time>2020-09-27T10:17:58Z</time>
      </trkpt>
      <trkpt lat="45.879906127229333" lon="8.447258211672306">
        <ele>1397.6600000000001</ele>
        <time>2020-09-27T10:18:29Z</time>
      </trkpt>
      <trkpt lat="45.879919789731503" lon="8.447252763435245">
        <ele>1397.9400000000001</ele>
        <time>2020-09-27T10:19:14Z</time>
      </trkpt>
      <trkpt lat="45.879925489425659" lon="8.447257960215211">
        <ele>1397.5599999999999</ele>
        <time>2020-09-27T10:20:03Z</time>
      </trkpt>
      <trkpt lat="45.879937224090099" lon="8.447268521413207">
        <ele>1397.9100000000001</ele>
        <time>2020-09-27T10:20:47Z</time>
      </trkpt>
      <trkpt lat="45.87993579916656" lon="8.447273131459951">
        <ele>1397.8699999999999</ele>
        <time>2020-09-27T10:21:28Z</time>
      </trkpt>
      <trkpt lat="45.879942839965224" lon="8.447268521413207">
        <ele>1397.48</ele>
        <time>2020-09-27T10:22:21Z</time>
      </trkpt>
      <trkpt lat="45.879958178848028" lon="8.447267431765795">
        <ele>1397.95</ele>
        <time>2020-09-27T10:23:20Z</time>
      </trkpt>
      <trkpt lat="45.87994460016489" lon="8.447278579697013">
        <ele>1398.96</ele>
        <time>2020-09-27T10:23:43Z</time>
      </trkpt>
      <trkpt lat="45.879939319565892" lon="8.447268856689334">
        <ele>1399.3199999999999</ele>
        <time>2020-09-27T10:23:54Z</time>
      </trkpt>
      <trkpt lat="45.879931440576911" lon="8.447256367653608">
        <ele>1399.2</ele>
        <time>2020-09-27T10:24:04Z</time>
      </trkpt>
      <trkpt lat="45.879933033138514" lon="8.447249829769135">
        <ele>1399.0799999999999</ele>
        <time>2020-09-27T10:24:16Z</time>
      </trkpt>
      <trkpt lat="45.879945438355207" lon="8.447239184752107">
        <ele>1398.76</ele>
        <time>2020-09-27T10:24:36Z</time>
      </trkpt>
      <trkpt lat="45.879943678155541" lon="8.447240442037582">
        <ele>1398.6199999999999</ele>
        <time>2020-09-27T10:24:48Z</time>
      </trkpt>
      <trkpt lat="45.880033783614635" lon="8.447194257751107">
        <ele>1398.7</ele>
        <time>2020-09-27T10:25:02Z</time>
      </trkpt>
      <trkpt lat="45.88008088991046" lon="8.447182606905699">
        <ele>1398.8800000000001</ele>
        <time>2020-09-27T10:25:07Z</time>
      </trkpt>
      <trkpt lat="45.880150878801942" lon="8.447156120091677">
        <ele>1398.71</ele>
        <time>2020-09-27T10:25:14Z</time>
      </trkpt>
      <trkpt lat="45.880233692005277" lon="8.447302049025893">
        <ele>1399.4400000000001</ele>
        <time>2020-09-27T10:25:29Z</time>
      </trkpt>
      <trkpt lat="45.880166552960873" lon="8.447444373741746">
        <ele>1401.9200000000001</ele>
        <time>2020-09-27T10:25:45Z</time>
      </trkpt>
      <trkpt lat="45.880182646214962" lon="8.44754328019917">
        <ele>1404.28</ele>
        <time>2020-09-27T10:25:57Z</time>
      </trkpt>
      <trkpt lat="45.880213910713792" lon="8.447704883292317">
        <ele>1406.9100000000001</ele>
        <time>2020-09-27T10:26:14Z</time>
      </trkpt>
      <trkpt lat="45.880223968997598" lon="8.447846872732043">
        <ele>1410.0699999999999</ele>
        <time>2020-09-27T10:26:31Z</time>
      </trkpt>
      <trkpt lat="45.880243582651019" lon="8.447982240468264">
        <ele>1412.76</ele>
        <time>2020-09-27T10:26:47Z</time>
      </trkpt>
      <trkpt lat="45.880263615399599" lon="8.448173180222511">
        <ele>1414.95</ele>
        <time>2020-09-27T10:27:06Z</time>
      </trkpt>
      <trkpt lat="45.880243331193924" lon="8.448315002024174">
        <ele>1417.26</ele>
        <time>2020-09-27T10:27:21Z</time>
      </trkpt>
      <trkpt lat="45.880247270688415" lon="8.448488507419825">
        <ele>1420.21</ele>
        <time>2020-09-27T10:27:38Z</time>
      </trkpt>
      <trkpt lat="45.880283396691084" lon="8.448650529608131">
        <ele>1422.21</ele>
        <time>2020-09-27T10:27:54Z</time>
      </trkpt>
      <trkpt lat="45.880275266245008" lon="8.448818251490593">
        <ele>1424.1400000000001</ele>
        <time>2020-09-27T10:28:09Z</time>
      </trkpt>
      <trkpt lat="45.88021039031446" lon="8.449038108810782">
        <ele>1425.2</ele>
        <time>2020-09-27T10:28:25Z</time>
      </trkpt>
      <trkpt lat="45.880152219906449" lon="8.449292164295912">
        <ele>1426.6500000000001</ele>
        <time>2020-09-27T10:28:42Z</time>
      </trkpt>
      <trkpt lat="45.880124643445015" lon="8.449521828442812">
        <ele>1428.71</ele>
        <time>2020-09-27T10:28:58Z</time>
      </trkpt>
      <trkpt lat="45.88010729290545" lon="8.449740177020431">
        <ele>1431.1099999999999</ele>
        <time>2020-09-27T10:29:14Z</time>
      </trkpt>
      <trkpt lat="45.880114585161209" lon="8.449936313554645">
        <ele>1433.98</ele>
        <time>2020-09-27T10:29:30Z</time>
      </trkpt>
      <trkpt lat="45.880123218521476" lon="8.45016572624445">
        <ele>1435.3299999999999</ele>
        <time>2020-09-27T10:29:48Z</time>
      </trkpt>
      <trkpt lat="45.88012489490211" lon="8.450199756771326">
        <ele>1435.4300000000001</ele>
        <time>2020-09-27T10:29:52Z</time>
      </trkpt>
      <trkpt lat="45.880136042833328" lon="8.450254155322909">
        <ele>1435.5</ele>
        <time>2020-09-27T10:29:56Z</time>
      </trkpt>
      <trkpt lat="45.880087176337838" lon="8.450432689860463">
        <ele>1435.6700000000001</ele>
        <time>2020-09-27T10:30:11Z</time>
      </trkpt>
      <trkpt lat="45.880065467208624" lon="8.45052975229919">
        <ele>1436.72</ele>
        <time>2020-09-27T10:30:25Z</time>
      </trkpt>
      <trkpt lat="45.880070999264717" lon="8.450521538034082">
        <ele>1436.8299999999999</ele>
        <time>2020-09-27T10:30:46Z</time>
      </trkpt>
      <trkpt lat="45.88007259182632" lon="8.450520029291511">
        <ele>1436.4400000000001</ele>
        <time>2020-09-27T10:31:08Z</time>
      </trkpt>
      <trkpt lat="45.880076279863715" lon="8.45051902346313">
        <ele>1436.55</ele>
        <time>2020-09-27T10:31:23Z</time>
      </trkpt>
      <trkpt lat="45.880075274035335" lon="8.450519777834415">
        <ele>1436.71</ele>
        <time>2020-09-27T10:31:41Z</time>
      </trkpt>
      <trkpt lat="45.880072927102447" lon="8.45052095130086">
        <ele>1436.5999999999999</ele>
        <time>2020-09-27T10:31:59Z</time>
      </trkpt>
      <trkpt lat="45.880070496350527" lon="8.45052539370954">
        <ele>1436.48</ele>
        <time>2020-09-27T10:32:20Z</time>
      </trkpt>
      <trkpt lat="45.880060940980911" lon="8.450556071475148">
        <ele>1436.5899999999999</ele>
        <time>2020-09-27T10:32:36Z</time>
      </trkpt>
      <trkpt lat="45.880067562684417" lon="8.450548024848104">
        <ele>1436.79</ele>
        <time>2020-09-27T10:32:48Z</time>
      </trkpt>
      <trkpt lat="45.88006722740829" lon="8.45054391771555">
        <ele>1436.6099999999999</ele>
        <time>2020-09-27T10:33:01Z</time>
      </trkpt>
      <trkpt lat="45.880079884082079" lon="8.45060502178967">
        <ele>1437.4000000000001</ele>
        <time>2020-09-27T10:33:15Z</time>
      </trkpt>
      <trkpt lat="45.880075693130493" lon="8.450767965987325">
        <ele>1437.5699999999999</ele>
        <time>2020-09-27T10:33:29Z</time>
      </trkpt>
      <trkpt lat="45.8800476975739" lon="8.450765870511532">
        <ele>1437.8299999999999</ele>
        <time>2020-09-27T10:33:40Z</time>
      </trkpt>
      <trkpt lat="45.880025150254369" lon="8.450747849419713">
        <ele>1438.54</ele>
        <time>2020-09-27T10:33:50Z</time>
      </trkpt>
      <trkpt lat="45.8799699973315" lon="8.450753297656775">
        <ele>1438.3399999999999</ele>
        <time>2020-09-27T10:33:59Z</time>
      </trkpt>
      <trkpt lat="45.879944851621985" lon="8.450722200796008">
        <ele>1438.4300000000001</ele>
        <time>2020-09-27T10:34:10Z</time>
      </trkpt>
      <trkpt lat="45.879936050623655" lon="8.450710382312536">
        <ele>1438.47</ele>
        <time>2020-09-27T10:34:22Z</time>
      </trkpt>
      <trkpt lat="45.879914006218314" lon="8.450681464746594">
        <ele>1438.5999999999999</ele>
        <time>2020-09-27T10:34:36Z</time>
      </trkpt>
      <trkpt lat="45.879922220483422" lon="8.450649948790669">
        <ele>1438.46</ele>
        <time>2020-09-27T10:34:58Z</time>
      </trkpt>
      <trkpt lat="45.879916185513139" lon="8.450669562444091">
        <ele>1438.7</ele>
        <time>2020-09-27T10:35:22Z</time>
      </trkpt>
      <trkpt lat="45.879911240190268" lon="8.450698060914874">
        <ele>1438.6400000000001</ele>
        <time>2020-09-27T10:35:44Z</time>
      </trkpt>
      <trkpt lat="45.879937643185258" lon="8.450700994580984">
        <ele>1438.53</ele>
        <time>2020-09-27T10:36:06Z</time>
      </trkpt>
      <trkpt lat="45.879919035360217" lon="8.450655061751604">
        <ele>1438.49</ele>
        <time>2020-09-27T10:36:28Z</time>
      </trkpt>
      <trkpt lat="45.879901768639684" lon="8.450665287673473">
        <ele>1438.5799999999999</ele>
        <time>2020-09-27T10:36:42Z</time>
      </trkpt>
      <trkpt lat="45.879914425313473" lon="8.450692696496844">
        <ele>1438.71</ele>
        <time>2020-09-27T10:37:02Z</time>
      </trkpt>
      <trkpt lat="45.879946360364556" lon="8.45070225186646">
        <ele>1438.6600000000001</ele>
        <time>2020-09-27T10:37:26Z</time>
      </trkpt>
      <trkpt lat="45.879990700632334" lon="8.450720105320215">
        <ele>1438.74</ele>
        <time>2020-09-27T10:37:36Z</time>
      </trkpt>
      <trkpt lat="45.880009140819311" lon="8.450744496658444">
        <ele>1438.46</ele>
        <time>2020-09-27T10:37:56Z</time>
      </trkpt>
      <trkpt lat="45.880015846341848" lon="8.450741562992334">
        <ele>1438.3199999999999</ele>
        <time>2020-09-27T10:38:12Z</time>
      </trkpt>
      <trkpt lat="45.880008134990931" lon="8.450750950723887">
        <ele>1438.3299999999999</ele>
        <time>2020-09-27T10:38:26Z</time>
      </trkpt>
      <trkpt lat="45.880013583227992" lon="8.450753381475806">
        <ele>1438.78</ele>
        <time>2020-09-27T10:38:41Z</time>
      </trkpt>
      <trkpt lat="45.880052307620645" lon="8.450761679559946">
        <ele>1438.1099999999999</ele>
        <time>2020-09-27T10:38:49Z</time>
      </trkpt>
      <trkpt lat="45.880086589604616" lon="8.450739132240415">
        <ele>1437.6500000000001</ele>
        <time>2020-09-27T10:38:52Z</time>
      </trkpt>
      <trkpt lat="45.880205193534493" lon="8.450554143637419">
        <ele>1436.3900000000001</ele>
        <time>2020-09-27T10:39:07Z</time>
      </trkpt>
      <trkpt lat="45.880260514095426" lon="8.450345853343606">
        <ele>1435.5599999999999</ele>
        <time>2020-09-27T10:39:21Z</time>
      </trkpt>
      <trkpt lat="45.880273170769215" lon="8.450267566367984">
        <ele>1435.53</ele>
        <time>2020-09-27T10:39:26Z</time>
      </trkpt>
      <trkpt lat="45.880185579881072" lon="8.450105711817741">
        <ele>1435.5799999999999</ele>
        <time>2020-09-27T10:39:39Z</time>
      </trkpt>
      <trkpt lat="45.88014199398458" lon="8.449881663545966">
        <ele>1433.6400000000001</ele>
        <time>2020-09-27T10:39:55Z</time>
      </trkpt>
      <trkpt lat="45.880149286240339" lon="8.449786948040128">
        <ele>1432.29</ele>
        <time>2020-09-27T10:40:02Z</time>
      </trkpt>
      <trkpt lat="45.880143083631992" lon="8.449513195082545">
        <ele>1429.3900000000001</ele>
        <time>2020-09-27T10:40:18Z</time>
      </trkpt>
      <trkpt lat="45.880181808024645" lon="8.449294678866863">
        <ele>1427.77</ele>
        <time>2020-09-27T10:40:30Z</time>
      </trkpt>
      <trkpt lat="45.880235703662038" lon="8.449027966707945">
        <ele>1426.5699999999999</ele>
        <time>2020-09-27T10:40:45Z</time>
      </trkpt>
      <trkpt lat="45.880311643704772" lon="8.448740551248193">
        <ele>1424.9300000000001</ele>
        <time>2020-09-27T10:41:02Z</time>
      </trkpt>
      <trkpt lat="45.880322121083736" lon="8.448694031685591">
        <ele>1424.3499999999999</ele>
        <time>2020-09-27T10:41:05Z</time>
      </trkpt>
      <trkpt lat="45.880312314257026" lon="8.448651200160384">
        <ele>1423.7</ele>
        <time>2020-09-27T10:41:08Z</time>
      </trkpt>
      <trkpt lat="45.880288928747177" lon="8.448605183511972">
        <ele>1422.97</ele>
        <time>2020-09-27T10:41:12Z</time>
      </trkpt>
      <trkpt lat="45.880286749452353" lon="8.448538463562727">
        <ele>1422.0899999999999</ele>
        <time>2020-09-27T10:41:16Z</time>
      </trkpt>
      <trkpt lat="45.880272248759866" lon="8.44834073446691">
        <ele>1418.8</ele>
        <time>2020-09-27T10:41:28Z</time>
      </trkpt>
      <trkpt lat="45.880289934575558" lon="8.448174940422177">
        <ele>1415.79</ele>
        <time>2020-09-27T10:41:38Z</time>
      </trkpt>
      <trkpt lat="45.880271075293422" lon="8.447950640693307">
        <ele>1412.79</ele>
        <time>2020-09-27T10:41:51Z</time>
      </trkpt>
      <trkpt lat="45.880246851593256" lon="8.447789959609509">
        <ele>1409.54</ele>
        <time>2020-09-27T10:42:01Z</time>
      </trkpt>
      <trkpt lat="45.880235536023974" lon="8.447629697620869">
        <ele>1406.29</ele>
        <time>2020-09-27T10:42:11Z</time>
      </trkpt>
      <trkpt lat="45.880181724205613" lon="8.447466418147087">
        <ele>1403.25</ele>
        <time>2020-09-27T10:42:24Z</time>
      </trkpt>
      <trkpt lat="45.880177700892091" lon="8.447440015152097">
        <ele>1402.6700000000001</ele>
        <time>2020-09-27T10:42:26Z</time>
      </trkpt>
      <trkpt lat="45.880195889621973" lon="8.447398105636239">
        <ele>1402.0599999999999</ele>
        <time>2020-09-27T10:42:30Z</time>
      </trkpt>
      <trkpt lat="45.880235284566879" lon="8.447374887764454">
        <ele>1401.0999999999999</ele>
        <time>2020-09-27T10:42:34Z</time>
      </trkpt>
      <trkpt lat="45.880242576822639" lon="8.44731017947197">
        <ele>1400.24</ele>
        <time>2020-09-27T10:42:38Z</time>
      </trkpt>
      <trkpt lat="45.880246600136161" lon="8.447275562211871">
        <ele>1399.97</ele>
        <time>2020-09-27T10:42:40Z</time>
      </trkpt>
      <trkpt lat="45.880227824673057" lon="8.447214374318719">
        <ele>1399.5999999999999</ele>
        <time>2020-09-27T10:42:44Z</time>
      </trkpt>
      <trkpt lat="45.880067646503448" lon="8.447107505053282">
        <ele>1399.3599999999999</ele>
        <time>2020-09-27T10:43:00Z</time>
      </trkpt>
      <trkpt lat="45.879938565194607" lon="8.447209596633911">
        <ele>1399.4000000000001</ele>
        <time>2020-09-27T10:43:15Z</time>
      </trkpt>
      <trkpt lat="45.879932027310133" lon="8.447228204458952">
        <ele>1399.4300000000001</ele>
        <time>2020-09-27T10:43:28Z</time>
      </trkpt>
      <trkpt lat="45.87993236258626" lon="8.447222504764795">
        <ele>1399.4400000000001</ele>
        <time>2020-09-27T10:43:48Z</time>
      </trkpt>
      <trkpt lat="45.87992699816823" lon="8.447229964658618">
        <ele>1399.27</ele>
        <time>2020-09-27T10:44:00Z</time>
      </trkpt>
      <trkpt lat="45.879930183291435" lon="8.447229126468301">
        <ele>1398.8</ele>
        <time>2020-09-27T10:44:03Z</time>
      </trkpt>
      <trkpt lat="45.879945941269398" lon="8.447297271341085">
        <ele>1398.72</ele>
        <time>2020-09-27T10:44:12Z</time>
      </trkpt>
      <trkpt lat="45.879960274323821" lon="8.447279669344425">
        <ele>1398.54</ele>
        <time>2020-09-27T10:44:37Z</time>
      </trkpt>
      <trkpt lat="45.879951054230332" lon="8.447289727628231">
        <ele>1398.6400000000001</ele>
        <time>2020-09-27T10:45:17Z</time>
      </trkpt>
      <trkpt lat="45.879946192726493" lon="8.447294840589166">
        <ele>1398.51</ele>
        <time>2020-09-27T10:45:49Z</time>
      </trkpt>
      <trkpt lat="45.879948455840349" lon="8.447273802012205">
        <ele>1398.5</ele>
        <time>2020-09-27T10:46:34Z</time>
      </trkpt>
      <trkpt lat="45.87994703091681" lon="8.447266425937414">
        <ele>1398.52</ele>
        <time>2020-09-27T10:47:23Z</time>
      </trkpt>
      <trkpt lat="45.87992456741631" lon="8.447286961600184">
        <ele>1398.8800000000001</ele>
        <time>2020-09-27T10:48:09Z</time>
      </trkpt>
      <trkpt lat="45.8799181971699" lon="8.447288805618882">
        <ele>1398.8199999999999</ele>
        <time>2020-09-27T10:48:50Z</time>
      </trkpt>
      <trkpt lat="45.879925740882754" lon="8.447303054854274">
        <ele>1399.05</ele>
        <time>2020-09-27T10:49:35Z</time>
      </trkpt>
      <trkpt lat="45.879929680377245" lon="8.44731948338449">
        <ele>1399.0799999999999</ele>
        <time>2020-09-27T10:50:16Z</time>
      </trkpt>
      <trkpt lat="45.879942504689097" lon="8.447303725406528">
        <ele>1399.45</ele>
        <time>2020-09-27T10:51:00Z</time>
      </trkpt>
      <trkpt lat="45.879952730610967" lon="8.447303976863623">
        <ele>1399.4100000000001</ele>
        <time>2020-09-27T10:51:44Z</time>
      </trkpt>
      <trkpt lat="45.879956167191267" lon="8.44730238430202">
        <ele>1399.5599999999999</ele>
        <time>2020-09-27T10:52:27Z</time>
      </trkpt>
      <trkpt lat="45.879954323172569" lon="8.447308335453272">
        <ele>1400.1199999999999</ele>
        <time>2020-09-27T10:53:06Z</time>
      </trkpt>
      <trkpt lat="45.879955748096108" lon="8.447311269119382">
        <ele>1400.01</ele>
        <time>2020-09-27T10:53:42Z</time>
      </trkpt>
      <trkpt lat="45.879956167191267" lon="8.447312358766794">
        <ele>1399.8199999999999</ele>
        <time>2020-09-27T10:54:11Z</time>
      </trkpt>
      <trkpt lat="45.879962788894773" lon="8.447312945500016">
        <ele>1400.0699999999999</ele>
        <time>2020-09-27T10:54:35Z</time>
      </trkpt>
      <trkpt lat="45.879968320950866" lon="8.447306239977479">
        <ele>1400.1199999999999</ele>
        <time>2020-09-27T10:55:11Z</time>
      </trkpt>
      <trkpt lat="45.879970584064722" lon="8.447319064289331">
        <ele>1400.1099999999999</ele>
        <time>2020-09-27T10:55:46Z</time>
      </trkpt>
      <trkpt lat="45.879978127777576" lon="8.4473258536309">
        <ele>1400.29</ele>
        <time>2020-09-27T10:56:31Z</time>
      </trkpt>
      <trkpt lat="45.879979468882084" lon="8.447329122573137">
        <ele>1400.6300000000001</ele>
        <time>2020-09-27T10:57:18Z</time>
      </trkpt>
      <trkpt lat="45.879981145262718" lon="8.447317555546761">
        <ele>1399.9000000000001</ele>
        <time>2020-09-27T10:57:55Z</time>
      </trkpt>
      <trkpt lat="45.879976535215974" lon="8.447317136451602">
        <ele>1400.0899999999999</ele>
        <time>2020-09-27T10:58:30Z</time>
      </trkpt>
      <trkpt lat="45.879962369799614" lon="8.447309508919716">
        <ele>1400.5799999999999</ele>
        <time>2020-09-27T10:58:55Z</time>
      </trkpt>
      <trkpt lat="45.87994996458292" lon="8.447303557768464">
        <ele>1400.24</ele>
        <time>2020-09-27T10:59:20Z</time>
      </trkpt>
      <trkpt lat="45.879950132220984" lon="8.447304563596845">
        <ele>1400.79</ele>
        <time>2020-09-27T10:59:48Z</time>
      </trkpt>
      <trkpt lat="45.879947282373905" lon="8.447302551940084">
        <ele>1400.29</ele>
        <time>2020-09-27T11:00:40Z</time>
      </trkpt>
      <trkpt lat="45.879937391728163" lon="8.447304647415876">
        <ele>1400.28</ele>
        <time>2020-09-27T11:01:36Z</time>
      </trkpt>
      <trkpt lat="45.879937894642353" lon="8.447310850024223">
        <ele>1399.6900000000001</ele>
        <time>2020-09-27T11:02:29Z</time>
      </trkpt>
      <trkpt lat="45.879939990118146" lon="8.447304144501686">
        <ele>1399.55</ele>
        <time>2020-09-27T11:03:22Z</time>
      </trkpt>
      <trkpt lat="45.879938146099448" lon="8.447289979085326">
        <ele>1399.5599999999999</ele>
        <time>2020-09-27T11:04:12Z</time>
      </trkpt>
      <trkpt lat="45.879935380071402" lon="8.447284195572138">
        <ele>1399.3499999999999</ele>
        <time>2020-09-27T11:05:00Z</time>
      </trkpt>
      <trkpt lat="45.879935128614306" lon="8.447298780083656">
        <ele>1399.8</ele>
        <time>2020-09-27T11:05:47Z</time>
      </trkpt>
      <trkpt lat="45.879934960976243" lon="8.447280842810869">
        <ele>1399.4000000000001</ele>
        <time>2020-09-27T11:06:22Z</time>
      </trkpt>
      <trkpt lat="45.879940744489431" lon="8.447278747335076">
        <ele>1399.54</ele>
        <time>2020-09-27T11:07:22Z</time>
      </trkpt>
      <trkpt lat="45.879942756146193" lon="8.447304228320718">
        <ele>1399.53</ele>
        <time>2020-09-27T11:08:18Z</time>
      </trkpt>
      <trkpt lat="45.879937056452036" lon="8.44729601405561">
        <ele>1399.4300000000001</ele>
        <time>2020-09-27T11:09:08Z</time>
      </trkpt>
      <trkpt lat="45.879926327615976" lon="8.447305066511035">
        <ele>1399.0899999999999</ele>
        <time>2020-09-27T11:09:59Z</time>
      </trkpt>
      <trkpt lat="45.879934877157211" lon="8.447289476171136">
        <ele>1398.9000000000001</ele>
        <time>2020-09-27T11:10:51Z</time>
      </trkpt>
      <trkpt lat="45.879951808601618" lon="8.447277070954442">
        <ele>1398.8499999999999</ele>
        <time>2020-09-27T11:11:41Z</time>
      </trkpt>
      <trkpt lat="45.879950635135174" lon="8.447282100096345">
        <ele>1398.8199999999999</ele>
        <time>2020-09-27T11:12:28Z</time>
      </trkpt>
      <trkpt lat="45.879952060058713" lon="8.447287632152438">
        <ele>1398.4300000000001</ele>
        <time>2020-09-27T11:13:18Z</time>
      </trkpt>
      <trkpt lat="45.879959771409631" lon="8.447291655465961">
        <ele>1398.3299999999999</ele>
        <time>2020-09-27T11:14:06Z</time>
      </trkpt>
      <trkpt lat="45.87996119633317" lon="8.447304731234908">
        <ele>1398.0699999999999</ele>
        <time>2020-09-27T11:15:00Z</time>
      </trkpt>
      <trkpt lat="45.879951557144523" lon="8.44730288721621">
        <ele>1397.98</ele>
        <time>2020-09-27T11:15:52Z</time>
      </trkpt>
      <trkpt lat="45.879951557144523" lon="8.447322333231568">
        <ele>1397.78</ele>
        <time>2020-09-27T11:16:41Z</time>
      </trkpt>
      <trkpt lat="45.879951305687428" lon="8.447333313524723">
        <ele>1397.5899999999999</ele>
        <time>2020-09-27T11:17:37Z</time>
      </trkpt>
      <trkpt lat="45.87996069341898" lon="8.447326021268964">
        <ele>1397.3499999999999</ele>
        <time>2020-09-27T11:18:34Z</time>
      </trkpt>
      <trkpt lat="45.879970584064722" lon="8.447320070117712">
        <ele>1396.9300000000001</ele>
        <time>2020-09-27T11:19:22Z</time>
      </trkpt>
      <trkpt lat="45.879967985674739" lon="8.447309089824557">
        <ele>1396.9400000000001</ele>
        <time>2020-09-27T11:20:20Z</time>
      </trkpt>
      <trkpt lat="45.87996169924736" lon="8.447316884994507">
        <ele>1396.9200000000001</ele>
        <time>2020-09-27T11:20:53Z</time>
      </trkpt>
      <trkpt lat="45.879966812208295" lon="8.447295762598515">
        <ele>1396.3800000000001</ele>
        <time>2020-09-27T11:21:36Z</time>
      </trkpt>
      <trkpt lat="45.879966812208295" lon="8.447308586910367">
        <ele>1396.3199999999999</ele>
        <time>2020-09-27T11:22:13Z</time>
      </trkpt>
      <trkpt lat="45.879972344264388" lon="8.447321746498346">
        <ele>1396.6700000000001</ele>
        <time>2020-09-27T11:22:38Z</time>
      </trkpt>
      <trkpt lat="45.879980223253369" lon="8.447327949106693">
        <ele>1396.3699999999999</ele>
        <time>2020-09-27T11:23:02Z</time>
      </trkpt>
      <trkpt lat="45.87997050024569" lon="8.447321327403188">
        <ele>1396.6900000000001</ele>
        <time>2020-09-27T11:23:20Z</time>
      </trkpt>
      <trkpt lat="45.879973350092769" lon="8.447323422878981">
        <ele>1397.4400000000001</ele>
        <time>2020-09-27T11:23:30Z</time>
      </trkpt>
      <trkpt lat="45.879977457225323" lon="8.447322333231568">
        <ele>1397.3099999999999</ele>
        <time>2020-09-27T11:23:49Z</time>
      </trkpt>
      <trkpt lat="45.879972092807293" lon="8.447324177250266">
        <ele>1397.3</ele>
        <time>2020-09-27T11:24:08Z</time>
      </trkpt>
      <trkpt lat="45.879973517730832" lon="8.447322584688664">
        <ele>1397.0599999999999</ele>
        <time>2020-09-27T11:24:25Z</time>
      </trkpt>
      <trkpt lat="45.87996756657958" lon="8.447318477556109">
        <ele>1396.97</ele>
        <time>2020-09-27T11:24:37Z</time>
      </trkpt>
      <trkpt lat="45.879967147484422" lon="8.447321075946093">
        <ele>1397.1500000000001</ele>
        <time>2020-09-27T11:25:02Z</time>
      </trkpt>
      <trkpt lat="45.879956753924489" lon="8.447289224714041">
        <ele>1396.9100000000001</ele>
        <time>2020-09-27T11:25:20Z</time>
      </trkpt>
      <trkpt lat="45.879956418648362" lon="8.447269275784493">
        <ele>1396.77</ele>
        <time>2020-09-27T11:25:33Z</time>
      </trkpt>
      <trkpt lat="45.879949377849698" lon="8.447269778698683">
        <ele>1397.0599999999999</ele>
        <time>2020-09-27T11:25:48Z</time>
      </trkpt>
      <trkpt lat="45.879943259060383" lon="8.447264581918716">
        <ele>1397.29</ele>
        <time>2020-09-27T11:26:10Z</time>
      </trkpt>
      <trkpt lat="45.879948455840349" lon="8.447262989357114">
        <ele>1397.3099999999999</ele>
        <time>2020-09-27T11:26:22Z</time>
      </trkpt>
      <trkpt lat="45.879948036745191" lon="8.447243794798851">
        <ele>1397.1400000000001</ele>
        <time>2020-09-27T11:26:32Z</time>
      </trkpt>
      <trkpt lat="45.879952311515808" lon="8.447253350168467">
        <ele>1396.4400000000001</ele>
        <time>2020-09-27T11:26:46Z</time>
      </trkpt>
      <trkpt lat="45.879954406991601" lon="8.447248572483659">
        <ele>1396.95</ele>
        <time>2020-09-27T11:27:52Z</time>
      </trkpt>
      <trkpt lat="45.879955412819982" lon="8.447247734293342">
        <ele>1396.96</ele>
        <time>2020-09-27T11:28:59Z</time>
      </trkpt>
      <trkpt lat="45.879943007603288" lon="8.447229713201523">
        <ele>1397.1600000000001</ele>
        <time>2020-09-27T11:29:30Z</time>
      </trkpt>
      <trkpt lat="45.879940493032336" lon="8.447237340733409">
        <ele>1397.3499999999999</ele>
        <time>2020-09-27T11:29:42Z</time>
      </trkpt>
      <trkpt lat="45.879940241575241" lon="8.447236083447933">
        <ele>1397.22</ele>
        <time>2020-09-27T11:29:57Z</time>
      </trkpt>
      <trkpt lat="45.879939068108797" lon="8.447225270792842">
        <ele>1396.8099999999999</ele>
        <time>2020-09-27T11:29:58Z</time>
      </trkpt>
      <trkpt lat="45.880003022029996" lon="8.44715578481555">
        <ele>1396.78</ele>
        <time>2020-09-27T11:30:05Z</time>
      </trkpt>
      <trkpt lat="45.880205612629652" lon="8.44715578481555">
        <ele>1396.8399999999999</ele>
        <time>2020-09-27T11:30:23Z</time>
      </trkpt>
      <trkpt lat="45.880287922918797" lon="8.447214709594846">
        <ele>1397.1600000000001</ele>
        <time>2020-09-27T11:30:36Z</time>
      </trkpt>
      <trkpt lat="45.880313152447343" lon="8.447178164497018">
        <ele>1396.76</ele>
        <time>2020-09-27T11:30:44Z</time>
      </trkpt>
      <trkpt lat="45.880321450531483" lon="8.447056040167809">
        <ele>1393.95</ele>
        <time>2020-09-27T11:30:55Z</time>
      </trkpt>
      <trkpt lat="45.88032178580761" lon="8.446913966909051">
        <ele>1390.6600000000001</ele>
        <time>2020-09-27T11:31:10Z</time>
      </trkpt>
      <trkpt lat="45.880340980365872" lon="8.446806846186519">
        <ele>1387.76</ele>
        <time>2020-09-27T11:31:23Z</time>
      </trkpt>
      <trkpt lat="45.880375849083066" lon="8.446753118187189">
        <ele>1387.05</ele>
        <time>2020-09-27T11:31:29Z</time>
      </trkpt>
      <trkpt lat="45.880487663671374" lon="8.446654211729765">
        <ele>1383.95</ele>
        <time>2020-09-27T11:31:44Z</time>
      </trkpt>
      <trkpt lat="45.88051968254149" lon="8.446630658581853">
        <ele>1383.25</ele>
        <time>2020-09-27T11:31:48Z</time>
      </trkpt>
      <trkpt lat="45.880587911233306" lon="8.446623450145125">
        <ele>1381.6199999999999</ele>
        <time>2020-09-27T11:31:59Z</time>
      </trkpt>
      <trkpt lat="45.880618840456009" lon="8.446605009958148">
        <ele>1380.98</ele>
        <time>2020-09-27T11:32:03Z</time>
      </trkpt>
      <trkpt lat="45.880676759406924" lon="8.446489423513413">
        <ele>1378.8499999999999</ele>
        <time>2020-09-27T11:32:15Z</time>
      </trkpt>
      <trkpt lat="45.880694193765521" lon="8.446343494579196">
        <ele>1376.45</ele>
        <time>2020-09-27T11:32:29Z</time>
      </trkpt>
      <trkpt lat="45.8806745801121" lon="8.446246180683374">
        <ele>1374.8599999999999</ele>
        <time>2020-09-27T11:32:40Z</time>
      </trkpt>
      <trkpt lat="45.880608027800918" lon="8.446143586188555">
        <ele>1372.3099999999999</ele>
        <time>2020-09-27T11:32:52Z</time>
      </trkpt>
      <trkpt lat="45.88050602003932" lon="8.446076782420278">
        <ele>1369.6400000000001</ele>
        <time>2020-09-27T11:33:05Z</time>
      </trkpt>
      <trkpt lat="45.880428235977888" lon="8.445992628112435">
        <ele>1368.0899999999999</ele>
        <time>2020-09-27T11:33:18Z</time>
      </trkpt>
      <trkpt lat="45.880330083891749" lon="8.445920208469033">
        <ele>1366.0599999999999</ele>
        <time>2020-09-27T11:33:32Z</time>
      </trkpt>
      <trkpt lat="45.880242409184575" lon="8.445844771340489">
        <ele>1363.95</ele>
        <time>2020-09-27T11:33:44Z</time>
      </trkpt>
      <trkpt lat="45.880148028954864" lon="8.445751899853349">
        <ele>1361.4400000000001</ele>
        <time>2020-09-27T11:33:56Z</time>
      </trkpt>
      <trkpt lat="45.88000712916255" lon="8.445640001446009">
        <ele>1359.21</ele>
        <time>2020-09-27T11:34:13Z</time>
      </trkpt>
      <trkpt lat="45.87988156825304" lon="8.445600438863039">
        <ele>1356.4400000000001</ele>
        <time>2020-09-27T11:34:27Z</time>
      </trkpt>
      <trkpt lat="45.879795653745532" lon="8.445567917078733">
        <ele>1354.3</ele>
        <time>2020-09-27T11:34:40Z</time>
      </trkpt>
      <trkpt lat="45.879724239930511" lon="8.445519721135497">
        <ele>1353.02</ele>
        <time>2020-09-27T11:34:49Z</time>
      </trkpt>
      <trkpt lat="45.879643689841032" lon="8.445416623726487">
        <ele>1350.73</ele>
        <time>2020-09-27T11:35:03Z</time>
      </trkpt>
      <trkpt lat="45.87958593852818" lon="8.4453209862113">
        <ele>1347.98</ele>
        <time>2020-09-27T11:35:18Z</time>
      </trkpt>
      <trkpt lat="45.879597505554557" lon="8.445269437506795">
        <ele>1346.52</ele>
        <time>2020-09-27T11:35:30Z</time>
      </trkpt>
      <trkpt lat="45.879667494446039" lon="8.445202382281423">
        <ele>1345.1199999999999</ele>
        <time>2020-09-27T11:35:43Z</time>
      </trkpt>
      <trkpt lat="45.879673110321164" lon="8.445193665102124">
        <ele>1344.9200000000001</ele>
        <time>2020-09-27T11:35:44Z</time>
      </trkpt>
      <trkpt lat="45.879722563549876" lon="8.445095345377922">
        <ele>1342.8099999999999</ele>
        <time>2020-09-27T11:35:54Z</time>
      </trkpt>
      <trkpt lat="45.879799677059054" lon="8.444905579090118">
        <ele>1341.26</ele>
        <time>2020-09-27T11:36:08Z</time>
      </trkpt>
      <trkpt lat="45.879884585738182" lon="8.444704161956906">
        <ele>1339.5</ele>
        <time>2020-09-27T11:36:23Z</time>
      </trkpt>
      <trkpt lat="45.879986761137843" lon="8.444514060392976">
        <ele>1337.3800000000001</ele>
        <time>2020-09-27T11:36:39Z</time>
      </trkpt>
      <trkpt lat="45.880065718665719" lon="8.444335944950581">
        <ele>1335.5</ele>
        <time>2020-09-27T11:36:54Z</time>
      </trkpt>
      <trkpt lat="45.880070077255368" lon="8.444198900833726">
        <ele>1332.1600000000001</ele>
        <time>2020-09-27T11:37:04Z</time>
      </trkpt>
      <trkpt lat="45.880070412531495" lon="8.444007458165288">
        <ele>1329.71</ele>
        <time>2020-09-27T11:37:18Z</time>
      </trkpt>
      <trkpt lat="45.880034789443016" lon="8.443834958598018">
        <ele>1326.76</ele>
        <time>2020-09-27T11:37:33Z</time>
      </trkpt>
      <trkpt lat="45.880030011758208" lon="8.443652400746942">
        <ele>1324.8299999999999</ele>
        <time>2020-09-27T11:37:46Z</time>
      </trkpt>
      <trkpt lat="45.879992125555873" lon="8.443452827632427">
        <ele>1321.77</ele>
        <time>2020-09-27T11:38:01Z</time>
      </trkpt>
      <trkpt lat="45.879978714510798" lon="8.443180834874511">
        <ele>1318.76</ele>
        <time>2020-09-27T11:38:19Z</time>
      </trkpt>
      <trkpt lat="45.880001597106457" lon="8.44299509190023">
        <ele>1316.21</ele>
        <time>2020-09-27T11:38:33Z</time>
      </trkpt>
      <trkpt lat="45.880001429468393" lon="8.442936418578029">
        <ele>1315.4400000000001</ele>
        <time>2020-09-27T11:38:37Z</time>
      </trkpt>
      <trkpt lat="45.879971338436007" lon="8.442736929282546">
        <ele>1313.1800000000001</ele>
        <time>2020-09-27T11:38:52Z</time>
      </trkpt>
      <trkpt lat="45.879963962361217" lon="8.442676244303584">
        <ele>1312.1800000000001</ele>
        <time>2020-09-27T11:38:57Z</time>
      </trkpt>
      <trkpt lat="45.879973266273737" lon="8.442641291767359">
        <ele>1311.3900000000001</ele>
        <time>2020-09-27T11:39:00Z</time>
      </trkpt>
      <trkpt lat="45.879945019260049" lon="8.442475330084562">
        <ele>1309.95</ele>
        <time>2020-09-27T11:39:12Z</time>
      </trkpt>
      <trkpt lat="45.879886597394943" lon="8.442274164408445">
        <ele>1307.55</ele>
        <time>2020-09-27T11:39:27Z</time>
      </trkpt>
      <trkpt lat="45.879884837195277" lon="8.442122368142009">
        <ele>1304.3800000000001</ele>
        <time>2020-09-27T11:39:39Z</time>
      </trkpt>
      <trkpt lat="45.879885256290436" lon="8.441962692886591">
        <ele>1301.3099999999999</ele>
        <time>2020-09-27T11:39:52Z</time>
      </trkpt>
      <trkpt lat="45.879890872165561" lon="8.441842747852206">
        <ele>1298.24</ele>
        <time>2020-09-27T11:40:01Z</time>
      </trkpt>
      <trkpt lat="45.879920711740851" lon="8.441621717065573">
        <ele>1295.5699999999999</ele>
        <time>2020-09-27T11:40:16Z</time>
      </trkpt>
      <trkpt lat="45.879919035360217" lon="8.441609563305974">
        <ele>1295.4100000000001</ele>
        <time>2020-09-27T11:40:17Z</time>
      </trkpt>
      <trkpt lat="45.879907384514809" lon="8.441557260230184">
        <ele>1294.9300000000001</ele>
        <time>2020-09-27T11:40:21Z</time>
      </trkpt>
      <trkpt lat="45.879896823316813" lon="8.441487774252892">
        <ele>1294.78</ele>
        <time>2020-09-27T11:40:35Z</time>
      </trkpt>
      <trkpt lat="45.879896488040686" lon="8.44148769043386">
        <ele>1293.6400000000001</ele>
        <time>2020-09-27T11:40:43Z</time>
      </trkpt>
      <trkpt lat="45.879894057288766" lon="8.441489785909653">
        <ele>1294.8399999999999</ele>
        <time>2020-09-27T11:40:55Z</time>
      </trkpt>
      <trkpt lat="45.8798732701689" lon="8.441432369872928">
        <ele>1291.6400000000001</ele>
        <time>2020-09-27T11:40:59Z</time>
      </trkpt>
      <trkpt lat="45.879865474998951" lon="8.44141585752368">
        <ele>1294.97</ele>
        <time>2020-09-27T11:41:00Z</time>
      </trkpt>
      <trkpt lat="45.879857176914811" lon="8.441400434821844">
        <ele>1294.1199999999999</ele>
        <time>2020-09-27T11:41:01Z</time>
      </trkpt>
      <trkpt lat="45.879766149446368" lon="8.441288536414504">
        <ele>1290.3499999999999</ele>
        <time>2020-09-27T11:41:12Z</time>
      </trkpt>
      <trkpt lat="45.879672775045037" lon="8.441182840615511">
        <ele>1287.04</ele>
        <time>2020-09-27T11:41:22Z</time>
      </trkpt>
      <trkpt lat="45.879597924649715" lon="8.441081671044231">
        <ele>1283.9000000000001</ele>
        <time>2020-09-27T11:41:31Z</time>
      </trkpt>
      <trkpt lat="45.879528354853392" lon="8.440955858677626">
        <ele>1280.8299999999999</ele>
        <time>2020-09-27T11:41:40Z</time>
      </trkpt>
      <trkpt lat="45.879436321556568" lon="8.440804816782475">
        <ele>1277.77</ele>
        <time>2020-09-27T11:41:51Z</time>
      </trkpt>
      <trkpt lat="45.879300031810999" lon="8.440607422962785">
        <ele>1274.53</ele>
        <time>2020-09-27T11:42:06Z</time>
      </trkpt>
      <trkpt lat="45.879154521971941" lon="8.440386978909373">
        <ele>1271.9300000000001</ele>
        <time>2020-09-27T11:42:22Z</time>
      </trkpt>
      <trkpt lat="45.879005324095488" lon="8.440181622281671">
        <ele>1270.55</ele>
        <time>2020-09-27T11:42:38Z</time>
      </trkpt>
      <trkpt lat="45.878969198092818" lon="8.440156308934093">
        <ele>1270.3699999999999</ele>
        <time>2020-09-27T11:42:43Z</time>
      </trkpt>
      <trkpt lat="45.878928797319531" lon="8.440090008080006">
        <ele>1270.1400000000001</ele>
        <time>2020-09-27T11:42:48Z</time>
      </trkpt>
      <trkpt lat="45.878754369914532" lon="8.439896386116743">
        <ele>1267.26</ele>
        <time>2020-09-27T11:43:05Z</time>
      </trkpt>
      <trkpt lat="45.878708604723215" lon="8.439867133274674">
        <ele>1266.5799999999999</ele>
        <time>2020-09-27T11:43:12Z</time>
      </trkpt>
      <trkpt lat="45.878682369366288" lon="8.439824553206563">
        <ele>1265.9100000000001</ele>
        <time>2020-09-27T11:43:17Z</time>
      </trkpt>
      <trkpt lat="45.878622690215707" lon="8.439796306192875">
        <ele>1264.8599999999999</ele>
        <time>2020-09-27T11:43:32Z</time>
      </trkpt>
      <trkpt lat="45.878531159833074" lon="8.439766550436616">
        <ele>1262.47</ele>
        <time>2020-09-27T11:43:44Z</time>
      </trkpt>
      <trkpt lat="45.878484304994345" lon="8.439738554880023">
        <ele>1260.9400000000001</ele>
        <time>2020-09-27T11:43:50Z</time>
      </trkpt>
      <trkpt lat="45.878381039947271" lon="8.43967342749238">
        <ele>1257.51</ele>
        <time>2020-09-27T11:44:03Z</time>
      </trkpt>
      <trkpt lat="45.878316164016724" lon="8.439637888222933">
        <ele>1255.1099999999999</ele>
        <time>2020-09-27T11:44:13Z</time>
      </trkpt>
      <trkpt lat="45.878275847062469" lon="8.43963822349906">
        <ele>1254.3699999999999</ele>
        <time>2020-09-27T11:44:17Z</time>
      </trkpt>
      <trkpt lat="45.878140982240438" lon="8.43959866091609">
        <ele>1251.7</ele>
        <time>2020-09-27T11:44:32Z</time>
      </trkpt>
      <trkpt lat="45.878046182915568" lon="8.439518446102738">
        <ele>1250.4300000000001</ele>
        <time>2020-09-27T11:44:44Z</time>
      </trkpt>
      <trkpt lat="45.877890698611736" lon="8.439370254054666">
        <ele>1249.6400000000001</ele>
        <time>2020-09-27T11:45:00Z</time>
      </trkpt>
      <trkpt lat="45.877773687243462" lon="8.439192054793239">
        <ele>1248.3399999999999</ele>
        <time>2020-09-27T11:45:15Z</time>
      </trkpt>
      <trkpt lat="45.877717612311244" lon="8.438987620174885">
        <ele>1247.05</ele>
        <time>2020-09-27T11:45:30Z</time>
      </trkpt>
      <trkpt lat="45.877647288143635" lon="8.438783520832658">
        <ele>1246.8399999999999</ele>
        <time>2020-09-27T11:45:45Z</time>
      </trkpt>
      <trkpt lat="45.877643516287208" lon="8.438776228576899">
        <ele>1246.8900000000001</ele>
        <time>2020-09-27T11:45:46Z</time>
      </trkpt>
      <trkpt lat="45.877581657841802" lon="8.438652846962214">
        <ele>1245.76</ele>
        <time>2020-09-27T11:45:58Z</time>
      </trkpt>
      <trkpt lat="45.877538658678532" lon="8.438623007386923">
        <ele>1245.3900000000001</ele>
        <time>2020-09-27T11:46:10Z</time>
      </trkpt>
      <trkpt lat="45.877534886822104" lon="8.438632227480412">
        <ele>1245.51</ele>
        <time>2020-09-27T11:46:35Z</time>
      </trkpt>
      <trkpt lat="45.877532288432121" lon="8.438606830313802">
        <ele>1245.2</ele>
        <time>2020-09-27T11:46:38Z</time>
      </trkpt>
      <trkpt lat="45.877505717799067" lon="8.438544804230332">
        <ele>1244.99</ele>
        <time>2020-09-27T11:46:48Z</time>
      </trkpt>
      <trkpt lat="45.877488870173693" lon="8.438527788966894">
        <ele>1244.8499999999999</ele>
        <time>2020-09-27T11:46:50Z</time>
      </trkpt>
      <trkpt lat="45.877475794404745" lon="8.438504906371236">
        <ele>1244.48</ele>
        <time>2020-09-27T11:46:52Z</time>
      </trkpt>
      <trkpt lat="45.877458527684212" lon="8.438455620780587">
        <ele>1244.3099999999999</ele>
        <time>2020-09-27T11:46:57Z</time>
      </trkpt>
      <trkpt lat="45.877395663410425" lon="8.438371047377586">
        <ele>1242.9100000000001</ele>
        <time>2020-09-27T11:47:04Z</time>
      </trkpt>
      <trkpt lat="45.877366745844483" lon="8.438311032950878">
        <ele>1242.4000000000001</ele>
        <time>2020-09-27T11:47:08Z</time>
      </trkpt>
      <trkpt lat="45.877337828278542" lon="8.438284462317824">
        <ele>1241.99</ele>
        <time>2020-09-27T11:47:11Z</time>
      </trkpt>
      <trkpt lat="45.87730010971427" lon="8.438191171735525">
        <ele>1241.1300000000001</ele>
        <time>2020-09-27T11:47:17Z</time>
      </trkpt>
      <trkpt lat="45.877247303724289" lon="8.437948264181614">
        <ele>1238.8699999999999</ele>
        <time>2020-09-27T11:47:31Z</time>
      </trkpt>
      <trkpt lat="45.877167088910937" lon="8.437703093513846">
        <ele>1236.6300000000001</ele>
        <time>2020-09-27T11:47:46Z</time>
      </trkpt>
      <trkpt lat="45.877152504399419" lon="8.437627488747239">
        <ele>1236.1600000000001</ele>
        <time>2020-09-27T11:47:56Z</time>
      </trkpt>
      <trkpt lat="45.877151750028133" lon="8.437627153471112">
        <ele>1236.04</ele>
        <time>2020-09-27T11:47:59Z</time>
      </trkpt>
      <trkpt lat="45.87717454880476" lon="8.437558505684137">
        <ele>1235.74</ele>
        <time>2020-09-27T11:48:04Z</time>
      </trkpt>
      <trkpt lat="45.877152839675546" lon="8.437377288937569">
        <ele>1235.6099999999999</ele>
        <time>2020-09-27T11:48:18Z</time>
      </trkpt>
      <trkpt lat="45.877157114446163" lon="8.437365973368287">
        <ele>1235.8199999999999</ele>
        <time>2020-09-27T11:48:30Z</time>
      </trkpt>
      <trkpt lat="45.877190390601754" lon="8.437297157943249">
        <ele>1235.3800000000001</ele>
        <time>2020-09-27T11:48:36Z</time>
      </trkpt>
      <trkpt lat="45.877184187993407" lon="8.437122646719217">
        <ele>1236.46</ele>
        <time>2020-09-27T11:48:51Z</time>
      </trkpt>
      <trkpt lat="45.877168932929635" lon="8.437096998095512">
        <ele>1236.77</ele>
        <time>2020-09-27T11:48:54Z</time>
      </trkpt>
      <trkpt lat="45.877077905461192" lon="8.436910416930914">
        <ele>1236.52</ele>
        <time>2020-09-27T11:49:09Z</time>
      </trkpt>
      <trkpt lat="45.877067428082228" lon="8.436830705031753">
        <ele>1236.5899999999999</ele>
        <time>2020-09-27T11:49:20Z</time>
      </trkpt>
      <trkpt lat="45.877067847177386" lon="8.436830872669816">
        <ele>1235.98</ele>
        <time>2020-09-27T11:49:35Z</time>
      </trkpt>
      <trkpt lat="45.877057621255517" lon="8.43684277497232">
        <ele>1235.6800000000001</ele>
        <time>2020-09-27T11:49:51Z</time>
      </trkpt>
      <trkpt lat="45.877058962360024" lon="8.4368437808007">
        <ele>1236.45</ele>
        <time>2020-09-27T11:50:05Z</time>
      </trkpt>
      <trkpt lat="45.877066254615784" lon="8.436839170753956">
        <ele>1236.7</ele>
        <time>2020-09-27T11:50:25Z</time>
      </trkpt>
      <trkpt lat="45.877050077542663" lon="8.43683397397399">
        <ele>1236.45</ele>
        <time>2020-09-27T11:50:35Z</time>
      </trkpt>
      <trkpt lat="45.876983189955354" lon="8.43678661622107">
        <ele>1234.95</ele>
        <time>2020-09-27T11:50:47Z</time>
      </trkpt>
      <trkpt lat="45.87698302231729" lon="8.436787538230419">
        <ele>1236.05</ele>
        <time>2020-09-27T11:50:51Z</time>
      </trkpt>
      <trkpt lat="45.876982100307941" lon="8.436787119135261">
        <ele>1235.4400000000001</ele>
        <time>2020-09-27T11:50:53Z</time>
      </trkpt>
      <trkpt lat="45.876941364258528" lon="8.436751076951623">
        <ele>1235.0599999999999</ele>
        <time>2020-09-27T11:51:05Z</time>
      </trkpt>
      <trkpt lat="45.87691311724484" lon="8.436727439984679">
        <ele>1235.95</ele>
        <time>2020-09-27T11:51:17Z</time>
      </trkpt>
      <trkpt lat="45.876913536339998" lon="8.436728110536933">
        <ele>1235.0899999999999</ele>
        <time>2020-09-27T11:51:18Z</time>
      </trkpt>
      <trkpt lat="45.876912362873554" lon="8.436727356165648">
        <ele>1234.4300000000001</ele>
        <time>2020-09-27T11:51:33Z</time>
      </trkpt>
      <trkpt lat="45.876911943778396" lon="8.436717884615064">
        <ele>1234.1099999999999</ele>
        <time>2020-09-27T11:51:49Z</time>
      </trkpt>
      <trkpt lat="45.8768564555794" lon="8.436666000634432">
        <ele>1231.4000000000001</ele>
        <time>2020-09-27T11:52:01Z</time>
      </trkpt>
      <trkpt lat="45.876800213009119" lon="8.436638591811061">
        <ele>1228.8599999999999</ele>
        <time>2020-09-27T11:52:14Z</time>
      </trkpt>
      <trkpt lat="45.876769535243511" lon="8.436648482456803">
        <ele>1227.73</ele>
        <time>2020-09-27T11:52:30Z</time>
      </trkpt>
      <trkpt lat="45.87672796100378" lon="8.436599364504218">
        <ele>1225.8099999999999</ele>
        <time>2020-09-27T11:52:40Z</time>
      </trkpt>
      <trkpt lat="45.876679262146354" lon="8.436524262651801">
        <ele>1223.72</ele>
        <time>2020-09-27T11:52:51Z</time>
      </trkpt>
      <trkpt lat="45.876631485298276" lon="8.436503559350967">
        <ele>1222.0799999999999</ele>
        <time>2020-09-27T11:52:59Z</time>
      </trkpt>
      <trkpt lat="45.876553617417812" lon="8.436488136649132">
        <ele>1219.3699999999999</ele>
        <time>2020-09-27T11:53:11Z</time>
      </trkpt>
      <trkpt lat="45.876523610204458" lon="8.436384368687868">
        <ele>1216.78</ele>
        <time>2020-09-27T11:53:24Z</time>
      </trkpt>
      <trkpt lat="45.876472312957048" lon="8.436328629031777">
        <ele>1215.1800000000001</ele>
        <time>2020-09-27T11:53:39Z</time>
      </trkpt>
      <trkpt lat="45.876393355429173" lon="8.436286048963666">
        <ele>1212.0899999999999</ele>
        <time>2020-09-27T11:53:51Z</time>
      </trkpt>
      <trkpt lat="45.876359576359391" lon="8.436294849961996">
        <ele>1211.2</ele>
        <time>2020-09-27T11:53:55Z</time>
      </trkpt>
      <trkpt lat="45.876278523355722" lon="8.436255706474185">
        <ele>1209.55</ele>
        <time>2020-09-27T11:54:07Z</time>
      </trkpt>
      <trkpt lat="45.87621733546257" lon="8.436257550492883">
        <ele>1207.5999999999999</ele>
        <time>2020-09-27T11:54:17Z</time>
      </trkpt>
      <trkpt lat="45.876172659918666" lon="8.436301723122597">
        <ele>1206.51</ele>
        <time>2020-09-27T11:54:29Z</time>
      </trkpt>
      <trkpt lat="45.876140054315329" lon="8.436327623203397">
        <ele>1206.76</ele>
        <time>2020-09-27T11:54:45Z</time>
      </trkpt>
      <trkpt lat="45.876143323257565" lon="8.436297280713916">
        <ele>1206.02</ele>
        <time>2020-09-27T11:54:54Z</time>
      </trkpt>
      <trkpt lat="45.876088673248887" lon="8.436266016215086">
        <ele>1205.4400000000001</ele>
        <time>2020-09-27T11:55:02Z</time>
      </trkpt>
      <trkpt lat="45.876047015190125" lon="8.436216814443469">
        <ele>1204.9200000000001</ele>
        <time>2020-09-27T11:55:14Z</time>
      </trkpt>
      <trkpt lat="45.876000076532364" lon="8.43611866235733">
        <ele>1203.25</ele>
        <time>2020-09-27T11:55:26Z</time>
      </trkpt>
      <trkpt lat="45.875948360189795" lon="8.436044314876199">
        <ele>1201.8900000000001</ele>
        <time>2020-09-27T11:55:36Z</time>
      </trkpt>
      <trkpt lat="45.875912988558412" lon="8.436010116711259">
        <ele>1201.1700000000001</ele>
        <time>2020-09-27T11:55:41Z</time>
      </trkpt>
      <trkpt lat="45.875888848677278" lon="8.43598673120141">
        <ele>1200.8099999999999</ele>
        <time>2020-09-27T11:55:44Z</time>
      </trkpt>
      <trkpt lat="45.875846771523356" lon="8.435950521379709">
        <ele>1199.6900000000001</ele>
        <time>2020-09-27T11:55:49Z</time>
      </trkpt>
      <trkpt lat="45.875763287767768" lon="8.435932919383049">
        <ele>1199.4200000000001</ele>
        <time>2020-09-27T11:56:04Z</time>
      </trkpt>
      <trkpt lat="45.875733783468604" lon="8.43590660020709">
        <ele>1198.97</ele>
        <time>2020-09-27T11:56:09Z</time>
      </trkpt>
      <trkpt lat="45.875659100711346" lon="8.435823367908597">
        <ele>1196.98</ele>
        <time>2020-09-27T11:56:21Z</time>
      </trkpt>
      <trkpt lat="45.875592213124037" lon="8.435752457007766">
        <ele>1195.98</ele>
        <time>2020-09-27T11:56:33Z</time>
      </trkpt>
      <trkpt lat="45.875539407134056" lon="8.435743572190404">
        <ele>1195.26</ele>
        <time>2020-09-27T11:56:46Z</time>
      </trkpt>
      <trkpt lat="45.875477800145745" lon="8.435661010444164">
        <ele>1193.25</ele>
        <time>2020-09-27T11:56:58Z</time>
      </trkpt>
      <trkpt lat="45.875412840396166" lon="8.435600241646171">
        <ele>1191.5999999999999</ele>
        <time>2020-09-27T11:57:11Z</time>
      </trkpt>
      <trkpt lat="45.87537101469934" lon="8.435523295775056">
        <ele>1190.0899999999999</ele>
        <time>2020-09-27T11:57:22Z</time>
      </trkpt>
      <trkpt lat="45.875333128497005" lon="8.435503095388413">
        <ele>1188.6600000000001</ele>
        <time>2020-09-27T11:57:28Z</time>
      </trkpt>
      <trkpt lat="45.875285854563117" lon="8.4354951325804">
        <ele>1188.1300000000001</ele>
        <time>2020-09-27T11:57:33Z</time>
      </trkpt>
      <trkpt lat="45.875211674720049" lon="8.435427658259869">
        <ele>1186.27</ele>
        <time>2020-09-27T11:57:48Z</time>
      </trkpt>
      <trkpt lat="45.87517605163157" lon="8.435356495901942">
        <ele>1184.3399999999999</ele>
        <time>2020-09-27T11:58:00Z</time>
      </trkpt>
      <trkpt lat="45.875185020267963" lon="8.435297152027488">
        <ele>1182.5</ele>
        <time>2020-09-27T11:58:11Z</time>
      </trkpt>
      <trkpt lat="45.875206729397178" lon="8.435244848951697">
        <ele>1181.1099999999999</ele>
        <time>2020-09-27T11:58:23Z</time>
      </trkpt>
      <trkpt lat="45.875184684991837" lon="8.435233533382416">
        <ele>1180.26</ele>
        <time>2020-09-27T11:58:26Z</time>
      </trkpt>
      <trkpt lat="45.875135231763124" lon="8.435211572796106">
        <ele>1178.5799999999999</ele>
        <time>2020-09-27T11:58:38Z</time>
      </trkpt>
      <trkpt lat="45.875102961435914" lon="8.435124484822154">
        <ele>1176.49</ele>
        <time>2020-09-27T11:58:51Z</time>
      </trkpt>
      <trkpt lat="45.875031044706702" lon="8.435068409889936">
        <ele>1174.6600000000001</ele>
        <time>2020-09-27T11:59:02Z</time>
      </trkpt>
      <trkpt lat="45.874980920925736" lon="8.43507737852633">
        <ele>1173.5699999999999</ele>
        <time>2020-09-27T11:59:12Z</time>
      </trkpt>
      <trkpt lat="45.874951919540763" lon="8.43506371602416">
        <ele>1171.8099999999999</ele>
        <time>2020-09-27T11:59:22Z</time>
      </trkpt>
      <trkpt lat="45.874902717769146" lon="8.435027087107301">
        <ele>1170.1900000000001</ele>
        <time>2020-09-27T11:59:32Z</time>
      </trkpt>
      <trkpt lat="45.874865418300033" lon="8.435011245310307">
        <ele>1168.73</ele>
        <time>2020-09-27T11:59:42Z</time>
      </trkpt>
      <trkpt lat="45.874838847666979" lon="8.434939915314317">
        <ele>1167.1500000000001</ele>
        <time>2020-09-27T11:59:54Z</time>
      </trkpt>
      <trkpt lat="45.874832645058632" lon="8.434940250590444">
        <ele>1167.05</ele>
        <time>2020-09-27T11:59:55Z</time>
      </trkpt>
      <trkpt lat="45.874788053333759" lon="8.434919714927673">
        <ele>1166.1600000000001</ele>
        <time>2020-09-27T12:00:00Z</time>
      </trkpt>
      <trkpt lat="45.874656960368156" lon="8.434818796813488">
        <ele>1163.52</ele>
        <time>2020-09-27T12:00:13Z</time>
      </trkpt>
      <trkpt lat="45.874611446633935" lon="8.434781497344375">
        <ele>1161.99</ele>
        <time>2020-09-27T12:00:18Z</time>
      </trkpt>
      <trkpt lat="45.874511618167162" lon="8.434682004153729">
        <ele>1159.73</ele>
        <time>2020-09-27T12:00:31Z</time>
      </trkpt>
      <trkpt lat="45.874505834653974" lon="8.43467085622251">
        <ele>1159.53</ele>
        <time>2020-09-27T12:00:32Z</time>
      </trkpt>
      <trkpt lat="45.874467780813575" lon="8.434623666107655">
        <ele>1157.3299999999999</ele>
        <time>2020-09-27T12:00:38Z</time>
      </trkpt>
      <trkpt lat="45.874452022835612" lon="8.43461855314672">
        <ele>1157.6900000000001</ele>
        <time>2020-09-27T12:00:52Z</time>
      </trkpt>
      <trkpt lat="45.874456129968166" lon="8.434619642794132">
        <ele>1157.0599999999999</ele>
        <time>2020-09-27T12:01:05Z</time>
      </trkpt>
      <trkpt lat="45.874447412788868" lon="8.434629198163748">
        <ele>1157.73</ele>
        <time>2020-09-27T12:01:42Z</time>
      </trkpt>
      <trkpt lat="45.874440707266331" lon="8.434641771018505">
        <ele>1158.55</ele>
        <time>2020-09-27T12:02:03Z</time>
      </trkpt>
      <trkpt lat="45.874434420838952" lon="8.434623330831528">
        <ele>1158.8599999999999</ele>
        <time>2020-09-27T12:02:20Z</time>
      </trkpt>
      <trkpt lat="45.874349847435951" lon="8.434553509578109">
        <ele>1156.8299999999999</ele>
        <time>2020-09-27T12:02:34Z</time>
      </trkpt>
      <trkpt lat="45.874276757240295" lon="8.434440102428198">
        <ele>1155.03</ele>
        <time>2020-09-27T12:02:47Z</time>
      </trkpt>
      <trkpt lat="45.874243983998895" lon="8.43436349183321">
        <ele>1154.3299999999999</ele>
        <time>2020-09-27T12:02:56Z</time>
      </trkpt>
      <trkpt lat="45.874162763357162" lon="8.43419736251235">
        <ele>1153.1900000000001</ele>
        <time>2020-09-27T12:03:10Z</time>
      </trkpt>
      <trkpt lat="45.874131247401237" lon="8.434115722775459">
        <ele>1153.0799999999999</ele>
        <time>2020-09-27T12:03:26Z</time>
      </trkpt>
      <trkpt lat="45.874143317341805" lon="8.434114884585142">
        <ele>1153.01</ele>
        <time>2020-09-27T12:03:48Z</time>
      </trkpt>
      <trkpt lat="45.874117417261004" lon="8.434075322002173">
        <ele>1153.02</ele>
        <time>2020-09-27T12:03:53Z</time>
      </trkpt>
      <trkpt lat="45.874073915183544" lon="8.434020588174462">
        <ele>1152.26</ele>
        <time>2020-09-27T12:03:58Z</time>
      </trkpt>
      <trkpt lat="45.874026389792562" lon="8.433997789397836">
        <ele>1151.95</ele>
        <time>2020-09-27T12:04:02Z</time>
      </trkpt>
      <trkpt lat="45.873955646529794" lon="8.433988317847252">
        <ele>1151.25</ele>
        <time>2020-09-27T12:04:09Z</time>
      </trkpt>
      <trkpt lat="45.873884819447994" lon="8.433996113017201">
        <ele>1150.0999999999999</ele>
        <time>2020-09-27T12:04:15Z</time>
      </trkpt>
      <trkpt lat="45.873786918818951" lon="8.433981025591493">
        <ele>1147.8099999999999</ele>
        <time>2020-09-27T12:04:27Z</time>
      </trkpt>
      <trkpt lat="45.873772418126464" lon="8.433971973136067">
        <ele>1147.21</ele>
        <time>2020-09-27T12:04:29Z</time>
      </trkpt>
      <trkpt lat="45.873746266588569" lon="8.433957388624549">
        <ele>1146.5</ele>
        <time>2020-09-27T12:04:32Z</time>
      </trkpt>
      <trkpt lat="45.873578963801265" lon="8.43383576720953">
        <ele>1143.1300000000001</ele>
        <time>2020-09-27T12:04:47Z</time>
      </trkpt>
      <trkpt lat="45.873461030423641" lon="8.433770053088665">
        <ele>1141.3599999999999</ele>
        <time>2020-09-27T12:04:58Z</time>
      </trkpt>
      <trkpt lat="45.873433537781239" lon="8.43370676971972">
        <ele>1140.4100000000001</ele>
        <time>2020-09-27T12:05:03Z</time>
      </trkpt>
      <trkpt lat="45.873297331854701" lon="8.433672990649939">
        <ele>1138.1300000000001</ele>
        <time>2020-09-27T12:05:15Z</time>
      </trkpt>
      <trkpt lat="45.873165652155876" lon="8.433691347017884">
        <ele>1136.2</ele>
        <time>2020-09-27T12:05:27Z</time>
      </trkpt>
      <trkpt lat="45.873089963570237" lon="8.433716576546431">
        <ele>1133.02</ele>
        <time>2020-09-27T12:05:37Z</time>
      </trkpt>
      <trkpt lat="45.873048808425665" lon="8.433709116652608">
        <ele>1131.4100000000001</ele>
        <time>2020-09-27T12:05:41Z</time>
      </trkpt>
      <trkpt lat="45.872927438467741" lon="8.433749685063958">
        <ele>1128.53</ele>
        <time>2020-09-27T12:05:53Z</time>
      </trkpt>
      <trkpt lat="45.872882260009646" lon="8.433726634830236">
        <ele>1126.4400000000001</ele>
        <time>2020-09-27T12:06:00Z</time>
      </trkpt>
      <trkpt lat="45.872823502868414" lon="8.433656310662627">
        <ele>1123.46</ele>
        <time>2020-09-27T12:06:11Z</time>
      </trkpt>
      <trkpt lat="45.872802380472422" lon="8.433643067255616">
        <ele>1122.6700000000001</ele>
        <time>2020-09-27T12:06:14Z</time>
      </trkpt>
      <trkpt lat="45.872770780697465" lon="8.433637199923396">
        <ele>1121.6600000000001</ele>
        <time>2020-09-27T12:06:17Z</time>
      </trkpt>
      <trkpt lat="45.872699366882443" lon="8.433579951524735">
        <ele>1119.3299999999999</ele>
        <time>2020-09-27T12:06:28Z</time>
      </trkpt>
      <trkpt lat="45.872678998857737" lon="8.433562936261296">
        <ele>1118.5699999999999</ele>
        <time>2020-09-27T12:06:31Z</time>
      </trkpt>
      <trkpt lat="45.872611859813333" lon="8.433500239625573">
        <ele>1116.6199999999999</ele>
        <time>2020-09-27T12:06:42Z</time>
      </trkpt>
      <trkpt lat="45.872600292786956" lon="8.433503676205874">
        <ele>1116.24</ele>
        <time>2020-09-27T12:06:53Z</time>
      </trkpt>
      <trkpt lat="45.872590988874435" lon="8.433513985946775">
        <ele>1115.6600000000001</ele>
        <time>2020-09-27T12:07:05Z</time>
      </trkpt>
      <trkpt lat="45.872558047994971" lon="8.433511890470982">
        <ele>1113.5999999999999</ele>
        <time>2020-09-27T12:07:14Z</time>
      </trkpt>
      <trkpt lat="45.872453358024359" lon="8.433438129723072">
        <ele>1111.0599999999999</ele>
        <time>2020-09-27T12:07:28Z</time>
      </trkpt>
      <trkpt lat="45.872398037463427" lon="8.433441901579499">
        <ele>1109.72</ele>
        <time>2020-09-27T12:07:38Z</time>
      </trkpt>
      <trkpt lat="45.872358055785298" lon="8.433456821367145">
        <ele>1107.9000000000001</ele>
        <time>2020-09-27T12:07:48Z</time>
      </trkpt>
      <trkpt lat="45.872268956154585" lon="8.433411894366145">
        <ele>1105.9000000000001</ele>
        <time>2020-09-27T12:08:01Z</time>
      </trkpt>
      <trkpt lat="45.872229728847742" lon="8.433358417823911">
        <ele>1103.9000000000001</ele>
        <time>2020-09-27T12:08:13Z</time>
      </trkpt>
      <trkpt lat="45.872181365266442" lon="8.433304689824581">
        <ele>1101.53</ele>
        <time>2020-09-27T12:08:25Z</time>
      </trkpt>
      <trkpt lat="45.872147502377629" lon="8.433275856077671">
        <ele>1099.9400000000001</ele>
        <time>2020-09-27T12:08:35Z</time>
      </trkpt>
      <trkpt lat="45.872115902602673" lon="8.433277951553464">
        <ele>1098.3099999999999</ele>
        <time>2020-09-27T12:08:50Z</time>
      </trkpt>
      <trkpt lat="45.872075334191322" lon="8.433277364820242">
        <ele>1096.3299999999999</ele>
        <time>2020-09-27T12:09:01Z</time>
      </trkpt>
      <trkpt lat="45.872055133804679" lon="8.433245681226254">
        <ele>1094.95</ele>
        <time>2020-09-27T12:09:11Z</time>
      </trkpt>
      <trkpt lat="45.872032586485147" lon="8.433257918804884">
        <ele>1093.75</ele>
        <time>2020-09-27T12:09:23Z</time>
      </trkpt>
      <trkpt lat="45.871995203197002" lon="8.433279125019908">
        <ele>1091.95</ele>
        <time>2020-09-27T12:09:33Z</time>
      </trkpt>
      <trkpt lat="45.871935691684484" lon="8.433290021494031">
        <ele>1088.9000000000001</ele>
        <time>2020-09-27T12:09:45Z</time>
      </trkpt>
      <trkpt lat="45.871900906786323" lon="8.4332415740937">
        <ele>1086.8800000000001</ele>
        <time>2020-09-27T12:09:56Z</time>
      </trkpt>
      <trkpt lat="45.871843993663788" lon="8.43317124992609">
        <ele>1084.4100000000001</ele>
        <time>2020-09-27T12:10:08Z</time>
      </trkpt>
      <trkpt lat="45.87179571390152" lon="8.433131519705057">
        <ele>1082.9400000000001</ele>
        <time>2020-09-27T12:10:19Z</time>
      </trkpt>
      <trkpt lat="45.871773585677147" lon="8.433122634887695">
        <ele>1081.3</ele>
        <time>2020-09-27T12:10:32Z</time>
      </trkpt>
      <trkpt lat="45.871759001165628" lon="8.433115342631936">
        <ele>1080.9400000000001</ele>
        <time>2020-09-27T12:10:47Z</time>
      </trkpt>
      <trkpt lat="45.87172145023942" lon="8.433134537190199">
        <ele>1079.0999999999999</ele>
        <time>2020-09-27T12:11:02Z</time>
      </trkpt>
      <trkpt lat="45.871663866564631" lon="8.43314727768302">
        <ele>1076.98</ele>
        <time>2020-09-27T12:11:13Z</time>
      </trkpt>
      <trkpt lat="45.871601086109877" lon="8.43308768235147">
        <ele>1074.5699999999999</ele>
        <time>2020-09-27T12:11:27Z</time>
      </trkpt>
      <trkpt lat="45.871538557112217" lon="8.433104865252972">
        <ele>1072.76</ele>
        <time>2020-09-27T12:11:36Z</time>
      </trkpt>
      <trkpt lat="45.871491869911551" lon="8.433118108659983">
        <ele>1071.9200000000001</ele>
        <time>2020-09-27T12:11:45Z</time>
      </trkpt>
      <trkpt lat="45.871416516602039" lon="8.433109978213906">
        <ele>1069.6700000000001</ele>
        <time>2020-09-27T12:11:56Z</time>
      </trkpt>
      <trkpt lat="45.871359016746283" lon="8.433083072304726">
        <ele>1067.8699999999999</ele>
        <time>2020-09-27T12:12:08Z</time>
      </trkpt>
      <trkpt lat="45.871322136372328" lon="8.433065805584192">
        <ele>1066.71</ele>
        <time>2020-09-27T12:12:19Z</time>
      </trkpt>
      <trkpt lat="45.871296487748623" lon="8.433050131425262">
        <ele>1065.1600000000001</ele>
        <time>2020-09-27T12:12:30Z</time>
      </trkpt>
      <trkpt lat="45.871241586282849" lon="8.433025656268001">
        <ele>1062.77</ele>
        <time>2020-09-27T12:12:44Z</time>
      </trkpt>
      <trkpt lat="45.87121719494462" lon="8.433007467538118">
        <ele>1061.3499999999999</ele>
        <time>2020-09-27T12:12:56Z</time>
      </trkpt>
      <trkpt lat="45.871193893253803" lon="8.433018950745463">
        <ele>1059.73</ele>
        <time>2020-09-27T12:13:08Z</time>
      </trkpt>
      <trkpt lat="45.871183248236775" lon="8.433048790320754">
        <ele>1058.71</ele>
        <time>2020-09-27T12:13:21Z</time>
      </trkpt>
      <trkpt lat="45.871180398389697" lon="8.433062788099051">
        <ele>1058.27</ele>
        <time>2020-09-27T12:13:34Z</time>
      </trkpt>
      <trkpt lat="45.871173944324255" lon="8.433072427287698">
        <ele>1057.6400000000001</ele>
        <time>2020-09-27T12:13:51Z</time>
      </trkpt>
      <trkpt lat="45.871165646240115" lon="8.433075696229935">
        <ele>1057.54</ele>
        <time>2020-09-27T12:14:03Z</time>
      </trkpt>
      <trkpt lat="45.871146870777011" lon="8.433075780048966">
        <ele>1056.27</ele>
        <time>2020-09-27T12:14:21Z</time>
      </trkpt>
      <trkpt lat="45.871136644855142" lon="8.433073768392205">
        <ele>1055.76</ele>
        <time>2020-09-27T12:14:34Z</time>
      </trkpt>
      <trkpt lat="45.871128095313907" lon="8.433071337640286">
        <ele>1055.4000000000001</ele>
        <time>2020-09-27T12:14:51Z</time>
      </trkpt>
      <trkpt lat="45.871115019544959" lon="8.433072762563825">
        <ele>1054.29</ele>
        <time>2020-09-27T12:15:07Z</time>
      </trkpt>
      <trkpt lat="45.871097836643457" lon="8.433055076748133">
        <ele>1053.6199999999999</ele>
        <time>2020-09-27T12:15:26Z</time>
      </trkpt>
      <trkpt lat="45.871097082272172" lon="8.433048706501722">
        <ele>1052.9000000000001</ele>
        <time>2020-09-27T12:15:37Z</time>
      </trkpt>
      <trkpt lat="45.87109942920506" lon="8.433047533035278">
        <ele>1052.1800000000001</ele>
        <time>2020-09-27T12:15:55Z</time>
      </trkpt>
      <trkpt lat="45.871101105585694" lon="8.433051640167832">
        <ele>1052.52</ele>
        <time>2020-09-27T12:16:13Z</time>
      </trkpt>
      <trkpt lat="45.871106553822756" lon="8.433041581884027">
        <ele>1053.6099999999999</ele>
        <time>2020-09-27T12:16:31Z</time>
      </trkpt>
      <trkpt lat="45.87109942920506" lon="8.433053316548467">
        <ele>1053.97</ele>
        <time>2020-09-27T12:16:46Z</time>
      </trkpt>
      <trkpt lat="45.871101357042789" lon="8.433050801977515">
        <ele>1053.49</ele>
        <time>2020-09-27T12:16:59Z</time>
      </trkpt>
      <trkpt lat="45.87107939645648" lon="8.433064045384526">
        <ele>1052.4000000000001</ele>
        <time>2020-09-27T12:17:09Z</time>
      </trkpt>
      <trkpt lat="45.871057938784361" lon="8.433059854432941">
        <ele>1050.6199999999999</ele>
        <time>2020-09-27T12:17:21Z</time>
      </trkpt>
      <trkpt lat="45.871011419221759" lon="8.433075025677681">
        <ele>1048.9300000000001</ele>
        <time>2020-09-27T12:17:32Z</time>
      </trkpt>
      <trkpt lat="45.870991721749306" lon="8.43308768235147">
        <ele>1047.77</ele>
        <time>2020-09-27T12:17:46Z</time>
      </trkpt>
      <trkpt lat="45.870964480563998" lon="8.433096064254642">
        <ele>1046.76</ele>
        <time>2020-09-27T12:18:06Z</time>
      </trkpt>
      <trkpt lat="45.870912345126271" lon="8.433121712878346">
        <ele>1043.9400000000001</ele>
        <time>2020-09-27T12:18:22Z</time>
      </trkpt>
      <trkpt lat="45.870868172496557" lon="8.433146690949798">
        <ele>1042.1800000000001</ele>
        <time>2020-09-27T12:18:34Z</time>
      </trkpt>
      <trkpt lat="45.870814276859164" lon="8.433139398694038">
        <ele>1040.2</ele>
        <time>2020-09-27T12:18:47Z</time>
      </trkpt>
      <trkpt lat="45.870800279080868" lon="8.433147361502051">
        <ele>1039.52</ele>
        <time>2020-09-27T12:19:00Z</time>
      </trkpt>
      <trkpt lat="45.870789382606745" lon="8.433144595474005">
        <ele>1038.7</ele>
        <time>2020-09-27T12:19:11Z</time>
      </trkpt>
      <trkpt lat="45.870774714276195" lon="8.433120120316744">
        <ele>1036.99</ele>
        <time>2020-09-27T12:19:23Z</time>
      </trkpt>
      <trkpt lat="45.870741438120604" lon="8.433110816404223">
        <ele>1035.29</ele>
        <time>2020-09-27T12:19:40Z</time>
      </trkpt>
      <trkpt lat="45.870697852224112" lon="8.433075277134776">
        <ele>1033.3599999999999</ele>
        <time>2020-09-27T12:19:52Z</time>
      </trkpt>
      <trkpt lat="45.870644291862845" lon="8.433021465316415">
        <ele>1031.3199999999999</ele>
        <time>2020-09-27T12:20:06Z</time>
      </trkpt>
      <trkpt lat="45.870610345155001" lon="8.432982070371509">
        <ele>1029.6600000000001</ele>
        <time>2020-09-27T12:20:19Z</time>
      </trkpt>
      <trkpt lat="45.870570279657841" lon="8.432948542758822">
        <ele>1028.21</ele>
        <time>2020-09-27T12:20:29Z</time>
      </trkpt>
      <trkpt lat="45.870530046522617" lon="8.432969581335783">
        <ele>1026.54</ele>
        <time>2020-09-27T12:20:40Z</time>
      </trkpt>
      <trkpt lat="45.870482604950666" lon="8.432960864156485">
        <ele>1024.8399999999999</ele>
        <time>2020-09-27T12:20:51Z</time>
      </trkpt>
      <trkpt lat="45.870470451191068" lon="8.432948291301727">
        <ele>1024.3099999999999</ele>
        <time>2020-09-27T12:20:54Z</time>
      </trkpt>
      <trkpt lat="45.870375065132976" lon="8.432909231632948">
        <ele>1021.92</ele>
        <time>2020-09-27T12:21:06Z</time>
      </trkpt>
      <trkpt lat="45.87031471543014" lon="8.432822730392218">
        <ele>1019.61</ele>
        <time>2020-09-27T12:21:17Z</time>
      </trkpt>
      <trkpt lat="45.870281858369708" lon="8.432772103697062">
        <ele>1018.98</ele>
        <time>2020-09-27T12:21:22Z</time>
      </trkpt>
      <trkpt lat="45.870179431512952" lon="8.432713598012924">
        <ele>1018.3200000000001</ele>
        <time>2020-09-27T12:21:35Z</time>
      </trkpt>
      <trkpt lat="45.870151100680232" lon="8.432704042643309">
        <ele>1017.99</ele>
        <time>2020-09-27T12:21:38Z</time>
      </trkpt>
      <trkpt lat="45.870026294142008" lon="8.432660959661007">
        <ele>1016.9</ele>
        <time>2020-09-27T12:21:53Z</time>
      </trkpt>
      <trkpt lat="45.869997628033161" lon="8.432667581364512">
        <ele>1016.7</ele>
        <time>2020-09-27T12:21:56Z</time>
      </trkpt>
      <trkpt lat="45.869895620271564" lon="8.432624498382211">
        <ele>1015.65</ele>
        <time>2020-09-27T12:22:07Z</time>
      </trkpt>
      <trkpt lat="45.869765365496278" lon="8.43263816088438">
        <ele>1014.26</ele>
        <time>2020-09-27T12:22:22Z</time>
      </trkpt>
      <trkpt lat="45.86969462223351" lon="8.432623827829957">
        <ele>1013.28</ele>
        <time>2020-09-27T12:22:33Z</time>
      </trkpt>
      <trkpt lat="45.869676684960723" lon="8.432549480348826">
        <ele>1011.22</ele>
        <time>2020-09-27T12:22:47Z</time>
      </trkpt>
      <trkpt lat="45.869642570614815" lon="8.432490890845656">
        <ele>1009.21</ele>
        <time>2020-09-27T12:22:56Z</time>
      </trkpt>
      <trkpt lat="45.869570737704635" lon="8.432409837841988">
        <ele>1007.1</ele>
        <time>2020-09-27T12:23:11Z</time>
      </trkpt>
      <trkpt lat="45.869554309174418" lon="8.4323107637465">
        <ele>1004.8099999999999</ele>
        <time>2020-09-27T12:23:24Z</time>
      </trkpt>
      <trkpt lat="45.869501670822501" lon="8.432284696027637">
        <ele>1002.52</ele>
        <time>2020-09-27T12:23:36Z</time>
      </trkpt>
      <trkpt lat="45.869468310847878" lon="8.432254688814282">
        <ele>1001.55</ele>
        <time>2020-09-27T12:23:41Z</time>
      </trkpt>
      <trkpt lat="45.869392789900303" lon="8.432175647467375">
        <ele>999.73000000000002</ele>
        <time>2020-09-27T12:23:55Z</time>
      </trkpt>
      <trkpt lat="45.869324477389455" lon="8.43209819868207">
        <ele>997.41999999999996</ele>
        <time>2020-09-27T12:24:09Z</time>
      </trkpt>
      <trkpt lat="45.869294134899974" lon="8.432075651362538">
        <ele>996.69000000000005</ele>
        <time>2020-09-27T12:24:14Z</time>
      </trkpt>
      <trkpt lat="45.869238646700978" lon="8.43204053118825">
        <ele>996.00999999999999</ele>
        <time>2020-09-27T12:24:26Z</time>
      </trkpt>
      <trkpt lat="45.869190702214837" lon="8.43199166469276">
        <ele>994.54999999999995</ele>
        <time>2020-09-27T12:24:40Z</time>
      </trkpt>
      <trkpt lat="45.869154157117009" lon="8.432002561166883">
        <ele>992.75999999999999</ele>
        <time>2020-09-27T12:24:53Z</time>
      </trkpt>
      <trkpt lat="45.869127586483955" lon="8.431997029110789">
        <ele>991.29999999999995</ele>
        <time>2020-09-27T12:25:07Z</time>
      </trkpt>
      <trkpt lat="45.869100010022521" lon="8.431967440992594">
        <ele>989.79999999999995</ele>
        <time>2020-09-27T12:25:20Z</time>
      </trkpt>
      <trkpt lat="45.869054328650236" lon="8.431940535083413">
        <ele>988.79999999999995</ele>
        <time>2020-09-27T12:25:32Z</time>
      </trkpt>
      <trkpt lat="45.869018286466599" lon="8.431907594203949">
        <ele>988</ele>
        <time>2020-09-27T12:25:37Z</time>
      </trkpt>
      <trkpt lat="45.868963971734047" lon="8.431895691901445">
        <ele>987.58000000000004</ele>
        <time>2020-09-27T12:25:50Z</time>
      </trkpt>
      <trkpt lat="45.868919882923365" lon="8.431853111833334">
        <ele>986.13999999999999</ele>
        <time>2020-09-27T12:26:01Z</time>
      </trkpt>
      <trkpt lat="45.868854336440563" lon="8.431806759908795">
        <ele>985.42999999999995</ele>
        <time>2020-09-27T12:26:13Z</time>
      </trkpt>
      <trkpt lat="45.868775798007846" lon="8.431724198162556">
        <ele>983.60000000000002</ele>
        <time>2020-09-27T12:26:26Z</time>
      </trkpt>
      <trkpt lat="45.86869927123189" lon="8.431644653901458">
        <ele>981.88</ele>
        <time>2020-09-27T12:26:39Z</time>
      </trkpt>
      <trkpt lat="45.868638334795833" lon="8.431606013327837">
        <ele>981.10000000000002</ele>
        <time>2020-09-27T12:26:51Z</time>
      </trkpt>
      <trkpt lat="45.868565915152431" lon="8.431577933952212">
        <ele>979.58000000000004</ele>
        <time>2020-09-27T12:27:03Z</time>
      </trkpt>
      <trkpt lat="45.868480671197176" lon="8.43156024813652">
        <ele>977.08000000000004</ele>
        <time>2020-09-27T12:27:16Z</time>
      </trkpt>
      <trkpt lat="45.8684500772506" lon="8.431549435481429">
        <ele>976.64999999999998</ele>
        <time>2020-09-27T12:27:19Z</time>
      </trkpt>
      <trkpt lat="45.868341950699687" lon="8.431513644754887">
        <ele>974.90999999999997</ele>
        <time>2020-09-27T12:27:34Z</time>
      </trkpt>
      <trkpt lat="45.868324348703027" lon="8.431523283943534">
        <ele>974.33000000000004</ele>
        <time>2020-09-27T12:27:37Z</time>
      </trkpt>
      <trkpt lat="45.868296520784497" lon="8.431528564542532">
        <ele>973.58000000000004</ele>
        <time>2020-09-27T12:27:40Z</time>
      </trkpt>
      <trkpt lat="45.868249079212546" lon="8.431511214002967">
        <ele>972.69000000000005</ele>
        <time>2020-09-27T12:27:45Z</time>
      </trkpt>
      <trkpt lat="45.868138941004872" lon="8.431475004181266">
        <ele>970.75</ele>
        <time>2020-09-27T12:27:58Z</time>
      </trkpt>
      <trkpt lat="45.868124607950449" lon="8.431463185697794">
        <ele>970.65999999999997</ele>
        <time>2020-09-27T12:28:00Z</time>
      </trkpt>
      <trkpt lat="45.868061073124409" lon="8.431418091058731">
        <ele>969.49000000000001</ele>
        <time>2020-09-27T12:28:14Z</time>
      </trkpt>
      <trkpt lat="45.868028467521071" lon="8.431407697498798">
        <ele>968.00999999999999</ele>
        <time>2020-09-27T12:28:27Z</time>
      </trkpt>
      <trkpt lat="45.867975493893027" lon="8.431408703327179">
        <ele>966.58000000000004</ele>
        <time>2020-09-27T12:28:37Z</time>
      </trkpt>
      <trkpt lat="45.867977840825915" lon="8.431407026946545">
        <ele>966.09000000000003</ele>
        <time>2020-09-27T12:28:54Z</time>
      </trkpt>
      <trkpt lat="45.86795068345964" lon="8.431411972269416">
        <ele>966.09000000000003</ele>
        <time>2020-09-27T12:28:59Z</time>
      </trkpt>
      <trkpt lat="45.867858482524753" lon="8.431359753012657">
        <ele>964.46000000000004</ele>
        <time>2020-09-27T12:29:11Z</time>
      </trkpt>
      <trkpt lat="45.86775035597384" lon="8.431267300620675">
        <ele>962.54999999999995</ele>
        <time>2020-09-27T12:29:25Z</time>
      </trkpt>
      <trkpt lat="45.867658071219921" lon="8.431195300072432">
        <ele>960.48000000000002</ele>
        <time>2020-09-27T12:29:39Z</time>
      </trkpt>
      <trkpt lat="45.867592440918088" lon="8.431168561801314">
        <ele>958.96000000000004</ele>
        <time>2020-09-27T12:29:49Z</time>
      </trkpt>
      <trkpt lat="45.867563858628273" lon="8.431151630356908">
        <ele>958.13</ele>
        <time>2020-09-27T12:29:52Z</time>
      </trkpt>
      <trkpt lat="45.867509627714753" lon="8.431090107187629">
        <ele>957.22000000000003</ele>
        <time>2020-09-27T12:30:03Z</time>
      </trkpt>
      <trkpt lat="45.867466041818261" lon="8.431011065840721">
        <ele>955.76999999999998</ele>
        <time>2020-09-27T12:30:13Z</time>
      </trkpt>
      <trkpt lat="45.867393538355827" lon="8.430872680619359">
        <ele>954.16999999999996</ele>
        <time>2020-09-27T12:30:26Z</time>
      </trkpt>
      <trkpt lat="45.867352467030287" lon="8.430749299004674">
        <ele>953.16999999999996</ele>
        <time>2020-09-27T12:30:38Z</time>
      </trkpt>
      <trkpt lat="45.867346180602908" lon="8.430716525763273">
        <ele>952.63</ele>
        <time>2020-09-27T12:30:49Z</time>
      </trkpt>
      <trkpt lat="45.867347521707416" lon="8.430678891018033">
        <ele>951.58000000000004</ele>
        <time>2020-09-27T12:31:02Z</time>
      </trkpt>
      <trkpt lat="45.867323465645313" lon="8.430602950975299">
        <ele>948.69000000000005</ele>
        <time>2020-09-27T12:31:13Z</time>
      </trkpt>
      <trkpt lat="45.867262613028288" lon="8.430535811930895">
        <ele>946.13</ele>
        <time>2020-09-27T12:31:26Z</time>
      </trkpt>
      <trkpt lat="45.867207963019609" lon="8.430427182465792">
        <ele>943.37</ele>
        <time>2020-09-27T12:31:39Z</time>
      </trkpt>
      <trkpt lat="45.86716940626502" lon="8.430351912975311">
        <ele>941.52999999999997</ele>
        <time>2020-09-27T12:31:50Z</time>
      </trkpt>
      <trkpt lat="45.867161191999912" lon="8.430332131683826">
        <ele>941.23000000000002</ele>
        <time>2020-09-27T12:31:52Z</time>
      </trkpt>
      <trkpt lat="45.867147613316774" lon="8.430295838043094">
        <ele>941.07000000000005</ele>
        <time>2020-09-27T12:31:55Z</time>
      </trkpt>
      <trkpt lat="45.867067398503423" lon="8.430097857490182">
        <ele>939.84000000000003</ele>
        <time>2020-09-27T12:32:10Z</time>
      </trkpt>
      <trkpt lat="45.867061950266361" lon="8.430044883862138">
        <ele>939.45000000000005</ele>
        <time>2020-09-27T12:32:14Z</time>
      </trkpt>
      <trkpt lat="45.867063207551837" lon="8.42991890385747">
        <ele>938.03999999999996</ele>
        <time>2020-09-27T12:32:28Z</time>
      </trkpt>
      <trkpt lat="45.867032362148166" lon="8.429830558598042">
        <ele>936.22000000000003</ele>
        <time>2020-09-27T12:32:41Z</time>
      </trkpt>
      <trkpt lat="45.866989195346832" lon="8.429703824222088">
        <ele>934.86000000000001</ele>
        <time>2020-09-27T12:32:53Z</time>
      </trkpt>
      <trkpt lat="45.866965055465698" lon="8.429654957726598">
        <ele>934.25999999999999</ele>
        <time>2020-09-27T12:33:03Z</time>
      </trkpt>
      <trkpt lat="45.866946782916784" lon="8.429570384323597">
        <ele>932.60000000000002</ele>
        <time>2020-09-27T12:33:16Z</time>
      </trkpt>
      <trkpt lat="45.866946950554848" lon="8.429520344361663">
        <ele>931.48000000000002</ele>
        <time>2020-09-27T12:33:29Z</time>
      </trkpt>
      <trkpt lat="45.866943849250674" lon="8.429479189217091">
        <ele>930.75999999999999</ele>
        <time>2020-09-27T12:33:42Z</time>
      </trkpt>
      <trkpt lat="45.866915937513113" lon="8.429416324943304">
        <ele>928.88</ele>
        <time>2020-09-27T12:33:53Z</time>
      </trkpt>
      <trkpt lat="45.866903783753514" lon="8.429339714348316">
        <ele>926.75</ele>
        <time>2020-09-27T12:34:05Z</time>
      </trkpt>
      <trkpt lat="45.86689087562263" lon="8.429292188957334">
        <ele>925.75</ele>
        <time>2020-09-27T12:34:18Z</time>
      </trkpt>
      <trkpt lat="45.866869585588574" lon="8.42924801632762">
        <ele>923.88999999999999</ele>
        <time>2020-09-27T12:34:30Z</time>
      </trkpt>
      <trkpt lat="45.866851145401597" lon="8.429209878668189">
        <ele>922.38999999999999</ele>
        <time>2020-09-27T12:34:41Z</time>
      </trkpt>
      <trkpt lat="45.866816947236657" lon="8.429156318306923">
        <ele>919.88999999999999</ele>
        <time>2020-09-27T12:34:53Z</time>
      </trkpt>
      <trkpt lat="45.866807224228978" lon="8.429079037159681">
        <ele>918.05999999999995</ele>
        <time>2020-09-27T12:35:07Z</time>
      </trkpt>
      <trkpt lat="45.866776211187243" lon="8.429049616679549">
        <ele>916.94000000000005</ele>
        <time>2020-09-27T12:35:19Z</time>
      </trkpt>
      <trkpt lat="45.866753915324807" lon="8.428970407694578">
        <ele>914.88999999999999</ele>
        <time>2020-09-27T12:35:31Z</time>
      </trkpt>
      <trkpt lat="45.866734720766544" lon="8.428871752694249">
        <ele>912.64999999999998</ele>
        <time>2020-09-27T12:35:42Z</time>
      </trkpt>
      <trkpt lat="45.866686524823308" lon="8.428761111572385">
        <ele>909.87</ele>
        <time>2020-09-27T12:35:57Z</time>
      </trkpt>
      <trkpt lat="45.866673616692424" lon="8.428705791011453">
        <ele>908.70000000000005</ele>
        <time>2020-09-27T12:36:08Z</time>
      </trkpt>
      <trkpt lat="45.866686273366213" lon="8.42864359728992">
        <ele>907.26999999999998</ele>
        <time>2020-09-27T12:36:22Z</time>
      </trkpt>
      <trkpt lat="45.866693649441004" lon="8.428592383861542">
        <ele>906.05999999999995</ele>
        <time>2020-09-27T12:36:32Z</time>
      </trkpt>
      <trkpt lat="45.866703959181905" lon="8.428538823500276">
        <ele>904.69000000000005</ele>
        <time>2020-09-27T12:36:42Z</time>
      </trkpt>
      <trkpt lat="45.866685854271054" lon="8.428474701941013">
        <ele>902.5</ele>
        <time>2020-09-27T12:36:55Z</time>
      </trkpt>
      <trkpt lat="45.866649309173226" lon="8.428407311439514">
        <ele>900.40999999999997</ele>
        <time>2020-09-27T12:37:08Z</time>
      </trkpt>
      <trkpt lat="45.866630198433995" lon="8.42833623290062">
        <ele>898.02999999999997</ele>
        <time>2020-09-27T12:37:21Z</time>
      </trkpt>
      <trkpt lat="45.866614691913128" lon="8.428246043622494">
        <ele>895.41999999999996</ele>
        <time>2020-09-27T12:37:33Z</time>
      </trkpt>
      <trkpt lat="45.86662407964468" lon="8.42817110940814">
        <ele>893.87</ele>
        <time>2020-09-27T12:37:47Z</time>
      </trkpt>
      <trkpt lat="45.866625336930156" lon="8.428105898201466">
        <ele>891.92999999999995</ele>
        <time>2020-09-27T12:37:59Z</time>
      </trkpt>
      <trkpt lat="45.866620056331158" lon="8.428061222657561">
        <ele>890.16999999999996</ele>
        <time>2020-09-27T12:38:10Z</time>
      </trkpt>
      <trkpt lat="45.866602873429656" lon="8.42800791375339">
        <ele>889.13</ele>
        <time>2020-09-27T12:38:20Z</time>
      </trkpt>
      <trkpt lat="45.866605052724481" lon="8.427966171875596">
        <ele>887.44000000000005</ele>
        <time>2020-09-27T12:38:33Z</time>
      </trkpt>
      <trkpt lat="45.866596587002277" lon="8.427925854921341">
        <ele>886.00999999999999</ele>
        <time>2020-09-27T12:38:48Z</time>
      </trkpt>
      <trkpt lat="45.866571273654699" lon="8.427882185205817">
        <ele>883.57000000000005</ele>
        <time>2020-09-27T12:39:02Z</time>
      </trkpt>
      <trkpt lat="45.86656934581697" lon="8.427805658429861">
        <ele>881.25</ele>
        <time>2020-09-27T12:39:15Z</time>
      </trkpt>
      <trkpt lat="45.866576218977571" lon="8.427750337868929">
        <ele>880.11000000000001</ele>
        <time>2020-09-27T12:39:30Z</time>
      </trkpt>
      <trkpt lat="45.866584768518806" lon="8.427696861326695">
        <ele>878.26999999999998</ele>
        <time>2020-09-27T12:39:39Z</time>
      </trkpt>
      <trkpt lat="45.866547636687756" lon="8.427653610706329">
        <ele>875.92999999999995</ele>
        <time>2020-09-27T12:39:55Z</time>
      </trkpt>
      <trkpt lat="45.866541685536504" lon="8.427638774737716">
        <ele>874.88</ele>
        <time>2020-09-27T12:40:10Z</time>
      </trkpt>
      <trkpt lat="45.866521317511797" lon="8.427610863000155">
        <ele>873.11000000000001</ele>
        <time>2020-09-27T12:40:23Z</time>
      </trkpt>
      <trkpt lat="45.866508241742849" lon="8.427567947655916">
        <ele>871.64999999999998</ele>
        <time>2020-09-27T12:40:38Z</time>
      </trkpt>
      <trkpt lat="45.866475887596607" lon="8.427576245740056">
        <ele>870.32000000000005</ele>
        <time>2020-09-27T12:40:49Z</time>
      </trkpt>
      <trkpt lat="45.866439761593938" lon="8.427535761147738">
        <ele>868.10000000000002</ele>
        <time>2020-09-27T12:41:04Z</time>
      </trkpt>
      <trkpt lat="45.866414196789265" lon="8.427462000399828">
        <ele>866.13</ele>
        <time>2020-09-27T12:41:15Z</time>
      </trkpt>
      <trkpt lat="45.866353260353208" lon="8.427467280998826">
        <ele>864.96000000000004</ele>
        <time>2020-09-27T12:41:28Z</time>
      </trkpt>
      <trkpt lat="45.866306908428669" lon="8.427422940731049">
        <ele>862.87</ele>
        <time>2020-09-27T12:41:40Z</time>
      </trkpt>
      <trkpt lat="45.866285283118486" lon="8.427309198305011">
        <ele>859.83000000000004</ele>
        <time>2020-09-27T12:41:53Z</time>
      </trkpt>
      <trkpt lat="45.866247396916151" lon="8.427201909944415">
        <ele>858.25</ele>
        <time>2020-09-27T12:42:05Z</time>
      </trkpt>
      <trkpt lat="45.866204313933849" lon="8.427145751193166">
        <ele>856.66999999999996</ele>
        <time>2020-09-27T12:42:13Z</time>
      </trkpt>
      <trkpt lat="45.866194507107139" lon="8.427121359854937">
        <ele>855.95000000000005</ele>
        <time>2020-09-27T12:42:15Z</time>
      </trkpt>
      <trkpt lat="45.866149915382266" lon="8.427016921341419">
        <ele>854.12</ele>
        <time>2020-09-27T12:42:28Z</time>
      </trkpt>
      <trkpt lat="45.866099037230015" lon="8.426900077611208">
        <ele>852.36000000000001</ele>
        <time>2020-09-27T12:42:44Z</time>
      </trkpt>
      <trkpt lat="45.866062492132187" lon="8.426828915253282">
        <ele>851.48000000000002</ele>
        <time>2020-09-27T12:42:56Z</time>
      </trkpt>
      <trkpt lat="45.866051930934191" lon="8.426797650754452">
        <ele>851.37</ele>
        <time>2020-09-27T12:43:09Z</time>
      </trkpt>
      <trkpt lat="45.866035334765911" lon="8.426772421225905">
        <ele>851.25999999999999</ele>
        <time>2020-09-27T12:43:25Z</time>
      </trkpt>
      <trkpt lat="45.86603675968945" lon="8.426791867241263">
        <ele>851.16999999999996</ele>
        <time>2020-09-27T12:43:42Z</time>
      </trkpt>
      <trkpt lat="45.866044303402305" lon="8.426780719310045">
        <ele>851.38999999999999</ele>
        <time>2020-09-27T12:43:52Z</time>
      </trkpt>
      <trkpt lat="45.866026198491454" lon="8.426770325750113">
        <ele>851.29999999999995</ele>
        <time>2020-09-27T12:44:06Z</time>
      </trkpt>
      <trkpt lat="45.866038268432021" lon="8.426744928583503">
        <ele>851.09000000000003</ele>
        <time>2020-09-27T12:44:31Z</time>
      </trkpt>
      <trkpt lat="45.866043046116829" lon="8.426735373213887">
        <ele>851.25</ele>
        <time>2020-09-27T12:44:46Z</time>
      </trkpt>
      <trkpt lat="45.866024941205978" lon="8.426725398749113">
        <ele>851.41999999999996</ele>
        <time>2020-09-27T12:45:07Z</time>
      </trkpt>
      <trkpt lat="45.866010608151555" lon="8.426724309101701">
        <ele>851.10000000000002</ele>
        <time>2020-09-27T12:45:19Z</time>
      </trkpt>
      <trkpt lat="45.86599032394588" lon="8.426779378205538">
        <ele>851.30999999999995</ele>
        <time>2020-09-27T12:45:26Z</time>
      </trkpt>
      <trkpt lat="45.86598202586174" lon="8.426790861412883">
        <ele>851.53999999999996</ele>
        <time>2020-09-27T12:45:38Z</time>
      </trkpt>
      <trkpt lat="45.865991665050387" lon="8.426703186705709">
        <ele>851.17999999999995</ele>
        <time>2020-09-27T12:45:50Z</time>
      </trkpt>
      <trkpt lat="45.866000046953559" lon="8.426712825894356">
        <ele>851.29999999999995</ele>
        <time>2020-09-27T12:46:04Z</time>
      </trkpt>
      <trkpt lat="45.865996526554227" lon="8.426705952733755">
        <ele>851.07000000000005</ele>
        <time>2020-09-27T12:46:28Z</time>
      </trkpt>
      <trkpt lat="45.866020163521171" lon="8.426703857257962">
        <ele>851.37</ele>
        <time>2020-09-27T12:46:51Z</time>
      </trkpt>
      <trkpt lat="45.86601915769279" lon="8.426681729033589">
        <ele>851.59000000000003</ele>
        <time>2020-09-27T12:47:14Z</time>
      </trkpt>
      <trkpt lat="45.865998370572925" lon="8.426652727648616">
        <ele>851.80999999999995</ele>
        <time>2020-09-27T12:47:31Z</time>
      </trkpt>
      <trkpt lat="45.866036843508482" lon="8.426647614687681">
        <ele>851.19000000000005</ele>
        <time>2020-09-27T12:47:41Z</time>
      </trkpt>
      <trkpt lat="45.86603089235723" lon="8.426679214462638">
        <ele>851.83000000000004</ele>
        <time>2020-09-27T12:47:58Z</time>
      </trkpt>
      <trkpt lat="45.866047069430351" lon="8.42665339820087">
        <ele>851.39999999999998</ele>
        <time>2020-09-27T12:48:20Z</time>
      </trkpt>
      <trkpt lat="45.866013960912824" lon="8.426608806475997">
        <ele>851.49000000000001</ele>
        <time>2020-09-27T12:48:34Z</time>
      </trkpt>
      <trkpt lat="45.865997364744544" lon="8.426585337147117">
        <ele>851.48000000000002</ele>
        <time>2020-09-27T12:48:51Z</time>
      </trkpt>
      <trkpt lat="45.866032484918833" lon="8.426564717665315">
        <ele>850.37</ele>
        <time>2020-09-27T12:49:07Z</time>
      </trkpt>
      <trkpt lat="45.866105072200298" lon="8.426567735150456">
        <ele>847.98000000000002</ele>
        <time>2020-09-27T12:49:18Z</time>
      </trkpt>
      <trkpt lat="45.866183694452047" lon="8.42659916728735">
        <ele>845.85000000000002</ele>
        <time>2020-09-27T12:49:31Z</time>
      </trkpt>
      <trkpt lat="45.866226777434349" lon="8.426653565838933">
        <ele>844.97000000000003</ele>
        <time>2020-09-27T12:49:49Z</time>
      </trkpt>
      <trkpt lat="45.86624245159328" lon="8.426692206412554">
        <ele>844.76999999999998</ele>
        <time>2020-09-27T12:50:09Z</time>
      </trkpt>
      <trkpt lat="45.86630841717124" lon="8.42673503793776">
        <ele>844.61000000000001</ele>
        <time>2020-09-27T12:50:21Z</time>
      </trkpt>
      <trkpt lat="45.866340100765228" lon="8.426753981038928">
        <ele>844.51999999999998</ele>
        <time>2020-09-27T12:50:40Z</time>
      </trkpt>
      <trkpt lat="45.866453843191266" lon="8.426793375983834">
        <ele>843.63999999999999</ele>
        <time>2020-09-27T12:50:55Z</time>
      </trkpt>
      <trkpt lat="45.866539087146521" lon="8.426817515864968">
        <ele>843.10000000000002</ele>
        <time>2020-09-27T12:51:04Z</time>
      </trkpt>
      <trkpt lat="45.866592060774565" lon="8.426859760656953">
        <ele>843.39999999999998</ele>
        <time>2020-09-27T12:51:14Z</time>
      </trkpt>
      <trkpt lat="45.866672191768885" lon="8.426814582198858">
        <ele>840.88</ele>
        <time>2020-09-27T12:51:28Z</time>
      </trkpt>
      <trkpt lat="45.866681579500437" lon="8.426768481731415">
        <ele>839.80999999999995</ele>
        <time>2020-09-27T12:51:43Z</time>
      </trkpt>
      <trkpt lat="45.866690967231989" lon="8.426776444539428">
        <ele>839.63</ele>
        <time>2020-09-27T12:51:59Z</time>
      </trkpt>
      <trkpt lat="45.866757016628981" lon="8.426753645762801">
        <ele>838.14999999999998</ele>
        <time>2020-09-27T12:52:15Z</time>
      </trkpt>
      <trkpt lat="45.866852402687073" lon="8.426722548902035">
        <ele>836.49000000000001</ele>
        <time>2020-09-27T12:52:27Z</time>
      </trkpt>
      <trkpt lat="45.866927839815617" lon="8.426691954955459">
        <ele>834.55999999999995</ele>
        <time>2020-09-27T12:52:41Z</time>
      </trkpt>
      <trkpt lat="45.866986177861691" lon="8.426660355180502">
        <ele>832.44000000000005</ele>
        <time>2020-09-27T12:52:55Z</time>
      </trkpt>
      <trkpt lat="45.867043510079384" lon="8.426639651879668">
        <ele>829.89999999999998</ele>
        <time>2020-09-27T12:53:06Z</time>
      </trkpt>
      <trkpt lat="45.867078714072704" lon="8.426658343523741">
        <ele>827.91999999999996</ele>
        <time>2020-09-27T12:53:20Z</time>
      </trkpt>
      <trkpt lat="45.867141913622618" lon="8.426653984934092">
        <ele>825.24000000000001</ele>
        <time>2020-09-27T12:53:34Z</time>
      </trkpt>
      <trkpt lat="45.867208214476705" lon="8.426675526425242">
        <ele>822.99000000000001</ele>
        <time>2020-09-27T12:53:47Z</time>
      </trkpt>
      <trkpt lat="45.867275856435299" lon="8.426666473969817">
        <ele>819.80999999999995</ele>
        <time>2020-09-27T12:53:59Z</time>
      </trkpt>
      <trkpt lat="45.867379792034626" lon="8.426697067916393">
        <ele>816.91999999999996</ele>
        <time>2020-09-27T12:54:12Z</time>
      </trkpt>
      <trkpt lat="45.867467969655991" lon="8.426707210019231">
        <ele>814.35000000000002</ele>
        <time>2020-09-27T12:54:25Z</time>
      </trkpt>
      <trkpt lat="45.867484230548143" lon="8.42661140486598">
        <ele>812.38</ele>
        <time>2020-09-27T12:54:35Z</time>
      </trkpt>
      <trkpt lat="45.867439555004239" lon="8.426500596106052">
        <ele>810.12</ele>
        <time>2020-09-27T12:54:47Z</time>
      </trkpt>
      <trkpt lat="45.867427149787545" lon="8.426473019644618">
        <ele>809.72000000000003</ele>
        <time>2020-09-27T12:54:50Z</time>
      </trkpt>
      <trkpt lat="45.86737803183496" lon="8.426388781517744">
        <ele>807.58000000000004</ele>
        <time>2020-09-27T12:54:59Z</time>
      </trkpt>
      <trkpt lat="45.867327991873026" lon="8.426323654130101">
        <ele>805.24000000000001</ele>
        <time>2020-09-27T12:55:09Z</time>
      </trkpt>
      <trkpt lat="45.867285998538136" lon="8.426214857026935">
        <ele>802.67999999999995</ele>
        <time>2020-09-27T12:55:20Z</time>
      </trkpt>
      <trkpt lat="45.867257500067353" lon="8.42611787840724">
        <ele>800.12</ele>
        <time>2020-09-27T12:55:33Z</time>
      </trkpt>
      <trkpt lat="45.867243083193898" lon="8.426059540361166">
        <ele>799.09000000000003</ele>
        <time>2020-09-27T12:55:47Z</time>
      </trkpt>
      <trkpt lat="45.867197318002582" lon="8.425975972786546">
        <ele>796.49000000000001</ele>
        <time>2020-09-27T12:56:01Z</time>
      </trkpt>
      <trkpt lat="45.867144344374537" lon="8.425922580063343">
        <ele>793.67999999999995</ele>
        <time>2020-09-27T12:56:14Z</time>
      </trkpt>
      <trkpt lat="45.867079719901085" lon="8.425897182896733">
        <ele>790.63999999999999</ele>
        <time>2020-09-27T12:56:28Z</time>
      </trkpt>
      <trkpt lat="45.86703353561461" lon="8.425837922841311">
        <ele>787.60000000000002</ele>
        <time>2020-09-27T12:56:40Z</time>
      </trkpt>
      <trkpt lat="45.866995481774211" lon="8.425814872607589">
        <ele>787.07000000000005</ele>
        <time>2020-09-27T12:57:01Z</time>
      </trkpt>
      <trkpt lat="45.866982908919454" lon="8.425746392458677">
        <ele>785.27999999999997</ele>
        <time>2020-09-27T12:57:09Z</time>
      </trkpt>
      <trkpt lat="45.866919960826635" lon="8.425665171816945">
        <ele>783</ele>
        <time>2020-09-27T12:57:25Z</time>
      </trkpt>
      <trkpt lat="45.866887690499425" lon="8.425561152398586">
        <ele>781.17999999999995</ele>
        <time>2020-09-27T12:57:37Z</time>
      </trkpt>
      <trkpt lat="45.866895653307438" lon="8.425430813804269">
        <ele>778.36000000000001</ele>
        <time>2020-09-27T12:57:51Z</time>
      </trkpt>
      <trkpt lat="45.866921385750175" lon="8.425349928438664">
        <ele>776.50999999999999</ele>
        <time>2020-09-27T12:58:05Z</time>
      </trkpt>
      <trkpt lat="45.866944519802928" lon="8.425277760252357">
        <ele>774.00999999999999</ele>
        <time>2020-09-27T12:58:17Z</time>
      </trkpt>
      <trkpt lat="45.866990117356181" lon="8.425183212384582">
        <ele>770.82000000000005</ele>
        <time>2020-09-27T12:58:34Z</time>
      </trkpt>
      <trkpt lat="45.867052394896746" lon="8.425090005621314">
        <ele>768.02999999999997</ele>
        <time>2020-09-27T12:58:50Z</time>
      </trkpt>
      <trkpt lat="45.867084916681051" lon="8.42498523183167">
        <ele>765.85000000000002</ele>
        <time>2020-09-27T12:59:07Z</time>
      </trkpt>
      <trkpt lat="45.867085671052337" lon="8.424895964562893">
        <ele>763.50999999999999</ele>
        <time>2020-09-27T12:59:21Z</time>
      </trkpt>
      <trkpt lat="45.867127161473036" lon="8.424834357574582">
        <ele>760.96000000000004</ele>
        <time>2020-09-27T12:59:34Z</time>
      </trkpt>
      <trkpt lat="45.867153229191899" lon="8.424747856333852">
        <ele>758.46000000000004</ele>
        <time>2020-09-27T12:59:46Z</time>
      </trkpt>
      <trkpt lat="45.867144847288728" lon="8.42464710585773">
        <ele>756.75</ele>
        <time>2020-09-27T13:00:00Z</time>
      </trkpt>
      <trkpt lat="45.867161694914103" lon="8.424542918801308">
        <ele>753.86000000000001</ele>
        <time>2020-09-27T13:00:14Z</time>
      </trkpt>
      <trkpt lat="45.867203688248992" lon="8.424488268792629">
        <ele>751.28999999999996</ele>
        <time>2020-09-27T13:00:27Z</time>
      </trkpt>
      <trkpt lat="45.867269150912762" lon="8.424438564106822">
        <ele>748.48000000000002</ele>
        <time>2020-09-27T13:00:43Z</time>
      </trkpt>
      <trkpt lat="45.867264037951827" lon="8.424337478354573">
        <ele>746.40999999999997</ele>
        <time>2020-09-27T13:00:56Z</time>
      </trkpt>
      <trkpt lat="45.867279293015599" lon="8.42424251139164">
        <ele>743.80999999999995</ele>
        <time>2020-09-27T13:01:12Z</time>
      </trkpt>
      <trkpt lat="45.867324722930789" lon="8.424210660159588">
        <ele>742.09000000000003</ele>
        <time>2020-09-27T13:01:25Z</time>
      </trkpt>
      <trkpt lat="45.867390353232622" lon="8.424196410924196">
        <ele>739.78999999999996</ele>
        <time>2020-09-27T13:01:38Z</time>
      </trkpt>
      <trkpt lat="45.867397058755159" lon="8.424128936603665">
        <ele>738.80999999999995</ele>
        <time>2020-09-27T13:02:01Z</time>
      </trkpt>
      <trkpt lat="45.867386162281036" lon="8.424076130613685">
        <ele>736.95000000000005</ele>
        <time>2020-09-27T13:02:13Z</time>
      </trkpt>
      <trkpt lat="45.867382977157831" lon="8.424091637134552">
        <ele>736.71000000000004</ele>
        <time>2020-09-27T13:02:23Z</time>
      </trkpt>
      <trkpt lat="45.867384653538465" lon="8.424104377627373">
        <ele>734.25999999999999</ele>
        <time>2020-09-27T13:02:27Z</time>
      </trkpt>
      <trkpt lat="45.867385994642973" lon="8.424105383455753">
        <ele>736.45000000000005</ele>
        <time>2020-09-27T13:02:30Z</time>
      </trkpt>
      <trkpt lat="45.867408122867346" lon="8.424105299636722">
        <ele>736.11000000000001</ele>
        <time>2020-09-27T13:03:08Z</time>
      </trkpt>
      <trkpt lat="45.867410553619266" lon="8.424095241352916">
        <ele>737.45000000000005</ele>
        <time>2020-09-27T13:03:24Z</time>
      </trkpt>
      <trkpt lat="45.867411224171519" lon="8.424089960753918">
        <ele>735.95000000000005</ele>
        <time>2020-09-27T13:03:28Z</time>
      </trkpt>
      <trkpt lat="45.86742103099823" lon="8.424082249403">
        <ele>736.22000000000003</ele>
        <time>2020-09-27T13:04:08Z</time>
      </trkpt>
      <trkpt lat="45.867430837824941" lon="8.424097588285804">
        <ele>736</ele>
        <time>2020-09-27T13:04:51Z</time>
      </trkpt>
      <trkpt lat="45.867428993806243" lon="8.42409398406744">
        <ele>736.13999999999999</ele>
        <time>2020-09-27T13:05:37Z</time>
      </trkpt>
      <trkpt lat="45.867442823946476" lon="8.424111250787973">
        <ele>736.34000000000003</ele>
        <time>2020-09-27T13:06:19Z</time>
      </trkpt>
      <trkpt lat="45.867427485063672" lon="8.424106724560261">
        <ele>736.17999999999995</ele>
        <time>2020-09-27T13:07:04Z</time>
      </trkpt>
      <trkpt lat="45.86741860024631" lon="8.424109658226371">
        <ele>736.00999999999999</ele>
        <time>2020-09-27T13:07:48Z</time>
      </trkpt>
      <trkpt lat="45.867407536134124" lon="8.424103036522865">
        <ele>736.13999999999999</ele>
        <time>2020-09-27T13:08:07Z</time>
      </trkpt>
      <trkpt lat="45.867396136745811" lon="8.424093397334218">
        <ele>736.19000000000005</ele>
        <time>2020-09-27T13:08:24Z</time>
      </trkpt>
      <trkpt lat="45.867416001856327" lon="8.424065904691815">
        <ele>736.19000000000005</ele>
        <time>2020-09-27T13:08:36Z</time>
      </trkpt>
      <trkpt lat="45.867429077625275" lon="8.424074286594987">
        <ele>736.26999999999998</ele>
        <time>2020-09-27T13:08:51Z</time>
      </trkpt>
      <trkpt lat="45.867452546954155" lon="8.424070766195655">
        <ele>735.90999999999997</ele>
        <time>2020-09-27T13:09:05Z</time>
      </trkpt>
      <trkpt lat="45.867461515590549" lon="8.424047129228711">
        <ele>735.70000000000005</ele>
        <time>2020-09-27T13:09:18Z</time>
      </trkpt>
      <trkpt lat="45.86744349449873" lon="8.424028856679797">
        <ele>736.01999999999998</ele>
        <time>2020-09-27T13:09:28Z</time>
      </trkpt>
      <trkpt lat="45.867450954392552" lon="8.424059115350246">
        <ele>735.90999999999997</ele>
        <time>2020-09-27T13:09:50Z</time>
      </trkpt>
      <trkpt lat="45.867445841431618" lon="8.423943025991321">
        <ele>733.75999999999999</ele>
        <time>2020-09-27T13:10:04Z</time>
      </trkpt>
      <trkpt lat="45.86744349449873" lon="8.423930034041405">
        <ele>733.52999999999997</ele>
        <time>2020-09-27T13:10:05Z</time>
      </trkpt>
      <trkpt lat="45.867440728470683" lon="8.423899272456765">
        <ele>733.00999999999999</ele>
        <time>2020-09-27T13:10:07Z</time>
      </trkpt>
      <trkpt lat="45.867433436214924" lon="8.423838755115867">
        <ele>732.55999999999995</ele>
        <time>2020-09-27T13:10:18Z</time>
      </trkpt>
      <trkpt lat="45.867458079010248" lon="8.423800617456436">
        <ele>732.79999999999995</ele>
        <time>2020-09-27T13:10:30Z</time>
      </trkpt>
      <trkpt lat="45.867521781474352" lon="8.423864990472794">
        <ele>730.28999999999996</ele>
        <time>2020-09-27T13:10:42Z</time>
      </trkpt>
      <trkpt lat="45.867581460624933" lon="8.423999100923538">
        <ele>728.70000000000005</ele>
        <time>2020-09-27T13:10:55Z</time>
      </trkpt>
      <trkpt lat="45.867633763700724" lon="8.424086775630713">
        <ele>728.60000000000002</ele>
        <time>2020-09-27T13:11:05Z</time>
      </trkpt>
      <trkpt lat="45.867648515850306" lon="8.424122985452414">
        <ele>726.73000000000002</ele>
        <time>2020-09-27T13:11:11Z</time>
      </trkpt>
      <trkpt lat="45.867648012936115" lon="8.424197249114513">
        <ele>726.32000000000005</ele>
        <time>2020-09-27T13:11:27Z</time>
      </trkpt>
      <trkpt lat="45.867639211937785" lon="8.424276039004326">
        <ele>725.37</ele>
        <time>2020-09-27T13:11:43Z</time>
      </trkpt>
      <trkpt lat="45.867695203050971" lon="8.424374610185623">
        <ele>725.03999999999996</ele>
        <time>2020-09-27T13:11:56Z</time>
      </trkpt>
      <trkpt lat="45.867731664329767" lon="8.424385590478778">
        <ele>723.35000000000002</ele>
        <time>2020-09-27T13:12:06Z</time>
      </trkpt>
      <trkpt lat="45.867817830294371" lon="8.424447951838374">
        <ele>722.32000000000005</ele>
        <time>2020-09-27T13:12:18Z</time>
      </trkpt>
      <trkpt lat="45.867928136140108" lon="8.424416100606322">
        <ele>721.58000000000004</ele>
        <time>2020-09-27T13:12:29Z</time>
      </trkpt>
      <trkpt lat="45.868033496662974" lon="8.424312751740217">
        <ele>720.63999999999999</ele>
        <time>2020-09-27T13:12:44Z</time>
      </trkpt>
      <trkpt lat="45.868070712313056" lon="8.424212001264095">
        <ele>718.76999999999998</ele>
        <time>2020-09-27T13:12:56Z</time>
      </trkpt>
      <trkpt lat="45.868079094216228" lon="8.424219377338886">
        <ele>718.10000000000002</ele>
        <time>2020-09-27T13:13:12Z</time>
      </trkpt>
      <trkpt lat="45.86809971369803" lon="8.424168666824698">
        <ele>716.92999999999995</ele>
        <time>2020-09-27T13:13:38Z</time>
      </trkpt>
      <trkpt lat="45.868104407563806" lon="8.424093062058091">
        <ele>715.49000000000001</ele>
        <time>2020-09-27T13:13:53Z</time>
      </trkpt>
      <trkpt lat="45.868180934339762" lon="8.42401578091085">
        <ele>712.52999999999997</ele>
        <time>2020-09-27T13:14:10Z</time>
      </trkpt>
      <trkpt lat="45.868191830813885" lon="8.42397378757596">
        <ele>711.83000000000004</ele>
        <time>2020-09-27T13:14:21Z</time>
      </trkpt>
      <trkpt lat="45.868181018158793" lon="8.423960963264108">
        <ele>711.35000000000002</ele>
        <time>2020-09-27T13:14:45Z</time>
      </trkpt>
      <trkpt lat="45.868198033422232" lon="8.423858284950256">
        <ele>709.22000000000003</ele>
        <time>2020-09-27T13:14:59Z</time>
      </trkpt>
      <trkpt lat="45.868196357041597" lon="8.423783853650093">
        <ele>707.22000000000003</ele>
        <time>2020-09-27T13:15:10Z</time>
      </trkpt>
      <trkpt lat="45.868197362869978" lon="8.423777651041746">
        <ele>707.16999999999996</ele>
        <time>2020-09-27T13:15:22Z</time>
      </trkpt>
      <trkpt lat="45.868260310962796" lon="8.423704896122217">
        <ele>704.13</ele>
        <time>2020-09-27T13:15:35Z</time>
      </trkpt>
      <trkpt lat="45.868331305682659" lon="8.423655861988664">
        <ele>701.36000000000001</ele>
        <time>2020-09-27T13:15:48Z</time>
      </trkpt>
      <trkpt lat="45.868375729769468" lon="8.423568103462458">
        <ele>698.78999999999996</ele>
        <time>2020-09-27T13:16:00Z</time>
      </trkpt>
      <trkpt lat="45.868413699790835" lon="8.42347146011889">
        <ele>695.66999999999996</ele>
        <time>2020-09-27T13:16:12Z</time>
      </trkpt>
      <trkpt lat="45.868413783609867" lon="8.423390407115221">
        <ele>693.09000000000003</ele>
        <time>2020-09-27T13:16:23Z</time>
      </trkpt>
      <trkpt lat="45.868434654548764" lon="8.423316311091185">
        <ele>690.28999999999996</ele>
        <time>2020-09-27T13:16:37Z</time>
      </trkpt>
      <trkpt lat="45.868435157462955" lon="8.423267444595695">
        <ele>688</ele>
        <time>2020-09-27T13:16:47Z</time>
      </trkpt>
      <trkpt lat="45.868513947352767" lon="8.423245400190353">
        <ele>684.99000000000001</ele>
        <time>2020-09-27T13:17:00Z</time>
      </trkpt>
      <trkpt lat="45.868560718372464" lon="8.423171304166317">
        <ele>683.01999999999998</ele>
        <time>2020-09-27T13:17:09Z</time>
      </trkpt>
      <trkpt lat="45.868571531027555" lon="8.423043312504888">
        <ele>680.99000000000001</ele>
        <time>2020-09-27T13:17:20Z</time>
      </trkpt>
      <trkpt lat="45.86857371032238" lon="8.422871986404061">
        <ele>679.50999999999999</ele>
        <time>2020-09-27T13:17:33Z</time>
      </trkpt>
      <trkpt lat="45.868594162166119" lon="8.422690518200398">
        <ele>677.16999999999996</ele>
        <time>2020-09-27T13:17:46Z</time>
      </trkpt>
      <trkpt lat="45.868657194077969" lon="8.422554982826114">
        <ele>674.32000000000005</ele>
        <time>2020-09-27T13:17:57Z</time>
      </trkpt>
      <trkpt lat="45.868700947612524" lon="8.422411484643817">
        <ele>671.95000000000005</ele>
        <time>2020-09-27T13:18:09Z</time>
      </trkpt>
      <trkpt lat="45.868727182969451" lon="8.422284414991736">
        <ele>668.88</ele>
        <time>2020-09-27T13:18:21Z</time>
      </trkpt>
      <trkpt lat="45.868741348385811" lon="8.422202775254846">
        <ele>667.38</ele>
        <time>2020-09-27T13:18:32Z</time>
      </trkpt>
      <trkpt lat="45.868741851300001" lon="8.422120716422796">
        <ele>665.17999999999995</ele>
        <time>2020-09-27T13:18:42Z</time>
      </trkpt>
      <trkpt lat="45.868777809664607" lon="8.422067742794752">
        <ele>663.07000000000005</ele>
        <time>2020-09-27T13:18:58Z</time>
      </trkpt>
      <trkpt lat="45.868776133283973" lon="8.421998340636492">
        <ele>661.51999999999998</ele>
        <time>2020-09-27T13:19:12Z</time>
      </trkpt>
      <trkpt lat="45.86878283880651" lon="8.421939080581069">
        <ele>659.11000000000001</ele>
        <time>2020-09-27T13:19:25Z</time>
      </trkpt>
      <trkpt lat="45.868801949545741" lon="8.421933799982071">
        <ele>658.24000000000001</ele>
        <time>2020-09-27T13:19:38Z</time>
      </trkpt>
      <trkpt lat="45.868809409439564" lon="8.421920472756028">
        <ele>658.11000000000001</ele>
        <time>2020-09-27T13:19:55Z</time>
      </trkpt>
      <trkpt lat="45.868820138275623" lon="8.421914940699935">
        <ele>658.04999999999995</ele>
        <time>2020-09-27T13:20:20Z</time>
      </trkpt>
      <trkpt lat="45.868866238743067" lon="8.421894572675228">
        <ele>655.52999999999997</ele>
        <time>2020-09-27T13:20:35Z</time>
      </trkpt>
      <trkpt lat="45.868883589282632" lon="8.421791810542345">
        <ele>652.25999999999999</ele>
        <time>2020-09-27T13:20:47Z</time>
      </trkpt>
      <trkpt lat="45.868936395272613" lon="8.42172903008759">
        <ele>649.11000000000001</ele>
        <time>2020-09-27T13:21:00Z</time>
      </trkpt>
      <trkpt lat="45.868984675034881" lon="8.421668345108628">
        <ele>646.11000000000001</ele>
        <time>2020-09-27T13:21:14Z</time>
      </trkpt>
      <trkpt lat="45.869018537923694" lon="8.421670356765389">
        <ele>644.24000000000001</ele>
        <time>2020-09-27T13:21:24Z</time>
      </trkpt>
      <trkpt lat="45.869059776887298" lon="8.421657448634505">
        <ele>641.91999999999996</ele>
        <time>2020-09-27T13:21:36Z</time>
      </trkpt>
      <trkpt lat="45.869120294228196" lon="8.421628111973405">
        <ele>638.94000000000005</ele>
        <time>2020-09-27T13:21:50Z</time>
      </trkpt>
      <trkpt lat="45.869135633111" lon="8.42163423076272">
        <ele>638.41999999999996</ele>
        <time>2020-09-27T13:22:04Z</time>
      </trkpt>
      <trkpt lat="45.86919279769063" lon="8.421710254624486">
        <ele>635.73000000000002</ele>
        <time>2020-09-27T13:22:17Z</time>
      </trkpt>
      <trkpt lat="45.869245519861579" lon="8.421777477487922">
        <ele>632.86000000000001</ele>
        <time>2020-09-27T13:22:30Z</time>
      </trkpt>
      <trkpt lat="45.869300169870257" lon="8.421871438622475">
        <ele>630.42999999999995</ele>
        <time>2020-09-27T13:22:41Z</time>
      </trkpt>
      <trkpt lat="45.869374936446548" lon="8.421950982883573">
        <ele>627.39999999999998</ele>
        <time>2020-09-27T13:22:55Z</time>
      </trkpt>
      <trkpt lat="45.869397986680269" lon="8.421990377828479">
        <ele>626.51999999999998</ele>
        <time>2020-09-27T13:23:07Z</time>
      </trkpt>
      <trkpt lat="45.86941952817142" lon="8.422090793028474">
        <ele>624.97000000000003</ele>
        <time>2020-09-27T13:23:21Z</time>
      </trkpt>
      <trkpt lat="45.869414079934359" lon="8.422144521027803">
        <ele>623.74000000000001</ele>
        <time>2020-09-27T13:23:36Z</time>
      </trkpt>
      <trkpt lat="45.869412403553724" lon="8.422236638143659">
        <ele>620.94000000000005</ele>
        <time>2020-09-27T13:23:51Z</time>
      </trkpt>
      <trkpt lat="45.869410559535027" lon="8.422317858785391">
        <ele>617.90999999999997</ele>
        <time>2020-09-27T13:24:05Z</time>
      </trkpt>
      <trkpt lat="45.869429502636194" lon="8.422406874597073">
        <ele>616.34000000000003</ele>
        <time>2020-09-27T13:24:21Z</time>
      </trkpt>
      <trkpt lat="45.869450038298965" lon="8.42243704944849">
        <ele>615.85000000000002</ele>
        <time>2020-09-27T13:24:35Z</time>
      </trkpt>
      <trkpt lat="45.86950602941215" lon="8.42245121486485">
        <ele>616.19000000000005</ele>
        <time>2020-09-27T13:24:48Z</time>
      </trkpt>
      <trkpt lat="45.869522038847208" lon="8.4224590100348">
        <ele>616.38999999999999</ele>
        <time>2020-09-27T13:24:50Z</time>
      </trkpt>
      <trkpt lat="45.869615245610476" lon="8.422394385561347">
        <ele>617.54999999999995</ele>
        <time>2020-09-27T13:25:04Z</time>
      </trkpt>
      <trkpt lat="45.869660172611475" lon="8.422292713075876">
        <ele>617.37</ele>
        <time>2020-09-27T13:25:14Z</time>
      </trkpt>
      <trkpt lat="45.869698645547032" lon="8.422230267897248">
        <ele>616.36000000000001</ele>
        <time>2020-09-27T13:25:19Z</time>
      </trkpt>
      <trkpt lat="45.869757737964392" lon="8.422042345628142">
        <ele>614.59000000000003</ele>
        <time>2020-09-27T13:25:34Z</time>
      </trkpt>
      <trkpt lat="45.869778860360384" lon="8.42199775390327">
        <ele>613.70000000000005</ele>
        <time>2020-09-27T13:25:38Z</time>
      </trkpt>
      <trkpt lat="45.869873072952032" lon="8.421877305954695">
        <ele>612.12</ele>
        <time>2020-09-27T13:25:50Z</time>
      </trkpt>
      <trkpt lat="45.869941217824817" lon="8.421781165525317">
        <ele>613.11000000000001</ele>
        <time>2020-09-27T13:26:02Z</time>
      </trkpt>
      <trkpt lat="45.869956389069557" lon="8.421750487759709">
        <ele>613.19000000000005</ele>
        <time>2020-09-27T13:26:05Z</time>
      </trkpt>
      <trkpt lat="45.869989665225148" lon="8.421510430052877">
        <ele>611.72000000000003</ele>
        <time>2020-09-27T13:26:23Z</time>
      </trkpt>
      <trkpt lat="45.869971727952361" lon="8.421348491683602">
        <ele>613.60000000000002</ele>
        <time>2020-09-27T13:26:40Z</time>
      </trkpt>
      <trkpt lat="45.87000634521246" lon="8.421245394274592">
        <ele>612.96000000000004</ele>
        <time>2020-09-27T13:26:49Z</time>
      </trkpt>
      <trkpt lat="45.870065353810787" lon="8.421126371249557">
        <ele>611.00999999999999</ele>
        <time>2020-09-27T13:27:05Z</time>
      </trkpt>
      <trkpt lat="45.870112460106611" lon="8.421114971861243">
        <ele>611.02999999999997</ele>
        <time>2020-09-27T13:27:15Z</time>
      </trkpt>
      <trkpt lat="45.8701510168612" lon="8.421094436198473">
        <ele>609.97000000000003</ele>
        <time>2020-09-27T13:27:22Z</time>
      </trkpt>
      <trkpt lat="45.870258808135986" lon="8.421101644635201">
        <ele>609.23000000000002</ele>
        <time>2020-09-27T13:27:35Z</time>
      </trkpt>
      <trkpt lat="45.870283953845501" lon="8.421114552766085">
        <ele>609.59000000000003</ele>
        <time>2020-09-27T13:27:50Z</time>
      </trkpt>
      <trkpt lat="45.870385291054845" lon="8.421103656291962">
        <ele>608.13999999999999</ele>
        <time>2020-09-27T13:28:03Z</time>
      </trkpt>
      <trkpt lat="45.870507331565022" lon="8.421056130900979">
        <ele>605.65999999999997</ele>
        <time>2020-09-27T13:28:16Z</time>
      </trkpt>
      <trkpt lat="45.870587546378374" lon="8.421012042090297">
        <ele>604.26999999999998</ele>
        <time>2020-09-27T13:28:28Z</time>
      </trkpt>
      <trkpt lat="45.870675975456834" lon="8.42100533656776">
        <ele>602.47000000000003</ele>
        <time>2020-09-27T13:28:42Z</time>
      </trkpt>
      <trkpt lat="45.870771445333958" lon="8.421010784804821">
        <ele>601.02999999999997</ele>
        <time>2020-09-27T13:28:54Z</time>
      </trkpt>
      <trkpt lat="45.870887199416757" lon="8.420986393466592">
        <ele>599.51999999999998</ele>
        <time>2020-09-27T13:29:07Z</time>
      </trkpt>
      <trkpt lat="45.870984429493546" lon="8.420933084562421">
        <ele>597.62</ele>
        <time>2020-09-27T13:29:21Z</time>
      </trkpt>
      <trkpt lat="45.871041929349303" lon="8.420885475352407">
        <ele>596.23000000000002</ele>
        <time>2020-09-27T13:29:32Z</time>
      </trkpt>
      <trkpt lat="45.871099596843123" lon="8.420858988538384">
        <ele>594.87</ele>
        <time>2020-09-27T13:29:42Z</time>
      </trkpt>
      <trkpt lat="45.871146116405725" lon="8.420838201418519">
        <ele>593.73000000000002</ele>
        <time>2020-09-27T13:29:54Z</time>
      </trkpt>
      <trkpt lat="45.871214177459478" lon="8.420756058767438">
        <ele>591.83000000000004</ele>
        <time>2020-09-27T13:30:09Z</time>
      </trkpt>
      <trkpt lat="45.871304618194699" lon="8.420671317726374">
        <ele>589.77999999999997</ele>
        <time>2020-09-27T13:30:22Z</time>
      </trkpt>
      <trkpt lat="45.871382988989353" lon="8.420631755143404">
        <ele>586.82000000000005</ele>
        <time>2020-09-27T13:30:35Z</time>
      </trkpt>
      <trkpt lat="45.871425485238433" lon="8.420525137335062">
        <ele>583.98000000000002</ele>
        <time>2020-09-27T13:30:51Z</time>
      </trkpt>
      <trkpt lat="45.871478710323572" lon="8.420463111251593">
        <ele>581.55999999999995</ele>
        <time>2020-09-27T13:31:04Z</time>
      </trkpt>
      <trkpt lat="45.871512070298195" lon="8.420399827882648">
        <ele>579.63</ele>
        <time>2020-09-27T13:31:16Z</time>
      </trkpt>
      <trkpt lat="45.871577197685838" lon="8.42030662111938">
        <ele>577.20000000000005</ele>
        <time>2020-09-27T13:31:30Z</time>
      </trkpt>
      <trkpt lat="45.871624471619725" lon="8.42022548429668">
        <ele>575.25</ele>
        <time>2020-09-27T13:31:43Z</time>
      </trkpt>
      <trkpt lat="45.871678199619055" lon="8.420161111280322">
        <ele>573.51999999999998</ele>
        <time>2020-09-27T13:31:54Z</time>
      </trkpt>
      <trkpt lat="45.871737794950604" lon="8.420047787949443">
        <ele>571.45000000000005</ele>
        <time>2020-09-27T13:32:09Z</time>
      </trkpt>
      <trkpt lat="45.871807700023055" lon="8.420000765472651">
        <ele>569.17999999999995</ele>
        <time>2020-09-27T13:32:21Z</time>
      </trkpt>
      <trkpt lat="45.871866373345256" lon="8.419926501810551">
        <ele>566.27999999999997</ele>
        <time>2020-09-27T13:32:34Z</time>
      </trkpt>
      <trkpt lat="45.871940720826387" lon="8.419845951721072">
        <ele>563.69000000000005</ele>
        <time>2020-09-27T13:32:47Z</time>
      </trkpt>
      <trkpt lat="45.872016241773963" lon="8.419788116589189">
        <ele>562.14999999999998</ele>
        <time>2020-09-27T13:32:59Z</time>
      </trkpt>
      <trkpt lat="45.872084470465779" lon="8.41977009549737">
        <ele>560.76999999999998</ele>
        <time>2020-09-27T13:33:11Z</time>
      </trkpt>
      <trkpt lat="45.872113388031721" lon="8.419771855697036">
        <ele>560.23000000000002</ele>
        <time>2020-09-27T13:33:28Z</time>
      </trkpt>
      <trkpt lat="45.87212797254324" lon="8.41978183016181">
        <ele>559.54999999999995</ele>
        <time>2020-09-27T13:33:42Z</time>
      </trkpt>
      <trkpt lat="45.872171642258763" lon="8.419806640595198">
        <ele>557.76999999999998</ele>
        <time>2020-09-27T13:33:58Z</time>
      </trkpt>
      <trkpt lat="45.872263256460428" lon="8.419798007234931">
        <ele>555.27999999999997</ele>
        <time>2020-09-27T13:34:13Z</time>
      </trkpt>
      <trkpt lat="45.872324192896485" lon="8.419752074405551">
        <ele>552.76999999999998</ele>
        <time>2020-09-27T13:34:28Z</time>
      </trkpt>
      <trkpt lat="45.872375490143895" lon="8.419719049707055">
        <ele>550.92999999999995</ele>
        <time>2020-09-27T13:34:40Z</time>
      </trkpt>
      <trkpt lat="45.872424943372607" lon="8.419704716652632">
        <ele>549.59000000000003</ele>
        <time>2020-09-27T13:34:52Z</time>
      </trkpt>
      <trkpt lat="45.872477665543556" lon="8.419675547629595">
        <ele>548.12</ele>
        <time>2020-09-27T13:35:02Z</time>
      </trkpt>
      <trkpt lat="45.872528459876776" lon="8.419654006138444">
        <ele>546.82000000000005</ele>
        <time>2020-09-27T13:35:11Z</time>
      </trkpt>
      <trkpt lat="45.872581014409661" lon="8.419616371393204">
        <ele>545.52999999999997</ele>
        <time>2020-09-27T13:35:19Z</time>
      </trkpt>
      <trkpt lat="45.872695259749889" lon="8.419553674757481">
        <ele>542.90999999999997</ele>
        <time>2020-09-27T13:35:33Z</time>
      </trkpt>
      <trkpt lat="45.87275393307209" lon="8.419419145211577">
        <ele>540.59000000000003</ele>
        <time>2020-09-27T13:35:47Z</time>
      </trkpt>
      <trkpt lat="45.872714202851057" lon="8.41931227594614">
        <ele>538.17999999999995</ele>
        <time>2020-09-27T13:35:57Z</time>
      </trkpt>
      <trkpt lat="45.872681261971593" lon="8.419229798018932">
        <ele>536.12</ele>
        <time>2020-09-27T13:36:08Z</time>
      </trkpt>
      <trkpt lat="45.872638514265418" lon="8.419257793575525">
        <ele>533.28999999999996</ele>
        <time>2020-09-27T13:36:26Z</time>
      </trkpt>
      <trkpt lat="45.872584786266088" lon="8.419296350330114">
        <ele>530.61000000000001</ele>
        <time>2020-09-27T13:36:44Z</time>
      </trkpt>
      <trkpt lat="45.872516641393304" lon="8.419274557381868">
        <ele>529.09000000000003</ele>
        <time>2020-09-27T13:36:59Z</time>
      </trkpt>
      <trkpt lat="45.872508594766259" lon="8.419187804684043">
        <ele>526.71000000000004</ele>
        <time>2020-09-27T13:37:15Z</time>
      </trkpt>
      <trkpt lat="45.87249300442636" lon="8.419121922925115">
        <ele>524.05999999999995</ele>
        <time>2020-09-27T13:37:27Z</time>
      </trkpt>
      <trkpt lat="45.872490406036377" lon="8.419025698676705">
        <ele>521.19000000000005</ele>
        <time>2020-09-27T13:37:40Z</time>
      </trkpt>
      <trkpt lat="45.872463751584291" lon="8.418990410864353">
        <ele>518.52999999999997</ele>
        <time>2020-09-27T13:37:54Z</time>
      </trkpt>
      <trkpt lat="45.872495016083121" lon="8.418924110010266">
        <ele>516.32000000000005</ele>
        <time>2020-09-27T13:38:07Z</time>
      </trkpt>
      <trkpt lat="45.872470205649734" lon="8.418868705630302">
        <ele>513.80999999999995</ele>
        <time>2020-09-27T13:38:21Z</time>
      </trkpt>
      <trkpt lat="45.872508762404323" lon="8.418793855234981">
        <ele>512.03999999999996</ele>
        <time>2020-09-27T13:38:34Z</time>
      </trkpt>
      <trkpt lat="45.872582355514169" lon="8.418723698705435">
        <ele>509.79000000000002</ele>
        <time>2020-09-27T13:38:45Z</time>
      </trkpt>
      <trkpt lat="45.87264840491116" lon="8.418634263798595">
        <ele>507.95999999999998</ele>
        <time>2020-09-27T13:38:57Z</time>
      </trkpt>
      <trkpt lat="45.872740019112825" lon="8.418577769771218">
        <ele>506.83999999999997</ele>
        <time>2020-09-27T13:39:09Z</time>
      </trkpt>
      <trkpt lat="45.872785868123174" lon="8.418527897447348">
        <ele>505.44</ele>
        <time>2020-09-27T13:39:23Z</time>
      </trkpt>
      <trkpt lat="45.872810762375593" lon="8.418498560786247">
        <ele>503.73000000000002</ele>
        <time>2020-09-27T13:39:33Z</time>
      </trkpt>
      <trkpt lat="45.872827861458063" lon="8.418452125042677">
        <ele>502.23000000000002</ele>
        <time>2020-09-27T13:39:44Z</time>
      </trkpt>
      <trkpt lat="45.872867340222001" lon="8.418404096737504">
        <ele>499.87</ele>
        <time>2020-09-27T13:39:56Z</time>
      </trkpt>
      <trkpt lat="45.872835237532854" lon="8.418352715671063">
        <ele>497.73000000000002</ele>
        <time>2020-09-27T13:40:07Z</time>
      </trkpt>
      <trkpt lat="45.872746724635363" lon="8.418340226635337">
        <ele>495.62</ele>
        <time>2020-09-27T13:40:21Z</time>
      </trkpt>
      <trkpt lat="45.872684698551893" lon="8.418316254392266">
        <ele>492.95999999999998</ele>
        <time>2020-09-27T13:40:36Z</time>
      </trkpt>
      <trkpt lat="45.872703474014997" lon="8.418250707909465">
        <ele>489.75999999999999</ele>
        <time>2020-09-27T13:40:48Z</time>
      </trkpt>
      <trkpt lat="45.872778072953224" lon="8.418235369026661">
        <ele>487.35000000000002</ele>
        <time>2020-09-27T13:41:01Z</time>
      </trkpt>
      <trkpt lat="45.87282283231616" lon="8.418166050687432">
        <ele>485.88999999999999</ele>
        <time>2020-09-27T13:41:17Z</time>
      </trkpt>
      <trkpt lat="45.872853929176927" lon="8.418062618002296">
        <ele>483.73000000000002</ele>
        <time>2020-09-27T13:41:28Z</time>
      </trkpt>
      <trkpt lat="45.872904723510146" lon="8.418055409565568">
        <ele>482.41000000000003</ele>
        <time>2020-09-27T13:41:38Z</time>
      </trkpt>
      <trkpt lat="45.872936071828008" lon="8.418047446757555">
        <ele>481.25999999999999</ele>
        <time>2020-09-27T13:41:47Z</time>
      </trkpt>
      <trkpt lat="45.872941100969911" lon="8.418039651587606">
        <ele>481.00999999999999</ele>
        <time>2020-09-27T13:41:48Z</time>
      </trkpt>
      <trkpt lat="45.873017460107803" lon="8.41802230104804">
        <ele>478.81999999999999</ele>
        <time>2020-09-27T13:42:00Z</time>
      </trkpt>
      <trkpt lat="45.873062806203961" lon="8.418029174208641">
        <ele>477.55000000000001</ele>
        <time>2020-09-27T13:42:06Z</time>
      </trkpt>
      <trkpt lat="45.873128855600953" lon="8.41804082505405">
        <ele>476.98000000000002</ele>
        <time>2020-09-27T13:42:19Z</time>
      </trkpt>
      <trkpt lat="45.87322105653584" lon="8.418065886944532">
        <ele>475.60000000000002</ele>
        <time>2020-09-27T13:42:32Z</time>
      </trkpt>
      <trkpt lat="45.873228600248694" lon="8.41807016171515">
        <ele>475.12</ele>
        <time>2020-09-27T13:42:47Z</time>
      </trkpt>
      <trkpt lat="45.873310910537839" lon="8.418049458414316">
        <ele>472.82999999999998</ele>
        <time>2020-09-27T13:42:57Z</time>
      </trkpt>
      <trkpt lat="45.87334762327373" lon="8.418046357110143">
        <ele>472.33999999999997</ele>
        <time>2020-09-27T13:43:06Z</time>
      </trkpt>
      <trkpt lat="45.873413924127817" lon="8.41804962605238">
        <ele>470.56999999999999</ele>
        <time>2020-09-27T13:43:17Z</time>
      </trkpt>
      <trkpt lat="45.873480811715126" lon="8.418006375432015">
        <ele>468.13999999999999</ele>
        <time>2020-09-27T13:43:28Z</time>
      </trkpt>
      <trkpt lat="45.873515764251351" lon="8.417917443439364">
        <ele>465.06999999999999</ele>
        <time>2020-09-27T13:43:39Z</time>
      </trkpt>
      <trkpt lat="45.873515009880066" lon="8.417755840346217">
        <ele>462.19</ele>
        <time>2020-09-27T13:43:52Z</time>
      </trkpt>
      <trkpt lat="45.873481817543507" lon="8.417693395167589">
        <ele>460.01999999999998</ele>
        <time>2020-09-27T13:44:03Z</time>
      </trkpt>
      <trkpt lat="45.873427921906114" lon="8.417633380740881">
        <ele>457.79000000000002</ele>
        <time>2020-09-27T13:44:15Z</time>
      </trkpt>
      <trkpt lat="45.873336894437671" lon="8.417636062949896">
        <ele>454.69</ele>
        <time>2020-09-27T13:44:31Z</time>
      </trkpt>
      <trkpt lat="45.87328995577991" lon="8.417620221152902">
        <ele>452.76999999999998</ele>
        <time>2020-09-27T13:44:45Z</time>
      </trkpt>
      <trkpt lat="45.873253159224987" lon="8.417568420991302">
        <ele>450.58999999999997</ele>
        <time>2020-09-27T13:44:55Z</time>
      </trkpt>
      <trkpt lat="45.873207226395607" lon="8.417524499818683">
        <ele>448.23000000000002</ele>
        <time>2020-09-27T13:45:12Z</time>
      </trkpt>
      <trkpt lat="45.873250057920814" lon="8.417433639988303">
        <ele>445.45999999999998</ele>
        <time>2020-09-27T13:45:25Z</time>
      </trkpt>
      <trkpt lat="45.87328459136188" lon="8.417349988594651">
        <ele>442.39999999999998</ele>
        <time>2020-09-27T13:45:39Z</time>
      </trkpt>
      <trkpt lat="45.873236982151866" lon="8.417245466262102">
        <ele>440.43000000000001</ele>
        <time>2020-09-27T13:45:51Z</time>
      </trkpt>
      <trkpt lat="45.873150816187263" lon="8.417228450998664">
        <ele>438.87</ele>
        <time>2020-09-27T13:46:04Z</time>
      </trkpt>
      <trkpt lat="45.873108822852373" lon="8.417245214805007">
        <ele>437.99000000000001</ele>
        <time>2020-09-27T13:46:21Z</time>
      </trkpt>
      <trkpt lat="45.873031122609973" lon="8.417240185663104">
        <ele>435.69</ele>
        <time>2020-09-27T13:46:33Z</time>
      </trkpt>
      <trkpt lat="45.872970521450043" lon="8.417262649163604">
        <ele>433.95999999999998</ele>
        <time>2020-09-27T13:46:45Z</time>
      </trkpt>
      <trkpt lat="45.872930539771914" lon="8.417281089350581">
        <ele>431.42000000000002</ele>
        <time>2020-09-27T13:47:00Z</time>
      </trkpt>
      <trkpt lat="45.872879410162568" lon="8.417254183441401">
        <ele>428.77999999999997</ele>
        <time>2020-09-27T13:47:16Z</time>
      </trkpt>
      <trkpt lat="45.872804056853056" lon="8.417200539261103">
        <ele>425.97000000000003</ele>
        <time>2020-09-27T13:47:31Z</time>
      </trkpt>
      <trkpt lat="45.872768433764577" lon="8.41720431111753">
        <ele>425.14999999999998</ele>
        <time>2020-09-27T13:47:51Z</time>
      </trkpt>
      <trkpt lat="45.872729122638702" lon="8.417196264490485">
        <ele>423.00999999999999</ele>
        <time>2020-09-27T13:48:07Z</time>
      </trkpt>
      <trkpt lat="45.872685704380274" lon="8.417167598381639">
        <ele>421.11000000000001</ele>
        <time>2020-09-27T13:48:21Z</time>
      </trkpt>
      <trkpt lat="45.872668270021677" lon="8.417128790169954">
        <ele>418.94999999999999</ele>
        <time>2020-09-27T13:48:34Z</time>
      </trkpt>
      <trkpt lat="45.872726272791624" lon="8.417047569528222">
        <ele>416.33999999999997</ele>
        <time>2020-09-27T13:48:47Z</time>
      </trkpt>
      <trkpt lat="45.872793411836028" lon="8.416994009166956">
        <ele>413.45999999999998</ele>
        <time>2020-09-27T13:49:02Z</time>
      </trkpt>
      <trkpt lat="45.872784527018666" lon="8.416918991133571">
        <ele>410.75</ele>
        <time>2020-09-27T13:49:14Z</time>
      </trkpt>
      <trkpt lat="45.872857701033354" lon="8.416863000020385">
        <ele>408.39999999999998</ele>
        <time>2020-09-27T13:49:27Z</time>
      </trkpt>
      <trkpt lat="45.872946381568909" lon="8.416834836825728">
        <ele>405.60000000000002</ele>
        <time>2020-09-27T13:49:40Z</time>
      </trkpt>
      <trkpt lat="45.873036989942193" lon="8.416830729693174">
        <ele>402.42000000000002</ele>
        <time>2020-09-27T13:49:57Z</time>
      </trkpt>
      <trkpt lat="45.873094741255045" lon="8.41682318598032">
        <ele>400.60000000000002</ele>
        <time>2020-09-27T13:50:10Z</time>
      </trkpt>
      <trkpt lat="45.873175878077745" lon="8.416781276464462">
        <ele>397.74000000000001</ele>
        <time>2020-09-27T13:50:23Z</time>
      </trkpt>
      <trkpt lat="45.87326698936522" lon="8.416744563728571">
        <ele>395.06</ele>
        <time>2020-09-27T13:50:36Z</time>
      </trkpt>
      <trkpt lat="45.873338570818305" lon="8.416668539866805">
        <ele>392.27999999999997</ele>
        <time>2020-09-27T13:50:50Z</time>
      </trkpt>
      <trkpt lat="45.87342188693583" lon="8.416608944535255">
        <ele>389.02999999999997</ele>
        <time>2020-09-27T13:51:03Z</time>
      </trkpt>
      <trkpt lat="45.873508555814624" lon="8.416570303961635">
        <ele>386.51999999999998</ele>
        <time>2020-09-27T13:51:16Z</time>
      </trkpt>
      <trkpt lat="45.873572928830981" lon="8.416540296748281">
        <ele>384.07999999999998</ele>
        <time>2020-09-27T13:51:27Z</time>
      </trkpt>
      <trkpt lat="45.873644258826971" lon="8.416526298969984">
        <ele>382.20999999999998</ele>
        <time>2020-09-27T13:51:38Z</time>
      </trkpt>
      <trkpt lat="45.873721539974213" lon="8.416516156867147">
        <ele>379.86000000000001</ele>
        <time>2020-09-27T13:51:51Z</time>
      </trkpt>
      <trkpt lat="45.873775519430637" lon="8.416493693366647">
        <ele>378.51999999999998</ele>
        <time>2020-09-27T13:52:06Z</time>
      </trkpt>
      <trkpt lat="45.873856488615274" lon="8.416494363918901">
        <ele>375.52999999999997</ele>
        <time>2020-09-27T13:52:20Z</time>
      </trkpt>
      <trkpt lat="45.873925220221281" lon="8.416477013379335">
        <ele>373.22000000000003</ele>
        <time>2020-09-27T13:52:35Z</time>
      </trkpt>
      <trkpt lat="45.873951204121113" lon="8.416389673948288">
        <ele>372.12</ele>
        <time>2020-09-27T13:52:52Z</time>
      </trkpt>
      <trkpt lat="45.873925471678376" lon="8.416239386424422">
        <ele>369.01999999999998</ele>
        <time>2020-09-27T13:53:07Z</time>
      </trkpt>
      <trkpt lat="45.873917173594236" lon="8.416111227124929">
        <ele>367.01999999999998</ele>
        <time>2020-09-27T13:53:19Z</time>
      </trkpt>
      <trkpt lat="45.873930417001247" lon="8.415964543819428">
        <ele>364.12</ele>
        <time>2020-09-27T13:53:32Z</time>
      </trkpt>
      <trkpt lat="45.87397844530642" lon="8.415892459452152">
        <ele>362.06</ele>
        <time>2020-09-27T13:53:42Z</time>
      </trkpt>
      <trkpt lat="45.874029072001576" lon="8.415795648470521">
        <ele>360.05000000000001</ele>
        <time>2020-09-27T13:53:54Z</time>
      </trkpt>
      <trkpt lat="45.874085146933794" lon="8.41571400873363">
        <ele>357.81999999999999</ele>
        <time>2020-09-27T13:54:05Z</time>
      </trkpt>
      <trkpt lat="45.874100485816598" lon="8.415701687335968">
        <ele>357.55000000000001</ele>
        <time>2020-09-27T13:54:07Z</time>
      </trkpt>
      <trkpt lat="45.874203583225608" lon="8.415707722306252">
        <ele>355.06999999999999</ele>
        <time>2020-09-27T13:54:20Z</time>
      </trkpt>
      <trkpt lat="45.874323025345802" lon="8.415714511647821">
        <ele>352</ele>
        <time>2020-09-27T13:54:36Z</time>
      </trkpt>
      <trkpt lat="45.874417405575514" lon="8.415638487786055">
        <ele>349.67000000000002</ele>
        <time>2020-09-27T13:54:49Z</time>
      </trkpt>
      <trkpt lat="45.874431487172842" lon="8.415500102564693">
        <ele>347.5</ele>
        <time>2020-09-27T13:55:03Z</time>
      </trkpt>
      <trkpt lat="45.87446803227067" lon="8.415434556081891">
        <ele>346.75</ele>
        <time>2020-09-27T13:55:14Z</time>
      </trkpt>
      <trkpt lat="45.874461075291038" lon="8.41544377617538">
        <ele>346.49000000000001</ele>
        <time>2020-09-27T13:55:30Z</time>
      </trkpt>
      <trkpt lat="45.874451017007232" lon="8.415452744811773">
        <ele>346.45999999999998</ele>
        <time>2020-09-27T13:55:47Z</time>
      </trkpt>
      <trkpt lat="45.874484879896045" lon="8.415436316281557">
        <ele>346.20999999999998</ele>
        <time>2020-09-27T13:55:59Z</time>
      </trkpt>
      <trkpt lat="45.874479180201888" lon="8.415416702628136">
        <ele>345.12</ele>
        <time>2020-09-27T13:56:09Z</time>
      </trkpt>
      <trkpt lat="45.874473229050636" lon="8.415409242734313">
        <ele>345.56999999999999</ele>
        <time>2020-09-27T13:56:31Z</time>
      </trkpt>
      <trkpt lat="45.874479096382856" lon="8.415418546646833">
        <ele>346.19</ele>
        <time>2020-09-27T13:56:47Z</time>
      </trkpt>
      <trkpt lat="45.874471887946129" lon="8.415414271876216">
        <ele>346.39999999999998</ele>
        <time>2020-09-27T13:57:00Z</time>
      </trkpt>
      <trkpt lat="45.874482281506062" lon="8.415404548868537">
        <ele>346.41000000000003</ele>
        <time>2020-09-27T13:57:17Z</time>
      </trkpt>
      <trkpt lat="45.874481862410903" lon="8.41540907509625">
        <ele>346.32999999999998</ele>
        <time>2020-09-27T13:57:37Z</time>
      </trkpt>
      <trkpt lat="45.874475240707397" lon="8.415414439514279">
        <ele>346.05000000000001</ele>
        <time>2020-09-27T13:57:53Z</time>
      </trkpt>
      <trkpt lat="45.874482532963157" lon="8.415395077317953">
        <ele>345.94</ele>
        <time>2020-09-27T13:58:10Z</time>
      </trkpt>
      <trkpt lat="45.874494099989533" lon="8.415401196107268">
        <ele>345.38999999999999</ele>
        <time>2020-09-27T13:58:25Z</time>
      </trkpt>
      <trkpt lat="45.874493680894375" lon="8.415399771183729">
        <ele>346.06999999999999</ele>
        <time>2020-09-27T13:58:40Z</time>
      </trkpt>
      <trkpt lat="45.874494770541787" lon="8.415400525555015">
        <ele>340.56</ele>
        <time>2020-09-27T13:58:43Z</time>
      </trkpt>
      <trkpt lat="45.874494267627597" lon="8.415400860831142">
        <ele>341.01999999999998</ele>
        <time>2020-09-27T13:58:44Z</time>
      </trkpt>
      <trkpt lat="45.874492507427931" lon="8.415401363745332">
        <ele>346.10000000000002</ele>
        <time>2020-09-27T13:58:47Z</time>
      </trkpt>
      <trkpt lat="45.874491753056645" lon="8.415400860831142">
        <ele>346.17000000000002</ele>
        <time>2020-09-27T13:58:48Z</time>
      </trkpt>
      <trkpt lat="45.874492675065994" lon="8.415401028469205">
        <ele>350.74000000000001</ele>
        <time>2020-09-27T13:58:50Z</time>
      </trkpt>
      <trkpt lat="45.874492339789867" lon="8.415401363745332">
        <ele>350.31</ele>
        <time>2020-09-27T13:58:51Z</time>
      </trkpt>
      <trkpt lat="45.874492423608899" lon="8.415401699021459">
        <ele>345.88999999999999</ele>
        <time>2020-09-27T13:58:52Z</time>
      </trkpt>
      <trkpt lat="45.874492507427931" lon="8.4154012799263">
        <ele>346.81</ele>
        <time>2020-09-27T13:58:53Z</time>
      </trkpt>
      <trkpt lat="45.874492926523089" lon="8.415398262441158">
        <ele>350.13</ele>
        <time>2020-09-27T13:58:57Z</time>
      </trkpt>
      <trkpt lat="45.87449342943728" lon="8.415398430079222">
        <ele>347.98000000000002</ele>
        <time>2020-09-27T13:58:58Z</time>
      </trkpt>
      <trkpt lat="45.874504325911403" lon="8.415402201935649">
        <ele>345.94999999999999</ele>
        <time>2020-09-27T13:59:17Z</time>
      </trkpt>
      <trkpt lat="45.874601807445288" lon="8.415454588830471">
        <ele>345.35000000000002</ele>
        <time>2020-09-27T13:59:30Z</time>
      </trkpt>
      <trkpt lat="45.874696271494031" lon="8.415493816137314">
        <ele>344.10000000000002</ele>
        <time>2020-09-27T13:59:44Z</time>
      </trkpt>
      <trkpt lat="45.874803978949785" lon="8.415479566901922">
        <ele>342.82999999999998</ele>
        <time>2020-09-27T13:59:57Z</time>
      </trkpt>
      <trkpt lat="45.874895928427577" lon="8.415600182488561">
        <ele>341.23000000000002</ele>
        <time>2020-09-27T14:00:13Z</time>
      </trkpt>
      <trkpt lat="45.875036073848605" lon="8.415641924366355">
        <ele>339.17000000000002</ele>
        <time>2020-09-27T14:00:30Z</time>
      </trkpt>
      <trkpt lat="45.875102374702692" lon="8.415657430887222">
        <ele>337.88999999999999</ele>
        <time>2020-09-27T14:00:37Z</time>
      </trkpt>
      <trkpt lat="45.87514185346663" lon="8.415645947679877">
        <ele>337.87</ele>
        <time>2020-09-27T14:00:41Z</time>
      </trkpt>
      <trkpt lat="45.875250231474638" lon="8.415563637390733">
        <ele>336.23000000000002</ele>
        <time>2020-09-27T14:00:54Z</time>
      </trkpt>
      <trkpt lat="45.875378558412194" lon="8.415473196655512">
        <ele>334.75</ele>
        <time>2020-09-27T14:01:09Z</time>
      </trkpt>
      <trkpt lat="45.875492468476295" lon="8.4154306165874">
        <ele>333.80000000000001</ele>
        <time>2020-09-27T14:01:25Z</time>
      </trkpt>
      <trkpt lat="45.875515602529049" lon="8.415433466434479">
        <ele>333.43000000000001</ele>
        <time>2020-09-27T14:01:32Z</time>
      </trkpt>
      <trkpt lat="45.875603696331382" lon="8.415457438677549">
        <ele>332.19999999999999</ele>
        <time>2020-09-27T14:01:40Z</time>
      </trkpt>
      <trkpt lat="45.875819614157081" lon="8.415448050945997">
        <ele>329.93000000000001</ele>
        <time>2020-09-27T14:01:59Z</time>
      </trkpt>
      <trkpt lat="45.875867810100317" lon="8.415440339595079">
        <ele>329.32999999999998</ele>
        <time>2020-09-27T14:02:04Z</time>
      </trkpt>
      <trkpt lat="45.875975014641881" lon="8.415343696251512">
        <ele>327.58999999999997</ele>
        <time>2020-09-27T14:02:20Z</time>
      </trkpt>
      <trkpt lat="45.875981552526355" lon="8.415337661281228">
        <ele>327.57999999999998</ele>
        <time>2020-09-27T14:02:21Z</time>
      </trkpt>
      <trkpt lat="45.876009883359075" lon="8.415317125618458">
        <ele>327.13999999999999</ele>
        <time>2020-09-27T14:02:24Z</time>
      </trkpt>
      <trkpt lat="45.876146089285612" lon="8.415170023217797">
        <ele>325.19</ele>
        <time>2020-09-27T14:02:39Z</time>
      </trkpt>
      <trkpt lat="45.876282462850213" lon="8.414947902783752">
        <ele>322.12</ele>
        <time>2020-09-27T14:02:58Z</time>
      </trkpt>
      <trkpt lat="45.876350859180093" lon="8.414695020765066">
        <ele>319.62</ele>
        <time>2020-09-27T14:03:15Z</time>
      </trkpt>
      <trkpt lat="45.876389415934682" lon="8.414542134851217">
        <ele>318.12</ele>
        <time>2020-09-27T14:03:26Z</time>
      </trkpt>
      <trkpt lat="45.87646896019578" lon="8.414319343864918">
        <ele>315.02999999999997</ele>
        <time>2020-09-27T14:03:43Z</time>
      </trkpt>
      <trkpt lat="45.876560239121318" lon="8.414129409939051">
        <ele>313.19999999999999</ele>
        <time>2020-09-27T14:03:58Z</time>
      </trkpt>
      <trkpt lat="45.876679429784417" lon="8.413896812126041">
        <ele>310.19999999999999</ele>
        <time>2020-09-27T14:04:18Z</time>
      </trkpt>
      <trkpt lat="45.876784035935998" lon="8.413697490468621">
        <ele>307.63</ele>
        <time>2020-09-27T14:04:34Z</time>
      </trkpt>
      <trkpt lat="45.876883193850517" lon="8.413504036143422">
        <ele>305.05000000000001</ele>
        <time>2020-09-27T14:04:50Z</time>
      </trkpt>
      <trkpt lat="45.876947483047843" lon="8.413285771384835">
        <ele>302.52999999999997</ele>
        <time>2020-09-27T14:05:06Z</time>
      </trkpt>
      <trkpt lat="45.87701965123415" lon="8.413112433627248">
        <ele>301.23000000000002</ele>
        <time>2020-09-27T14:05:19Z</time>
      </trkpt>
      <trkpt lat="45.877057118341327" lon="8.413039091974497">
        <ele>300.43000000000001</ele>
        <time>2020-09-27T14:05:27Z</time>
      </trkpt>
      <trkpt lat="45.877103889361024" lon="8.412922667339444">
        <ele>299.61000000000001</ele>
        <time>2020-09-27T14:05:35Z</time>
      </trkpt>
      <trkpt lat="45.877152336761355" lon="8.412857288494706">
        <ele>298.91000000000003</ele>
        <time>2020-09-27T14:05:43Z</time>
      </trkpt>
      <trkpt lat="45.877171950414777" lon="8.412819150835276">
        <ele>298.39999999999998</ele>
        <time>2020-09-27T14:05:46Z</time>
      </trkpt>
      <trkpt lat="45.877282256260514" lon="8.412749916315079">
        <ele>297.33999999999997</ele>
        <time>2020-09-27T14:05:57Z</time>
      </trkpt>
      <trkpt lat="45.87746188044548" lon="8.412839099764824">
        <ele>296.67000000000002</ele>
        <time>2020-09-27T14:06:15Z</time>
      </trkpt>
      <trkpt lat="45.877597834914923" lon="8.412925768643618">
        <ele>296.43000000000001</ele>
        <time>2020-09-27T14:06:29Z</time>
      </trkpt>
      <trkpt lat="45.877712331712246" lon="8.413016460835934">
        <ele>296.49000000000001</ele>
        <time>2020-09-27T14:06:40Z</time>
      </trkpt>
      <trkpt lat="45.877834875136614" lon="8.413074128329754">
        <ele>296.14999999999998</ele>
        <time>2020-09-27T14:06:52Z</time>
      </trkpt>
      <trkpt lat="45.877938056364655" lon="8.413122408092022">
        <ele>295.89999999999998</ele>
        <time>2020-09-27T14:07:02Z</time>
      </trkpt>
      <trkpt lat="45.878038220107555" lon="8.413166413083673">
        <ele>295.85000000000002</ele>
        <time>2020-09-27T14:07:14Z</time>
      </trkpt>
      <trkpt lat="45.878147520124912" lon="8.413188038393855">
        <ele>295.75</ele>
        <time>2020-09-27T14:07:26Z</time>
      </trkpt>
      <trkpt lat="45.87815715931356" lon="8.413194827735424">
        <ele>294.92000000000002</ele>
        <time>2020-09-27T14:07:38Z</time>
      </trkpt>
      <trkpt lat="45.878134611994028" lon="8.413215866312385">
        <ele>295.11000000000001</ele>
        <time>2020-09-27T14:08:01Z</time>
      </trkpt>
      <trkpt lat="45.878156991675496" lon="8.413253081962466">
        <ele>296.16000000000003</ele>
        <time>2020-09-27T14:08:29Z</time>
      </trkpt>
      <trkpt lat="45.878181383013725" lon="8.413261463865638">
        <ele>295.48000000000002</ele>
        <time>2020-09-27T14:08:49Z</time>
      </trkpt>
      <trkpt lat="45.878164200112224" lon="8.413298428058624">
        <ele>295.63999999999999</ele>
        <time>2020-09-27T14:09:14Z</time>
      </trkpt>
      <trkpt lat="45.878179622814059" lon="8.413294740021229">
        <ele>295.81999999999999</ele>
        <time>2020-09-27T14:09:39Z</time>
      </trkpt>
      <trkpt lat="45.878185071051121" lon="8.413276467472315">
        <ele>295.98000000000002</ele>
        <time>2020-09-27T14:10:04Z</time>
      </trkpt>
      <trkpt lat="45.878195129334927" lon="8.41331678442657">
        <ele>296.06999999999999</ele>
        <time>2020-09-27T14:10:27Z</time>
      </trkpt>
      <trkpt lat="45.878187082707882" lon="8.413247298449278">
        <ele>296.13</ele>
        <time>2020-09-27T14:10:49Z</time>
      </trkpt>
      <trkpt lat="45.878183394670486" lon="8.413234725594521">
        <ele>292.30000000000001</ele>
        <time>2020-09-27T14:10:57Z</time>
      </trkpt>
      <trkpt lat="45.878182975575328" lon="8.41323321685195">
        <ele>300.12</ele>
        <time>2020-09-27T14:10:58Z</time>
      </trkpt>
      <trkpt lat="45.878181550651789" lon="8.413232797756791">
        <ele>299.00999999999999</ele>
        <time>2020-09-27T14:10:59Z</time>
      </trkpt>
      <trkpt lat="45.878176689147949" lon="8.413237575441599">
        <ele>296.41000000000003</ele>
        <time>2020-09-27T14:11:02Z</time>
      </trkpt>
      <trkpt lat="45.878145592287183" lon="8.41326548717916">
        <ele>296.57999999999998</ele>
        <time>2020-09-27T14:11:24Z</time>
      </trkpt>
      <trkpt lat="45.878140982240438" lon="8.413282670080662">
        <ele>296.50999999999999</ele>
        <time>2020-09-27T14:12:03Z</time>
      </trkpt>
      <trkpt lat="45.878125056624413" lon="8.413285603746772">
        <ele>296.49000000000001</ele>
        <time>2020-09-27T14:12:36Z</time>
      </trkpt>
      <trkpt lat="45.878120446577668" lon="8.413276467472315">
        <ele>296.48000000000002</ele>
        <time>2020-09-27T14:13:05Z</time>
      </trkpt>
    </trkseg>
  </trk>

</gpx>